     2.11           OBSERVATION DATA    G (GPS)             RINEX VERSION / TYPE
teqc 2010Oct21 OPUS Account 20111027 16:42:55UTC            PGM / RUN BY / DATE
T 1381                                                      MARKER NAME
2136                                                        MARKER NUMBER
CSMIDDLETON NGS                                             OBSERVER / AGENCY
4624K01648 TRIMBLE NETR5 4.41                               REC # / TYPE / VERS
60165452 TRM41249.00 NONE                                   ANT # / TYPE
  -761087.0419 -5550728.4372  3038008.0651                  APPROX POSITION XYZ
        2.0000        0.0000        0.0000                  ANTENNA: DELTA H/E/N
     1     1                                                WAVELENGTH FACT L1/2
     5    L1    L2    C1    P1    P2                        # / TYPES OF OBSERV
    15                                                      LEAP SECONDS
  2011     8    16    18    47   30.0000000     GPS         TIME OF FIRST OBS
                                                            END OF HEADER
 11  8 16 18 47 30.0000000  0 10G01G26G24G11G28G08G07G19G17G13
 118872653.69017  92628102.00017  22620714.109                    22620726.805
 123291403.60617  96071265.51354  23461574.742                    23461585.078
 118139859.67617  92057071.21354  22481267.484                    22481278.824
 113391831.66018  88357302.74455  21577748.555                    21577757.066
 116672397.01317  90913614.48055  22202028.438                    22202036.336
 107749304.94818  83960529.34155  20504011.094                    20504019.902
 106829846.56318  83244071.86618  20329044.438                    20329052.883
 123942839.21116  96578868.26354  23585539.328                    23585546.863
 121520702.46817  94691510.54116  23124620.469                    23124633.168
 124149945.36616  96740267.24953  23624949.563                    23624963.500
 11  8 16 18 48  0.0000000  0 10G01G26G24G11G28G08G07G19G17G13
 118823895.983 7  92590109.030 7  22611435.961                    22611449.102
 123227024.482 7  96021100.00544  23449322.797                    23449333.988
 118089440.595 7  92017783.65144  22471673.289                    22471684.551
 113380561.186 8  88348520.57045  21575603.711                    21575612.512
 116646569.482 7  90893489.15045  22197113.523                    22197121.523
 107702715.732 8  83924226.04345  20495145.055                    20495153.887
 106839786.692 8  83251817.397 8  20330935.695                    20330944.125
 124044547.251 6  96658121.19444  23604893.820                    23604901.785
 121430492.805 7  94621217.406 7  23107454.281                    23107467.047
 124261002.136 6  96826804.71843  23646083.461                    23646097.234
 11  8 16 18 48 30.0000000  0 10G01G26G24G11G28G08G07G19G17G13
 118775528.512 7  92552420.139 7  22602231.250                    22602244.762
 123163159.200 7  95971334.81843  23437170.555                    23437179.746
 118039395.089 7  91978787.19944  22462149.633                    22462160.809
 113369851.216 8  88340175.14445  21573565.852                    21573574.453
 116620810.326 7  90873417.09845  22192211.367                    22192219.609
 107656469.888 8  83888190.31845  20486345.102                    20486353.789
 106850187.207 8  83259921.672 8  20332915.156                    20332923.340
 124146409.007 6  96737493.88144  23624276.992                    23624284.922
 121340540.576 7  94551124.892 7  23090336.352                    23090349.691
 124372106.415 6  96913379.19443  23667226.094                    23667239.078
 11  8 16 18 49  0.0000000  0 10G01G26G24G11G28G08G07G19G17G13
 118727553.720 7  92515037.249 7  22593101.938                    22593115.277
 123099809.466 7  95921971.33844  23425115.453                    23425125.254
 117989725.516 7  91940083.66944  22452697.516                    22452709.039
 113359702.525 8  88332267.06745  21571634.516                    21571642.711
 116595118.535 7  90853397.53045  22187322.289                    22187330.699
 107610569.487 8  83852423.76845  20477610.539                    20477619.156
 106861048.632 8  83268385.103 8  20334981.734                    20334990.059
 124248421.472 7  96816984.05244  23643689.945                    23643698.230
 121250847.352 7  94481234.201 6  23073268.594                    23073280.887
 124483254.674 6  96999987.88843  23688376.906                    23688389.898
 11  8 16 18 49 30.0000000  0 10G01G26G24G11G28G08G07G19G17G13
 118679974.005 7  92477962.195 7  22584048.063                    22584061.086
 123036977.378 7  95873011.29144  23413158.438                    23413169.715
 117940434.558 7  91901675.20144  22443317.273                    22443328.996
 113350116.086 8  88324797.12745  21569810.320                    21569819.086
 116569493.583 7  90833430.04045  22182445.992                    22182454.512
 107565017.125 7  83816928.42345  20468941.984                    20468950.598
 106872371.998 8  83277208.484 8  20337136.664                    20337145.457
 124350582.076 7  96896589.64744  23663130.234                    23663138.422
 121161415.132 7  94411546.857 6  23056250.391                    23056262.313
 124594444.202 6  97086628.81543  23709535.633                    23709549.250
 11  8 16 18 50  0.0000000  0 10G01G26G24G11G28G08G07G19G17G13
 118632789.620 7  92441195.180 7  22575069.289                    22575082.285
 122974662.530 6  95824454.32644  23401300.539                    23401311.234
 117891522.667 7  91863562.05244  22434010.250                    22434021.176
 113341090.563 8  88317764.26445  21568092.641                    21568101.383
 116543932.068 7  90813511.96845  22177582.219                    22177590.336
 107519813.179 8  83781704.56745  20460339.953                    20460348.309
 106884156.105 8  83286390.890 8  20339379.148                    20339387.770
 124452885.922 7  96976306.87245  23682598.477                    23682606.652
 121072242.803 7  94342062.060 6  23039281.414                    23039292.961
 124705669.756 7  97173297.73243  23730702.148                    23730714.789
 11  8 16 18 50 30.0000000  0 10G01G26G24G11G28G08G07G19G17G13
 118586002.832 7  92404737.982 7  22566165.992                    22566179.387
 122912866.765 7  95776301.76144  23389540.531                    23389552.219
 117842992.269 7  91825746.21044  22424774.953                    22424786.188
 113332626.949 8  88311169.24745  21566482.250                    21566491.309
 116518433.519 7  90793642.98745  22172729.969                    22172738.094
 107474959.526 8  83746753.65645  20451804.500                    20451812.910
 106896401.443 8  83295932.689 8  20341709.531                    20341717.504
 124555330.178 7  97056133.48445  23702093.133                    23702101.070
 120983331.687 7  94272780.787 6  23022361.961                    23022373.602
 124816928.026 6  97259992.16743  23751873.438                    23751886.879
 11  8 16 18 51  0.0000000  0 10G01G26G24G11G28G08G07G19G17G13
 118539616.406 7  92368592.757 7  22557339.320                    22557351.992
 122851592.233 7  95728555.36144  23377880.508                    23377891.395
 117794846.478 7  91788230.02844  22415612.836                    22415624.328
 113324726.393 8  88305012.95945  21564978.508                    21564987.379
 116492997.412 7  90773822.64545  22167889.367                    22167897.684
 107430459.006 8  83712077.92845  20443336.898                    20443345.141
 106909109.080 8  83305834.733 8  20344127.414                    20344135.625
 124657912.445 6  97136067.64844  23721612.250                    23721621.652
 120894683.705 7  94203704.593 6  23005492.234                    23005504.250
 124928216.292 7  97346709.97343  23773051.266                    23773064.977
 11  8 16 18 51 30.0000000  0 10G01G26G24G11G28G08G07G19G17G13
 118493632.933 7  92332761.512 7  22548589.094                    22548601.805
 122790841.400 7  95681217.08044  23366319.203                    23366331.410
 117747088.021 7  91751015.71044  22406525.266                    22406536.398
 113317390.037 8  88299296.32145  21563582.813                    21563591.703
 116467623.268 7  90754050.59246  22163060.891                    22163068.836
 107386314.735 8  83677679.78745  20434936.141                    20434944.449
 106922280.701 8  83316098.325 8  20346633.883                    20346642.523
 124760630.551 6  97216107.62244  23741160.070                    23741168.363
 120806300.981 7  94134835.065 6  22988673.883                    22988686.039
 125039532.144 6  97433449.30743  23794234.438                    23794247.918
 11  8 16 18 52  0.0000000  0 10G01G26G24G11G28G08G07G19G17G13
 118448054.995 7  92297246.271 7  22539915.859                    22539928.727
 122730616.004 7  95634288.22644  23354859.641                    23354870.793
 117699719.599 7  91714105.29944  22397511.180                    22397522.641
 113310618.631 8  88294019.91245  21562294.211                    21562303.145
 116442310.274 7  90734326.19445  22158243.859                    22158252.172
 107342528.830 8  83643560.89645  20426603.773                    20426612.266
 106935916.804 8  83326723.837 8  20349229.195                    20349237.438
 124863481.385 7  97296251.10544  23760732.055                    23760739.961
 120718184.863 7  94066173.256 6  22971905.156                    22971917.785
 125150872.387 6  97520207.64743  23815422.180                    23815435.469
 11  8 16 18 52 30.0000000  0 10G01G26G24G11G28G08G07G19G17G13
 118402884.497 7  92262048.510 7  22531319.797                    22531332.531
 122670917.917 7  95587770.22444  23343500.219                    23343510.422
 117652743.469 7  91677500.57444  22388571.930                    22388583.250
 113304412.947 8  88289184.30745  21561112.805                    21561122.008
 116417057.413 8  90714648.65846  22153438.781                    22153446.688
 107299103.355 8  83609722.86245  20418340.086                    20418348.895
 106950018.295 8  83337711.976 8  20351912.188                    20351920.621
 124966462.479 7  97376496.07144  23780329.039                    23780336.176
 120630336.774 6  93997720.332 6  22955188.680                    22955200.992
 125262233.976 6  97606982.61743  23836612.930                    23836627.398
 11  8 16 18 53  0.0000000  0 10G01G26G24G11G28G08G07G19G17G13
 118358124.481 7  92227170.602 7  22522802.094                    22522814.887
 122611749.206 7  95541664.74344  23332239.922                    23332250.637
 117606162.405 7  91641203.68744  22379708.039                    22379718.637
 113298774.258 8  88284790.53145  21560040.219                    21560049.004
 116391864.315 7  90695017.67946  22148644.531                    22148652.488
 107256041.177 8  83576167.91245  20410146.156                    20410154.539
 106964586.145 8  83349063.525 8  20354684.352                    20354692.883
 125069571.240 7  97456840.48944  23799950.016                    23799957.203
 120542758.326 7  93929477.495 7  22938522.766                    22938534.918
 125373614.130 6  97693772.02843  23857808.602                    23857823.109
 11  8 16 18 53 30.0000000  0 10G01G26G24G11G28G08G07G19G17G13
 118313776.845 7  92192614.023 7  22514363.352                    22514376.367
 122553111.329 7  95495972.90944  23321082.227                    23321092.496
 117559979.078 7  91605216.71544  22370919.617                    22370930.477
 113293702.920 8  88280838.84745  21559075.164                    21559083.781
 116366730.161 8  90675432.63746  22143861.773                    22143869.844
 107213344.638 7  83542897.87845  20402021.070                    20402029.871
 106979620.752 8  83360778.771 8  20357545.555                    20357553.887
 125172804.975 7  97537282.32444  23819595.742                    23819602.152
 120455451.129 7  93861446.020 7  22921908.641                    22921920.910
 125485009.870 6  97780573.57343  23879007.281                    23879021.117
 11  8 16 18 54  0.0000000  0 10G01G26G24G11G28G08G07G19G17G13
 118269844.175 7  92158380.801 7  22506002.938                    22506015.832
 122495006.635 7  95450696.54144  23310025.266                    23310035.793
 117514196.157 7  91569541.74544  22362207.180                    22362218.121
 113289199.624 8  88277329.79845  21558217.797                    21558226.973
 116341654.424 8  90655893.11646  22139089.594                    22139097.992
 107171015.934 7  83509914.46145  20393966.055                    20393975.039
 106995123.375 8  83372858.722 8  20360495.570                    20360504.051
 125276161.029 7  97617819.48844  23839263.289                    23839270.109
 120368416.742 7  93793627.120 7  22905347.047                    22905358.531
 125596418.334 6  97867385.02743  23900207.641                    23900221.613
 11  8 16 18 54 30.0000000  0 10G01G26G24G11G28G08G07G19G17G13
 118226329.109 7  92124472.984 7  22497722.047                    22497735.102
 122437436.765 7  95405836.90444  23299070.195                    23299080.352
 117468816.092 7  91534180.68744  22353571.680                    22353582.387
 113285265.529 8  88274264.27245  21557469.516                    21557478.230
 116316636.196 8  90636398.39346  22134328.922                    22134337.484
 107129057.554 8  83477219.61645  20385981.359                    20385990.406
 107011094.846 8  83385303.994 8  20363535.109                    20363543.070
 125379637.235 7  97698450.20144  23858953.523                    23858961.852
 120281656.583 7  93726021.917 6  22888836.711                    22888848.676
 125707836.555 6  97954204.07343  23921409.852                    23921423.930
 11  8 16 18 55  0.0000000  0 10G01G26G24G11G28G08G07G19G17G13
 118183233.502 7  92090892.021 7  22489521.328                    22489534.195
 122380403.745 7  95361395.57344  23288216.625                    23288226.652
 117423841.438 7  91499135.53544  22345013.734                    22345023.844
 113281901.248 8  88271642.76645  21556829.195                    21556837.809
 116291675.144 8  90616948.23846  22129578.945                    22129587.477
 107087472.172 8  83444815.41245  20378068.242                    20378076.699
 107027536.167 8  83398115.389 8  20366663.664                    20366671.621
 125483230.950 7  97779172.48744  23878667.031                    23878675.012
 120195172.530 7  93658631.856 6  22872379.375                    22872391.313
 125819261.820 6  98041028.59343  23942612.766                    23942627.961
 11  8 16 18 55 30.0000000  0 10G01G26G24G11G28G08G07G19G17G13
 118140560.114 7  92057640.067 7  22481401.391                    22481414.105
 122323909.141 7  95317373.81244  23277465.992                    23277476.395
 117379274.641 7  91464408.18644  22336532.141                    22336542.965
 113279107.626 8  88269465.92745  21556298.070                    21556306.375
 116266770.448 8  90597541.98746  22124839.789                    22124847.773
 107046261.924 8  83412703.52145  20370226.172                    20370234.777
 107044447.802 8  83411293.260 8  20369881.836                    20369890.020
 125586939.529 7  97859984.28644  23898402.367                    23898410.453
 120108966.023 7  93591458.083 6  22855974.391                    22855986.246
 125930691.047 6  98127856.22443  23963817.438                    23963831.762
 11  8 16 18 56  0.0000000  0 10G01G26G24G11G28G08G07G19G17G13
 118098310.907 7  92024718.633 7  22473361.180                    22473374.277
 122267954.944 7  95273773.16644  23266818.383                    23266828.313
 117335118.277 7  91430000.66144  22328129.984                    22328140.680
 113276884.941 7  88267733.97145  21555874.852                    21555883.277
 116241921.536 8  90578179.21346  22120111.000                    22120119.379
 107005429.243 8  83380885.84145  20362455.805                    20362464.824
 107061830.046 8  83424837.839 8  20373189.945                    20373197.992
 125690760.128 6  97940883.38344  23918158.641                    23918166.457
 120023038.062 7  93524501.344 6  22839622.633                    22839634.313
 126042121.546 6  98214684.90043  23985022.273                    23985036.996
 11  8 16 18 56 30.0000000  0 10G01G26G24G11G28G08G07G19G17G13
 118056488.723 7  91992129.944 7  22465402.383                    22465415.203
 122212542.974 7  95230595.00544  23256273.719                    23256283.895
 117291375.407 7  91395915.33445  22319805.609                    22319816.809
 113275234.654 7  88266448.05345  21555560.383                    21555568.750
 116217128.113 8  90558859.66846  22115393.305                    22115401.332
 106964977.375 8  83349364.89545  20354758.453                    20354767.148
 107079684.937 8  83438750.717 8  20376587.633                    20376595.668
 125794691.065 7  98021868.44944  23937936.164                    23937943.504
 119937391.002 7  93457763.482 6  22823324.797                    22823335.977
 126153550.725 6  98301512.46743  24006227.219                    24006241.828
 11  8 16 18 57  0.0000000  0 10G01G26G24G11G28G08G07G19G17G13
 118015095.588 7  91959875.584 7  22457525.383                    22457538.422
 122157674.842 7  95187840.59844  23245832.836                    23245843.230
 117248047.953 7  91362153.71245  22311560.406                    22311572.105
 113274156.767 7  88265608.13945  21555355.461                    21555364.059
 116192388.867 8  90539582.34546  22110685.383                    22110693.871
 106924908.187 8  83318142.14345  20347133.070                    20347141.766
 107098012.250 8  83453031.727 8  20380074.859                    20380083.297
 125898729.013 7  98102936.90344  23957733.531                    23957742.172
 119852026.199 7  93391245.580 6  22807080.406                    22807091.242
 126264975.271 6  98388336.45343  24027431.523                    24027446.098
 11  8 16 18 57 30.0000000  0 10G01G26G24G11G28G08G07G19G17G13
 117974133.589 7  91927957.180 7  22449730.391                    22449742.934
 122103352.185 7  95145511.26544  23235495.539                    23235506.086
 117205138.657 7  91328717.92644  22303394.703                    22303406.609
 113273652.333 7  88265215.08645  21555259.984                    21555267.984
 116167703.546 8  90520347.03946  22105988.133                    22105996.359
 106885224.132 8  83287219.50545  20339581.789                    20339590.605
 107116812.985 8  83467681.627 8  20383652.359                    20383660.676
 126002871.736 7  98184087.02144  23977551.789                    23977559.813
 119766944.800 7  93324948.510 6  22790890.094                    22790901.645
 126376392.385 6  98475154.65143  24048633.305                    24048648.441
 11  8 16 18 58  0.0000000  0 10G01G26G24G11G28G08G07G19G17G13
 117933605.499 7  91896376.887 7  22442018.570                    22442031.484
 122049577.044 6  95103608.57644  23225261.617                    23225273.031
 117162649.893 7  91295609.80045  22295309.984                    22295321.309
 113273721.592 8  88265269.06945  21555272.641                    21555281.406
 116143071.784 8  90501153.47246  22101300.656                    22101309.121
 106845927.648 8  83256598.85645  20332103.727                    20332112.539
 107136087.852 8  83482700.982 8  20387320.516                    20387329.000
 126107116.594 7  98265316.67344  23997388.000                    23997396.918
 119682148.050 7  93258873.242 6  22774753.641                    22774764.938
 126487799.585 6  98561965.17043  24069834.313                    24069848.730
 11  8 16 18 58 30.0000000  0 10G01G26G24G11G28G08G07G19G17G13
 117893512.849 7  91865135.908 7  22434388.969                    22434401.488
 121996350.852 6  95062133.62044  23215133.531                    23215144.227
 117120584.082 7  91262831.28444  22287304.734                    22287316.234
 113274365.417 7  88265770.75445  21555395.375                    21555403.609
 116118492.685 8  90482000.94046  22096623.672                    22096631.762
 106807020.889 8  83226281.89045  20324700.383                    20324708.871
 107155837.260 8  83498090.097 7  20391078.742                    20391087.129
 126211461.128 7  98346624.00244  24017245.250                    24017252.621
 119597637.600 7  93193021.074 6  22758671.359                    22758683.012
 126599193.690 6  98648765.43943  24091031.727                    24091046.531
 11  8 16 18 59  0.0000000  0 10G01G26G24G11G28G08G07G19G17G13
 117853858.445 7  91834236.429 7  22426843.258                    22426856.195
 121943675.131 6  95021087.58444  23205109.766                    23205120.223
 117078943.752 7  91230384.31144  22279381.094                    22279392.414
 113275584.123 7  88266720.40345  21555627.391                    21555635.605
 116093965.483 8  90462888.84846  22091956.117                    22091964.379
 106768506.643 7  83196270.79245  20317371.445                    20317379.914
 107176061.979 8  83513849.594 8  20394927.258                    20394935.625
 126315902.824 7  98428007.09144  24037119.609                    24037127.613
 119513414.994 7  93127393.170 6  22742644.242                    22742656.070
 126710571.994 6  98735553.41043  24112226.414                    24112241.559
 11  8 16 18 59 30.0000000  0 10G01G26G24G11G28G08G07G19G17G13
 117814644.122 7  91803679.853 7  22419381.422                    22419393.809
 121891551.620 6  94980471.86144  23195191.250                    23195202.359
 117037731.395 7  91198270.82044  22271538.250                    22271549.855
 113277378.085 8  88268118.30045  21555968.805                    21555976.527
 116069489.471 8  90443816.65446  22087298.477                    22087306.723
 106730386.736 8  83166566.95346  20310117.195                    20310125.707
 107196762.776 8  83529980.052 8  20398866.367                    20398874.773
 126420439.143 7  98509463.91644  24057012.180                    24057020.156
 119429481.851 7  93061990.842 7  22726672.313                    22726683.672
 126821931.331 6  98822326.63143  24133417.844                    24133431.441
 11  8 16 19  0  0.0000000  0 10G01G26G24G11G28G08G07G19G17G13
 117775872.620 7  91773468.331 7  22412002.797                    22412016.004
 121839982.080 6  94940287.82044  23185376.945                    23185388.023
 116996949.542 7  91166492.79344  22263777.664                    22263789.715
 113279748.099 7  88269965.05545  21556419.344                    21556427.566
 116045064.410 8  90424784.14346  22082650.641                    22082658.879
 106692664.166 8  83137172.73545  20302938.930                    20302947.590
 107217940.527 8  83546482.164 8  20402896.445                    20402905.086
 126525067.850 7  98590992.68944  24076922.258                    24076930.660
 119345839.407 7  92996815.026 7  22710755.656                    22710767.516
 126933269.483 6  98909083.30242  24154604.492                    24154619.570
 11  8 16 19  0 30.0000000  0 10G01G26G24G11G28G08G07G19G17G13
 117737545.994 7  91743603.468 7  22404709.141                    22404722.457
 121788968.202 6  94900536.72544  23175669.969                    23175681.012
 116956600.412 7  91135051.97044  22256099.531                    22256111.000
 113282694.540 7  88272260.97945  21556980.305                    21556988.031
 116020689.816 8  90405790.96846  22078012.383                    22078020.785
 106655341.243 8  83108089.92746  20295836.430                    20295844.977
 107239595.648 8  83563356.251 8  20407017.805                    20407026.016
 126629786.364 7  98672591.45044  24096850.492                    24096858.137
 119262488.980 7  92931866.745 7  22694894.852                    22694906.047
 127044583.372 6  98995821.06942  24175787.039                    24175802.277
 11  8 16 19  1  0.0000000  0 10G01G26G24G11G28G08G07G19G17G13
 117699666.020 7  91714086.649 7  22397501.313                    22397514.184
 121738511.411 6  94861219.73444  23166068.594                    23166079.070
 116916686.402 7  91103950.17845  22248504.125                    22248515.848
 113286217.588 8  88275006.20145  21557650.641                    21557659.125
 115996364.986 8  90386836.56946  22073383.250                    22073391.129
 106618419.890 8  83079320.03146  20288810.977                    20288819.359
 107261728.633 8  83580602.705 7  20411229.047                    20411237.570
 126734592.190 7  98754258.26944  24116794.039                    24116801.762
 119179432.090 7  92867147.198 7  22679089.469                    22679100.930
 127155869.792 6  99082537.44142  24196964.250                    24196979.328
 11  8 16 19  1 30.0000000  0 10G01G26G24G11G28G08G07G19G17G13
 117662234.936 7  91684919.618 7  22390378.063                    22390391.344
 121688613.238 6  94822338.04044  23156573.281                    23156584.141
 116877209.900 7  91073189.32144  22240991.945                    22241003.363
 113290317.879 7  88278201.22745  21558430.992                    21558438.867
 115972089.201 8  90367920.38546  22068763.945                    22068771.773
 106581902.800 8  83050865.14546  20281862.070                    20281870.070
 107284339.983 8  83598221.904 8  20415532.219                    20415540.633
 126839482.754 7  98835991.15244  24136754.227                    24136761.949
 119096670.183 7  92802657.517 7  22663340.133                    22663351.266
 127267126.364 6  99169230.56243  24218135.578                    24218151.246
 11  8 16 19  2  0.0000000  0 10G01G26G24G11G28G08G07G19G17G13
 117625254.871 7  91656104.023 7  22383340.906                    22383353.934
 121639275.351 7  94783892.92744  23147184.039                    23147195.578
 116838173.218 7  91042771.19744  22233563.016                    22233574.813
 113294995.691 8  88281846.26845  21559321.195                    21559329.625
 115947862.043 8  90349042.09546  22064153.500                    22064161.484
 106545792.197 8  83022726.99946  20274990.203                    20274998.691
 107307430.539 8  83616214.511 7  20419926.328                    20419934.301
 126944455.814 7  98917788.27044  24156729.859                    24156737.574
 119014204.565 7  92738398.710 7  22647647.875                    22647658.418
 127378350.241 6  99255898.15543  24239301.125                    24239317.066
 11  8 16 19  2 30.0000000  0 10G01G26G24G11G28G08G07G19G17G13
 117588728.449 7  91627641.907 7  22376390.797                    22376403.355
 121590499.286 7  94745885.60644  23137903.055                    23137913.602
 116799579.016 7  91012697.85745  22226219.195                    22226230.848
 113300251.821 8  88285941.94745  21560321.578                    21560329.270
 115923682.697 8  90330201.06346  22059552.383                    22059560.402
 106510090.686 8  82994907.62946  20268196.883                    20268204.934
 107331000.920 8  83634581.005 7  20424411.375                    20424419.824
 127049508.906 7  98999647.71644  24176720.133                    24176728.867
 118932036.790 7  92674371.968 6  22632011.273                    22632022.227
 127489538.726 6  99342538.17743  24260460.758                    24260476.047
 11  8 16 19  3  0.0000000  0 10G01G26G24G11G28G08G07G19G17G13
 117552657.252 7  91599534.517 7  22369526.227                    22369539.211
 121542286.286 7  94708317.05044  23128728.188                    23128739.383
 116761429.157 7  90982970.75144  22218959.336                    22218970.750
 113306086.161 8  88290488.17945  21561431.680                    21561439.469
 115899550.867 8  90311397.03946  22054960.164                    22054968.469
 106474800.470 8  82967408.74146  20261480.984                    20261489.488
 107355051.259 8  83653321.491 7  20428988.133                    20428996.320
 127154639.524 7  99081567.58544  24196726.563                    24196734.430
 118850167.955 7  92610578.190 6  22616432.422                    22616443.391
 127600689.082 6  99429148.50843  24281611.422                    24281627.848
 11  8 16 19  3 30.0000000  0 10G01G26G24G11G28G08G07G19G17G13
 117517043.856 7  91571783.858 7  22362749.242                    22362762.309
 121494637.957 7  94671188.49444  23119661.484                    23119672.285
 116723726.323 7  90953591.96845  22211785.141                    22211796.145
 113312499.424 7  88295485.53245  21562651.984                    21562660.379
 115875466.323 8  90292629.87246  22050377.023                    22050385.000
 106439924.097 8  82940232.33446  20254844.289                    20254852.520
 107379582.535 8  83672436.739 8  20433656.297                    20433664.887
 127259845.255 7  99163546.01644  24216746.023                    24216754.324
 118768599.940 7  92547018.818 7  22600910.086                    22600921.547
 127711798.510 6  99515726.96143  24302754.781                    24302771.523
 11  8 16 19  4  0.0000000  0 10G01G26G24G11G28G08G07G19G17G13
 117481889.744 7  91544391.068 7  22356059.438                    22356072.047
 121447555.539 7  94634500.90544  23110701.594                    23110712.246
 116686472.450 7  90924563.02145  22204695.930                    22204706.988
 113319491.552 8  88300933.92945  21563982.273                    21563990.855
 115851427.899 8  90273898.63846  22045802.883                    22045810.480
 106405463.241 8  82913379.70646  20248286.273                    20248294.914
 107404594.749 8  83691926.740 8  20438415.984                    20438424.348
 127365123.824 6  99245581.19443  24236779.742                    24236787.590
 118687333.634 7  92483694.528 7  22585446.047                    22585457.309
 127822863.952 6  99602271.12243  24323891.086                    24323906.668
 11  8 16 19  4 30.0000000  0 10G01G26G24G11G28G08G07G19G17G13
 117447197.019 7  91517357.805 7  22349457.555                    22349470.559
 121401040.501 7  94598255.42144  23101850.438                    23101860.176
 116649670.060 7  90895885.87345  22197692.266                    22197703.293
 113327062.774 8  88306833.57645  21565423.250                    21565431.457
 115827435.193 8  90255203.02846  22041236.984                    22041245.000
 106371420.584 8  82886852.95046  20241808.297                    20241817.133
 107430088.255 8  83711791.782 8  20443267.102                    20443275.973
 127470472.734 6  99327671.18343  24256827.844                    24256835.883
 118606370.272 7  92420606.309 7  22570038.305                    22570050.141
 127933882.566 6  99688778.79643  24345017.313                    24345032.836
 11  8 16 19  5  0.0000000  0 10G01G26G24G11G28G08G07G19G17G13
 117412967.910 7  91490685.806 7  22342944.242                    22342956.895
 121355094.459 7  94562453.32344  23093106.813                    23093117.516
 116613321.372 7  90867562.25645  22190775.422                    22190786.383
 113335213.261 7  88313184.60745  21566974.398                    21566982.211
 115803487.797 8  90236542.71546  22036680.172                    22036688.148
 106337798.637 8  82860654.01946  20235410.234                    20235419.090
 107456063.810 8  83732032.443 8  20448210.273                    20448218.648
 127575889.509 6  99409814.04743  24276887.344                    24276895.563
 118525711.392 7  92357755.337 7  22554689.609                    22554701.418
 128044852.140 6  99775248.27843  24366134.828                    24366149.719
 11  8 16 19  5 30.0000000  0 10G01G26G24G11G28G08G07G19G17G13
 117379204.872 7  91464376.987 7  22336519.359                    22336532.344
 121309718.928 7  94527095.77844  23084471.992                    23084483.137
 116577428.653 7  90839593.96044  22183945.172                    22183956.297
 113343943.697 7  88319987.54345  21568635.289                    21568643.512
 115779585.747 8  90217917.74346  22032131.422                    22032139.875
 106304600.186 8  82834785.08746  20229092.813                    20229101.289
 107482522.345 8  83752649.459 8  20453245.281                    20453253.098
 127681372.088 6  99492008.21843  24296960.094                    24296968.609
 118445358.690 7  92295142.936 7  22539398.828                    22539410.641
 128155769.803 7  99861677.28443  24387242.258                    24387256.781
 11  8 16 19  6  0.0000000  0 10G01G26G24G11G28G08G07G19G17G13
 117345909.586 7  91438432.650 7  22330183.406                    22330196.078
 121264914.899 7  94492183.57944  23075945.703                    23075957.027
 116541994.088 7  90811982.64945  22177201.867                    22177213.379
 113353253.871 8  88327242.21245  21570407.563                    21570415.359
 115755727.922 8  90199327.23146  22027591.602                    22027599.574
 106271826.807 8  82809247.37646  20222856.391                    20222864.723
 107509463.627 8  83773642.637 8  20458371.875                    20458380.113
 127786917.862 6  99574251.59243  24317044.883                    24317053.078
 118365312.993 7  92232769.774 7  22524166.820                    22524178.574
 128266632.740 6  99948063.61043  24408338.297                    24408354.152
 11  8 16 19  6 30.0000000  0 10G01G26G24G11G28G08G07G19G17G13
 117313083.773 7  91412854.134 7  22323936.945                    22323949.832
 121220683.834 7  94457717.81044  23067529.367                    23067539.559
 116507019.892 7  90784730.07545  22170546.547                    22170558.031
 113363144.176 8  88334948.93945  21572289.242                    21572297.500
 115731913.807 8  90180770.77646  22023059.938                    22023067.785
 106239480.868 8  82784042.74446  20216701.305                    20216710.043
 107536888.384 8  83795012.554 7  20463590.875                    20463599.195
 127892524.476 6  99656542.38443  24337141.250                    24337149.383
 118285575.661 7  92170636.886 7  22508992.547                    22509004.680
 128377437.994 6 100034405.03342  24429424.539                    24429439.867
 11  8 16 19  7  0.0000000  0 10G01G26G24G11G28G08G07G19G17G13
 117280729.341 7  91387642.931 7  22317780.008                    22317792.914
 121177026.772 7  94423699.31944  23059221.602                    23059231.727
 116472508.048 7  90757837.78045  22163979.414                    22163990.402
 113373614.405 8  88343107.55745  21574281.852                    21574290.328
 115708142.928 8  90162248.01846  22018536.250                    22018544.422
 106207564.618 8  82759172.92646  20210627.555                    20210636.133
 107564796.391 8  83816759.031 8  20468901.305                    20468909.676
 127998189.374 7  99738878.59743  24357248.523                    24357257.191
 118206147.933 7  92108745.255 7  22493878.180                    22493889.691
 128488182.980 6 100120699.46042  24450498.414                    24450514.223
 11  8 16 19  7 30.0000000  0 10G01G26G24G11G28G08G07G19G17G13
 117248848.253 7  91362800.561 7  22311713.359                    22311725.094
 121133945.148 7  94390129.23343  23051023.133                    23051033.824
 116438460.926 7  90731307.59845  22157500.570                    22157511.332
 113384664.834 8  88351718.28745  21576384.563                    21576392.348
 115684414.896 8  90143758.64546  22014020.797                    22014029.082
 106176080.608 8  82734639.92246  20204636.367                    20204645.023
 107593188.458 8  83838882.688 8  20474304.563                    20474312.574
 128103910.439 7  99821258.56444  24377367.281                    24377375.703
 118127030.997 7  92047095.815 7  22478823.148                    22478834.148
 128598865.151 6 100206944.95942  24471560.352                    24471576.754
 11  8 16 19  8  0.0000000  0 10G01G26G24G11G28G08G07G19G17G13
 117217442.653 7  91338328.698 7  22305736.664                    22305748.723
 121091440.089 7  94357008.42043  23042934.750                    23042944.906
 116404880.378 7  90705140.98545  22151110.484                    22151121.902
 113396295.247 8  88360780.92945  21578598.055                    21578605.945
 115660729.325 8  90125302.35146  22009513.984                    22009522.074
 106145030.501 8  82710445.02446  20198728.047                    20198736.457
 107622064.745 8  83861383.670 8  20479799.211                    20479807.301
 128209685.268 7  99903680.41344  24397495.172                    24397504.219
 118048226.095 7  91985689.492 7  22463827.070                    22463837.836
 128709481.503 6 100293139.15042  24492609.828                    24492626.988
 11  8 16 19  8 30.0000000  0 10G01G26G24G11G28G08G07G19G17G13
 117186514.393 7  91314228.783 7  22299851.336                    22299863.805
 121049513.225 7  94324338.16044  23034956.172                    23034967.145
 116371768.791 7  90679339.80045  22144809.430                    22144820.363
 113408506.366 8  88370296.08645  21580921.391                    21580929.719
 115637085.819 8  90106878.84146  22005014.836                    22005022.977
 106114417.313 8  82686590.57946  20192902.156                    20192910.723
 107651425.867 8  83884262.425 8  20485386.766                    20485394.996
 128315511.571 7  99986142.39144  24417633.641                    24417642.027
 117969734.891 7  91924527.628 7  22448890.383                    22448901.770
 128820029.635 6 100379280.20842  24513646.664                    24513663.930
 11  8 16 19  9  0.0000000  0 10G01G26G24G11G28G08G07G19G17G13
 117156065.599 7  91290502.480 7  22294057.125                    22294069.551
 121008165.354 7  94292119.03843  23027088.484                    23027098.984
 116339128.407 7  90653905.77345  22138598.078                    22138609.773
 113421297.780 8  88380263.42145  21583355.578                    21583363.977
 115613483.687 8  90088487.56546  22000523.227                    22000531.613
 106084243.025 8  82663078.13346  20187160.352                    20187169.102
 107681271.782 8  83907518.955 7  20491066.188                    20491074.297
 128421387.105 6 100068642.73544  24437781.102                    24437789.246
 117891558.512 7  91863611.076 7  22434013.492                    22434024.637
 128930506.799 6 100465365.92643  24534670.602                    24534688.090
 11  8 16 19  9 30.0000000  0 10G01G26G24G11G28G08G07G19G17G13
 117126098.257 7  91267151.340 7  22288354.484                    22288366.855
 120967397.789 7  94260352.11143  23019330.156                    23019341.141
 116306961.339 7  90628840.56545  22132476.586                    22132487.855
 113434669.800 8  88390683.16945  21585899.930                    21585908.316
 115589922.585 8  90070128.26346  21996039.820                    21996048.391
 106054509.830 8  82639909.39546  20181502.359                    20181510.789
 107711603.425 8  83931153.948 7  20496837.758                    20496846.125
 128527309.606 6 100151179.66444  24457937.000                    24457946.168
 117813698.151 7  91802940.778 7  22419196.969                    22419208.055
 129040910.260 6 100551394.23743  24555680.633                    24555697.543
 11  8 16 19 10  0.0000000  0 10G01G26G24G11G28G08G07G19G17G13
 117096613.671 7  91244176.365 7  22282743.617                    22282756.313
 120927211.762 7  94229038.30443  23011683.063                    23011693.734
 116275269.477 7  90604145.66044  22126446.047                    22126457.332
 113448622.189 8  88401555.15445  21588555.375                    21588563.664
 115566401.919 8  90051800.47445  21991563.688                    21991571.957
 106025220.031 8  82617086.16246  20175928.516                    20175937.395
 107742420.710 8  83955167.372 7  20502702.117                    20502711.004
 128633276.679 6 100233751.35443  24478102.422                    24478110.445
 117736154.939 7  91742517.588 7  22404441.156                    22404452.191
 129151237.529 6 100637363.13043  24576675.164                    24576692.234
 11  8 16 19 10 30.0000000  0 10G01G26G24G11G28G08G07G19G17G13
 117067613.776 7  91221579.062 7  22277225.297                    22277237.359
 120887608.111 7  94198178.34543  23004146.867                    23004158.055
 116244055.038 7  90579822.76244  22120505.547                    22120517.137
 113463154.545 8  88412879.06645  21591320.875                    21591329.195
 115542921.405 8  90033503.97146  21987096.078                    21987104.168
 105996375.927 8  82594610.22546  20170439.938                    20170448.418
 107773723.330 8  83979559.001 7  20508659.156                    20508667.594
 128739286.082 6 100316356.02743  24498274.844                    24498283.703
 117658929.939 7  91682342.361 7  22389745.844                    22389756.633
 129261485.666 6 100723270.40543  24597655.328                    24597671.863
 11  8 16 19 11  0.0000000  0 10G01G26G24G11G28G08G07G19G17G13
 117039100.096 7  91199360.631 7  22271799.195                    22271811.961
 120848587.905 7  94167772.98643  22996721.648                    22996732.504
 116213319.571 7  90555873.09145  22114656.734                    22114668.375
 113478267.076 8  88424655.06045  21594196.633                    21594205.102
 115519480.505 8  90015238.34345  21982635.203                    21982643.379
 105967979.080 8  82572482.79046  20165036.047                    20165044.566
 107805511.649 8  84004329.068 7  20514708.406                    20514716.301
 128845335.220 6 100398991.66543  24518456.047                    24518464.520
 117582024.145 7  91622415.858 7  22375111.375                    22375121.707
 129371651.939 6 100809113.84943  24618619.508                    24618635.660
 11  8 16 19 11 30.0000000  0 10G01G26G24G11G28G08G07G19G17G13
 117011074.880 7  91177522.840 7  22266466.203                    22266479.012
 120810152.338 7  94137823.18743  22989407.477                    22989418.313
 116183065.530 7  90532298.54645  22108899.781                    22108911.496
 113493959.550 8  88436882.95645  21597182.633                    21597191.125
 115496078.578 8  89997003.06745  21978181.734                    21978189.980
 105940032.100 8  82550705.90846  20159717.891                    20159726.363
 107837786.151 8  84029477.980 7  20520849.906                    20520858.047
 128951422.034 6 100481656.58643  24538642.930                    24538652.340
 117505439.066 7  91562739.256 7  22360537.914                    22360548.574
 129481733.754 6 100894891.47243  24639567.297                    24639584.176
 11  8 16 19 12  0.0000000  0 10G01G26G24G11G28G08G07G19G17G13
 116983539.740 7  91156066.910 7  22261226.625                    22261238.656
 120772302.321 7  94108329.65743  22982204.523                    22982215.367
 116153294.759 7  90509100.57645  22103234.508                    22103245.805
 113510232.078 8  88449562.83445  21600279.461                    21600288.020
 115472715.837 8  89978798.33645  21973735.875                    21973744.234
 105912536.952 8  82529281.10046  20154485.797                    20154494.230
 107870547.063 8  84055005.918 7  20527084.250                    20527092.406
 129057544.209 6 100564349.06843  24558837.516                    24558846.156
 117429175.928 7  91503313.523 7  22346025.078                    22346035.980
 129591728.610 6 100980601.33243  24660498.805                    24660515.809
 11  8 16 19 12 30.0000000  0 10G01G26G24G11G28G08G07G19G17G13
 116956498.332 7  91134995.707 7  22256080.305                    22256092.746
 120735040.731 6  94079294.64943  22975114.438                    22975124.836
 116124010.947 7  90486282.05944  22097662.188                    22097672.863
 113527086.078 8  88462695.81645  21603486.414                    21603495.262
 115449393.107 8  89960624.79345  21969297.930                    21969306.188
 105885498.063 8  82508211.81746  20149340.703                    20149349.512
 107903796.435 8  84080914.459 7  20533411.508                    20533419.621
 129163701.408 6 100647068.93043  24579039.047                    24579047.477
 117353237.403 7  91444140.733 7  22331574.336                    22331585.406
 129701635.388 6 101066242.58143  24681413.727                    24681431.301
 11  8 16 19 13  0.0000000  0  9G01G26G24G11G28G08G07G19G17
 116929950.637 7  91114309.206 7  22251028.578                    22251041.184
 120698367.024 7  94050717.72343  22968135.820                    22968146.012
 116095214.488 7  90463843.29844  22092181.883                    22092192.719
 113544519.746 8  88476280.48545  21606804.273                    21606812.832
 115426108.505 8  89942480.94545  21964866.922                    21964875.207
 105858915.872 8  82487498.40746  20144282.133                    20144290.594
 107937532.328 8  84107202.127 7  20539831.000                    20539839.598
 129269889.536 6 100729812.86643  24599246.133                    24599254.219
 117277623.023 7  91385220.528 7  22317185.297                    22317196.160
 11  8 16 19 13 30.0000000  0  9G01G26G24G11G28G08G07G19G17
 116903897.529 7  91094008.090 7  22246071.258                    22246083.199
 120662281.465 7  94022599.07543  22961269.086                    22961279.617
 116066906.662 7  90441785.28444  22086795.398                    22086806.168
 113562532.075 8  88490316.06045  21610231.883                    21610240.355
 115402860.788 7  89924365.84845  21960443.227                    21960451.387
 105832791.612 8  82467141.83147  20139310.641                    20139319.359
 107971754.300 8  84133868.548 7  20546343.422                    20546351.863
 129376106.209 6 100812579.07543  24619458.148                    24619466.441
 117202333.547 7  91326553.488 7  22302857.883                    22302868.801
 11  8 16 19 14  0.0000000  0  9G01G26G24G11G28G08G07G19G17
 116878341.158 7  91074094.046 7  22241207.984                    22241220.305
 120626785.162 7  93994939.61543  22954513.617                    22954524.820
 116039089.860 7  90420109.88645  22081502.023                    22081512.652
 113581123.284 8  88504802.71245  21613769.703                    21613778.598
 115379650.194 8  89906279.68445  21956026.383                    21956034.141
 105807127.771 8  82447144.02146  20134427.359                    20134435.887
 108006463.050 8  84160914.283 7  20552948.367                    20552956.676
 129482348.945 6 100895365.56543  24639675.914                    24639684.207
 117127370.298 7  91268140.645 7  22288592.930                    22288603.320
 11  8 16 19 14 30.0000000  0  9G01G26G24G11G28G08G07G19G17
 116853283.346 7  91054568.498 7  22236439.484                    22236451.871
 120591879.245 7  93967740.18244  22947871.742                    22947882.445
 116011765.815 7  90398818.43145  22076302.328                    22076313.512
 113600293.252 8  88519740.33945  21617417.750                    21617426.156
 115356475.992 8  89888221.85945  21951616.250                    21951624.570
 105781926.324 8  82427506.52146  20129631.633                    20129640.117
 108041658.706 8  84188339.401 7  20559645.992                    20559654.184
 129588615.738 6 100978170.78843  24659897.195                    24659906.086
 117052734.036 7  91209982.596 6  22274390.055                    22274400.059
 11  8 16 19 15  0.0000000  0  9G01G26G24G11G28G08G07G19G17
 116828725.674 7  91035432.668 7  22231766.664                    22231779.184
 120557564.565 7  93941001.45543  22941342.063                    22941352.500
 115984936.515 7  90377912.50745  22071197.047                    22071208.129
 113620041.561 8  88535128.63745  21621175.375                    21621183.621
 115333338.329 7  89870192.51545  21947213.578                    21947221.586
 105757189.923 8  82408231.39446  20124924.469                    20124932.887
 108077341.194 8  84216143.893 7  20566436.109                    20566444.289
 129694904.613 7 101060993.22144  24680123.969                    24680132.688
 116978426.275 7  91152080.540 6  22260249.344                    22260260.023
 11  8 16 19 15 30.0000000  0  9G01G26G24G11G28G08G07G19G17
 116804669.990 7  91016687.995 7  22227188.555                    22227201.398
 120523841.928 6  93914724.05643  22934924.656                    22934935.535
 115958603.817 7  90357393.54745  22066186.438                    22066196.813
 113640368.021 8  88550967.42745  21625043.734                    21625052.176
 115310236.765 8  89852191.31245  21942817.539                    21942825.613
 105732920.497 8  82389320.14546  20120306.125                    20120314.488
 108113510.727 8  84244327.903 7  20573319.117                    20573327.160
 129801213.323 7 101143831.08844  24700354.164                    24700362.441
 116904448.035 7  91094435.250 6  22246172.227                    22246182.508
 11  8 16 19 16  0.0000000  0  9G01G26G24G11G28G08G07G19G17
 116781117.567 7  90998335.492 7  22222706.195                    22222719.227
 120490712.059 7  93888908.56244  22928619.586                    22928631.246
 115932769.398 7  90337262.86445  22061270.508                    22061281.230
 113661272.045 8  88567256.28845  21629021.523                    21629029.945
 115287170.632 8  89834217.70045  21938427.578                    21938436.188
 105709119.831 8  82370774.16346  20115776.836                    20115785.145
 108150167.014 8  84272891.199 7  20580293.977                    20580302.641
 129907539.446 7 101226682.51844  24720587.227                    24720595.953
 116830800.223 7  91037047.459 7  22232157.391                    22232167.531
 11  8 16 19 16 30.0000000  0  9G01G26G24G11G28G08G07G19G17
 116758069.410 7  90980375.912 7  22218320.688                    22218333.195
 120458175.329 7  93863555.24244  22922428.836                    22922439.570
 115907434.880 7  90317521.71845  22056448.969                    22056460.082
 113682753.030 8  88583994.70945  21633108.742                    21633117.543
 115264139.213 8  89816271.14945  21934045.484                    21934053.766
 105685789.478 8  82352594.64546  20111337.148                    20111345.500
 108187309.565 8  84301833.404 7  20587362.102                    20587370.770
 130013880.599 7 101309545.68044  24740823.492                    24740832.316
 116757483.662 8  90979917.762 7  22218205.641                    22218216.262
 11  8 16 19 17  0.0000000  0  9G01G26G24G11G28G08G07G19G17
 116735527.636 7  90962810.927 7  22214031.188                    22214044.355
 120426232.954 6  93838665.07644  22916350.000                    22916361.188
 115882601.904 7  90298171.37045  22051723.430                    22051734.547
 113704810.917 8  88601182.67045  21637306.602                    21637315.098
 115241142.642 7  89798351.75645  21929668.953                    21929677.109
 105662931.922 8  82334783.55246  20106987.891                    20106995.938
 108224938.972 8  84331154.994 8  20594522.922                    20594531.633
 130120235.123 7 101392419.25344  24761062.563                    24761070.660
 116684499.786 7  90923047.320 7  22204317.141                    22204327.613
 11  8 16 19 17 30.0000000  0  9G01G26G24G11G28G08G07G19G17
 116713494.248 7  90945642.090 7  22209838.523                    22209851.176
 120394886.009 7  93814238.86844  22910385.031                    22910396.598
 115858273.059 7  90279213.87245  22047093.906                    22047104.621
 113727445.729 8  88618820.17845  21641613.820                    21641622.980
 115218180.939 7  89780459.53145  21925299.992                    21925308.090
 105640549.916 8  82317343.00946  20102728.531                    20102737.051
 108263055.573 8  84360856.197 8  20601776.500                    20601785.297
 130226600.972 6 101475301.67944  24781303.234                    24781311.422
 116611849.581 8  90866436.855 7  22190492.141                    22190503.215
 11  8 16 19 18  0.0000000  0  9G01G26G24G11G28G08G07G19G17
 116691970.395 7  90928870.275 7  22205742.063                    22205755.074
 120364135.050 7  93790277.07844  22904533.297                    22904544.711
 115834449.971 7  90260650.45545  22042560.305                    22042571.535
 113750656.723 8  88636906.65245  21646030.273                    21646039.426
 115195253.528 7  89762594.02345  21920936.953                    21920945.039
 105618645.074 8  82300274.28846  20098560.500                    20098569.109
 108301659.143 8  84390936.854 7  20609122.148                    20609131.156
 130332975.686 6 101558190.99043  24801545.055                    24801554.066
 116539534.082 8  90810087.190 7  22176730.898                    22176741.711
 11  8 16 19 18 30.0000000  0  8G01G26G24G11G28G08G07G17
 116670958.146 7  90912497.133 7  22201744.164                    22201756.816
 120333981.145 7  93766780.51144  22898795.516                    22898806.035
 115811134.633 7  90242482.69645  22038123.859                    22038134.656
 113774443.836 8  88655442.05945  21650557.430                    21650565.992
 115172360.530 7  89744755.32345  21916580.547                    21916588.457
 105597219.840 8  82283579.27946  20094483.109                    20094491.957
 108340749.964 8  84421397.189 7  20616561.305                    20616569.809
 116467554.890 8  90753999.599 7  22163033.438                    22163044.336
 11  8 16 19 19  0.0000000  0  8G01G26G24G11G28G08G07G17
 116650459.007 7  90896523.801 7  22197843.438                    22197855.367
 120304424.805 7  93743749.56544  22893171.445                    22893181.715
 115788328.478 7  90224711.69545  22033783.336                    22033794.656
 113798806.340 8  88674425.81445  21655193.266                    21655201.914
 115149501.276 7  89726942.92045  21912230.516                    21912238.387
 105576276.232 8  82267259.57446  20090497.719                    20090506.563
 108380328.072 7  84452237.224 7  20624092.258                    20624101.398
 116395912.628 8  90698174.544 7  22149400.711                    22149411.684
 11  8 16 19 19 30.0000000  0  8G01G26G24G11G28G08G07G17
 116630473.349 7  90880950.589 7  22194039.656                    22194052.180
 120275466.494 7  93721184.62344  22887660.750                    22887671.430
 115766032.924 7  90207338.55845  22029540.992                    22029552.246
 113823743.482 8  88693857.34845  21659938.820                    21659947.477
 115126675.343 7  89709156.48044  21907886.656                    21907894.727
 105555816.101 7  82251316.60746  20086604.242                    20086612.543
 108420392.199 8  84483455.950 7  20631716.680                    20631725.184
 116324608.187 8  90642612.746 7  22135831.836                    22135842.191
 11  8 16 19 20  0.0000000  0  8G01G26G24G11G28G08G07G17
 116611003.338 7  90865779.181 7  22190335.086                    22190347.012
 120247106.544 7  93699085.94344  22882264.063                    22882274.289
 115744249.681 7  90190364.63645  22025395.742                    22025406.852
 113849254.683 8  88713736.19845  21664793.289                    21664801.914
 115103882.397 7  89691395.74544  21903549.352                    21903557.566
 105535841.046 8  82235751.61146  20082803.367                    20082811.848
 108460942.728 8  84515053.711 7  20639433.523                    20639442.035
 116253642.166 8  90587314.646 7  22122327.219                    22122337.301
 11  8 16 19 20 30.0000000  0  8G01G26G24G11G28G08G07G17
 116592050.030 7  90851010.398 7  22186727.352                    22186740.156
 120219345.653 7  93677454.06744  22876981.422                    22876992.047
 115722980.385 7  90173791.20445  22021348.469                    22021358.816
 113875339.547 8  88734062.06945  21669757.133                    21669766.109
 115081122.134 7  89673660.47644  21899218.469                    21899226.563
 105516353.157 7  82220566.24046  20079094.555                    20079103.441
 108501979.668 8  84547030.485 7  20647242.727                    20647250.992
 116183015.661 8  90532281.093 7  22108887.516                    22108897.430
 11  8 16 19 21  0.0000000  0  8G01G26G24G11G28G08G07G17
 116573615.444 7  90836645.813 7  22183219.742                    22183231.965
 120192184.683 7  93656289.64844  22871812.688                    22871823.852
 115702226.890 7  90157619.68945  22017398.984                    22017409.574
 113901997.663 8  88754834.61145  21674829.813                    21674838.961
 115058395.151 8  89655951.15044  21894893.555                    21894901.211
 105497354.818 8  82205762.33946  20075479.352                    20075487.922
 108543503.237 8  84579386.456 7  20655144.344                    20655152.719
 116112730.161 8  90477513.254 7  22095511.891                    22095522.379
 11  8 16 19 21 30.0000000  0  8G01G26G24G11G28G08G07G17
 116555700.556 7  90822686.186 7  22179810.875                    22179823.074
 120165624.193 7  93635593.15444  22866758.125                    22866769.309
 115681990.792 7  90141851.33045  22013548.547                    22013558.918
 113929228.247 7  88776053.24145  21680011.570                    21680020.590
 115035700.759 7  89638267.19944  21890575.055                    21890582.828
 105478847.885 8  82191341.34746  20071957.805                    20071966.828
 108585512.974 8  84612121.251 7  20663138.477                    20663147.215
 116042786.274 7  90423011.606 7  22082202.617                    22082212.781
 11  8 16 19 22  0.0000000  0  8G01G26G24G11G28G08G07G17
 116538306.726 7  90809132.573 7  22176501.047                    22176512.879
 120139664.571 7  93615364.86244  22861818.305                    22861829.375
 115662273.690 7  90126487.38045  22009796.547                    22009807.242
 113957030.574 7  88797717.39045  21685302.000                    21685311.172
 115013038.295 7  89620608.15644  21886262.063                    21886270.496
 105460834.095 8  82177304.62646  20068529.773                    20068538.535
 108628008.470 8  84645234.559 7  20671225.055                    20671233.730
 115973184.637 8  90368776.647 7  22068957.523                    22068967.887
 11  8 16 19 22 30.0000000  0  8G01G26G24G11G28G08G07G17
 116521435.436 7  90795986.134 7  22173290.633                    22173302.547
 120114306.194 7  93595605.07044  22856992.883                    22857003.813
 115643076.852 7  90111528.84645  22006143.484                    22006154.363
 113985404.122 7  88819826.62745  21690701.430                    21690710.363
 114990407.947 7  89602974.12644  21881955.992                    21881963.625
 105443315.430 7  82163653.71846  20065195.758                    20065204.465
 108670989.494 8  84678726.200 7  20679404.141                    20679412.566
 115903926.574 8  90314809.399 7  22055777.867                    22055788.852
 11  8 16 19 23  0.0000000  0  8G01G26G24G11G28G08G07G17
 116505087.514 7  90783247.509 7  22170179.648                    22170191.762
 120089549.436 7  93576314.07744  22852281.938                    22852292.027
 115624401.814 7  90096976.90045  22002589.016                    22002599.566
 114014347.899 8  88842380.20345  21696209.313                    21696218.145
 114967808.694 7  89585364.31144  21877655.102                    21877663.469
 105426293.371 8  82150389.77646  20061956.773                    20061965.809
 108714455.998 8  84712596.148 7  20687675.531                    20687684.246
 115835012.671 7  90261110.321 7  22042664.016                    22042674.957
 11  8 16 19 23 30.0000000  0  8G01G26G24G11G28G08G07G17
 116489264.291 7  90770917.753 7  22167168.422                    22167180.781
 120065394.423 7  93557491.94844  22847685.469                    22847696.063
 115606250.081 7  90082832.73145  21999135.344                    21999146.555
 114043861.157 8  88865377.53845  21701825.570                    21701834.270
 114945240.846 7  89567779.00044  21873360.914                    21873368.969
 105409769.642 8  82137514.14146  20058812.484                    20058821.176
 108758407.301 8  84746843.851 7  20696039.266                    20696047.805
 115766443.709 7  90207680.025 7  22029615.539                    22029626.770
 11  8 16 19 24  0.0000000  0  8G01G26G24G11G28G08G07G17
 116473967.010 7  90758997.804 7  22164257.406                    22164269.688
 120041841.652 7  93539139.12144  22843203.461                    22843214.168
 115588622.797 7  90069097.20345  21995780.938                    21995791.906
 114073943.053 8  88888817.95845  21707549.805                    21707558.660
 114922703.952 7  89550217.77244  21869072.148                    21869080.055
 105393745.806 8  82125028.03146  20055763.305                    20055771.957
 108802842.747 8  84781468.815 7  20704495.180                    20704503.688
 115698220.166 8  90154518.889 7  22016633.188                    22016644.320
 11  8 16 19 24 30.0000000  0  8G01G26G24G11G28G08G07G17
 116459196.603 7  90747488.409 7  22161447.367                    22161459.363
 120018891.305 7  93521255.70344  22838836.102                    22838846.645
 115571521.773 7  90055771.75645  21992526.633                    21992537.570
 114104592.747 8  88912700.82045  21713382.539                    21713391.039
 114900197.337 7  89532680.16444  21864789.086                    21864797.059
 105378223.984 8  82112933.10346  20052809.594                    20052818.387
 108847762.350 8  84816471.070 7  20713042.586                    20713051.738
 115630343.155 8  90101627.764 7  22003716.195                    22003727.035
 11  8 16 19 25  0.0000000  0  8G01G26G24G11G28G08G07G17
 116444954.970 7  90736391.046 7  22158736.922                    22158749.098
 119996544.015 7  93503842.22444  22834583.438                    22834594.340
 115554948.177 7  90042857.29445  21989372.711                    21989383.336
 114135810.212 7  88937026.09645  21719323.320                    21719331.617
 114877721.258 7  89515166.33144  21860511.930                    21860520.398
 105363206.369 8  82101231.05746  20049952.023                    20049961.051
 108893166.061 8  84851850.534 7  20721682.930                    20721691.813
 115562813.619 7  90049007.411 7  21990866.305                    21990876.332
 11  8 16 19 25 30.0000000  0  8G01G26G24G11G28G08G07G17
 116431243.211 7  90725706.569 7  22156127.727                    22156139.773
 119974800.788 7  93486899.42644  22830445.617                    22830456.523
 115538904.262 7  90030355.54445  21986319.898                    21986329.891
 114167594.360 8  88961792.95145  21725371.617                    21725379.906
 114855276.452 7  89497676.86144  21856241.320                    21856249.465
 105348695.497 8  82089923.89146  20047190.438                    20047199.266
 108939054.067 8  84887607.375 7  20730415.297                    20730424.043
 115495632.954 8  89996658.905 7  21978082.250                    21978092.785
 11  8 16 19 26  0.0000000  0  8G01G26G24G11G28G08G07G17
 116418062.403 7  90715435.807 7  22153619.305                    22153631.863
 119953661.411 7  93470427.14544  22826423.109                    22826433.266
 115523391.003 7  90018267.32145  21983367.484                    21983377.906
 114199944.295 8  88987000.66545  21731527.445                    21731535.215
 114832862.117 7  89480211.14344  21851975.766                    21851983.574
 105334692.655 7  82079012.56546  20044526.188                    20044534.746
 108985425.608 8  84923741.002 7  20739239.570                    20739248.473
 115428801.892 8  89944582.823 7  21965364.648                    21965374.750
 11  8 16 19 26 30.0000000  0  8G01G26G24G11G28G08G07G17
 116405414.134 7  90705580.033 7  22151212.031                    22151224.320
 119933126.384 7  93454425.80744  22822515.773                    22822526.211
 115508410.147 7  90006593.94845  21980516.430                    21980527.043
 114232859.034 8  89012648.48445  21737791.094                    21737799.113
 114810478.209 7  89462769.12844  21847716.406                    21847723.887
 105321199.914 8  82068498.73346  20041958.492                    20041967.047
 109032280.443 8  84960251.201 7  20748155.867                    20748164.559
 115362321.169 8  89892779.743 7  21952713.586                    21952723.695
 11  8 16 19 27  0.0000000  0  8G01G26G24G11G28G08G07G17
 116393298.410 7  90696139.214 7  22148906.820                    22148919.418
 119913194.958 7  93438894.80844  22818723.102                    22818733.770
 115493961.978 7  89995335.63745  21977767.344                    21977777.672
 114266337.311 8  89038735.43245  21744161.672                    21744169.594
 114788123.641 7  89445349.99344  21843462.406                    21843470.086
 105308217.603 8  82058382.64146  20039487.984                    20039496.305
 109079617.153 8  84997136.899 7  20757163.453                    20757172.801
 115296190.752 8  89841249.620 7  21940129.180                    21940139.195
 11  8 16 19 27 30.0000000  0  8G01G26G24G11G28G08G07G17
 116381716.664 7  90687114.498 7  22146702.352                    22146715.332
 119893867.641 7  93423834.53644  22815044.547                    22815055.766
 115480048.202 7  89984493.75845  21975119.586                    21975130.418
 114300378.440 8  89065260.96145  21750639.313                    21750647.656
 114765798.486 7  89427953.76244  21839214.078                    21839221.957
 105295747.928 8  82048665.99246  20037114.734                    20037123.785
 109127435.870 8  85034398.198 7  20766263.359                    20766272.027
 115230411.493 8  89789993.136 7  21927611.875                    21927621.965
 11  8 16 19 28  0.0000000  0  8G01G26G24G11G28G08G07G17
 116370670.109 7  90678506.804 7  22144600.594                    22144612.984
 119875145.141 7  93409245.55944  22811482.172                    22811492.594
 115466670.657 7  89974069.70945  21972574.297                    21972584.551
 114334981.847 7  89092224.63945  21757224.094                    21757232.414
 114743503.283 7  89410580.87444  21834971.195                    21834978.945
 105283793.520 8  82039350.85946  20034840.164                    20034849.141
 109175736.669 8  85072035.134 7  20775454.969                    20775463.535
 115164984.747 8  89739011.327 7  21915161.469                    21915171.648
 11  8 16 19 28 30.0000000  0  8G01G26G24G11G28G08G07G17
 116360159.841 7  90670316.998 7  22142600.547                    22142613.164
 119857027.014 7  93395127.50844  22808034.383                    22808045.223
 115453830.022 7  89964064.03045  21970130.555                    21970140.609
 114370146.270 7  89119625.46145  21763915.539                    21763924.277
 114721237.642 7  89393231.03744  21830734.164                    21830742.262
 105272355.369 8  82030437.99946  20032663.781                    20032671.789
 109224518.281 8  85110046.719 7  20784737.406                    20784746.852
 115099910.989 8  89688304.579 7  21902778.586                    21902788.457
 11  8 16 19 29  0.0000000  0  8G01G26G24G11G28G08G07G17
 116350186.732 7  90662545.772 7  22140702.742                    22140715.242
 119839513.440 7  93381480.55444  22804701.703                    22804712.090
 115441527.515 7  89954477.66545  21967789.398                    21967799.840
 114405870.752 7  89147462.69345  21770713.680                    21770721.945
 114699001.138 7  89375903.88344  21826502.945                    21826510.883
 105261435.144 8  82021928.71446  20030585.438                    20030594.133
 109273780.433 8  85148432.760 7  20794111.539                    20794120.703
 115035190.713 8  89637873.262 7  21890462.602                    21890472.578
 11  8 16 19 29 30.0000000  0  8G01G26G24G11G28G08G07G17
 116340751.805 7  90655193.880 7  22138907.219                    22138919.664
 119822604.741 7  93368304.92144  22801483.930                    22801494.777
 115429764.746 7  89945311.90045  21965550.984                    21965561.398
 114442154.381 8  89175735.62845  21777618.406                    21777626.906
 114676793.844 7  89358599.49144  21822277.336                    21822285.129
 105251034.995 8  82013824.68146  20028606.414                    20028615.281
 109323522.710 8  85187192.924 7  20803577.570                    20803586.398
 114970825.020 8  89587718.257 7  21878214.000                    21878224.055
 11  8 16 19 30  0.0000000  0  8G01G26G24G11G28G08G07G17
 116331855.886 7  90648262.022 7  22137214.391                    22137227.367
 119806300.697 7  93355600.44144  22798381.625                    22798392.332
 115418542.469 7  89936567.27445  21963415.531                    21963426.352
 114478995.752 8  89204443.17045  21784629.188                    21784637.566
 114654615.478 7  89341317.64744  21818056.852                    21818064.801
 105241155.948 8  82006126.69546  20026726.516                    20026735.531
 109373744.495 8  85226326.735 7  20813134.508                    20813143.211
 114906814.323 8  89537839.870 7  21866033.258                    21866043.199
 11  8 16 19 30 30.0000000  0  8G01G26G24G11G28G08G07G17
 116323500.455 7  90641751.316 7  22135624.000                    22135636.965
 119790601.534 7  93343367.30244  22795394.391                    22795405.000
 115407862.348 7  89928245.14045  21961383.508                    21961393.859
 114516394.222 8  89233584.81345  21791746.156                    21791754.387
 114632466.381 7  89324058.61544  21813842.016                    21813849.344
 105231800.170 8  81998836.45746  20024946.195                    20024955.188
 109424445.588 8  85265834.029 7  20822781.977                    20822791.406
 114843159.607 8  89488238.863 7  21853920.266                    21853930.418
 11  8 16 19 31  0.0000000  0  8G01G26G24G11G28G08G07G17
 116315685.852 7  90635662.028 7  22134137.055                    22134149.855
 119775507.128 7  93331605.41544  22792521.391                    22792532.996
 115397724.819 7  89920345.78445  21959454.203                    21959464.793
 114554348.339 8  89263159.43445  21798968.445                    21798976.676
 114610345.748 7  89306821.76144  21809632.477                    21809640.590
 105222968.583 8  81991954.67146  20023265.422                    20023274.344
 109475625.036 8  85305714.062 7  20832521.664                    20832530.680
 114779861.027 8  89438915.371 7  21841875.141                    21841884.473
 11  8 16 19 31 30.0000000  0  8G01G26G24G11G28G08G07G17
 116308413.521 7  90629995.289 7  22132752.930                    22132766.070
 119761017.662 7  93320314.89844  22789763.945                    22789775.746
 115388131.556 7  89912870.53645  21957628.289                    21957639.168
 114592857.739 8  89293166.74645  21806296.508                    21806304.859
 114588254.021 7  89289607.43644  21805429.016                    21805436.703
 105214663.683 8  81985483.29246  20021685.367                    20021693.820
 109527282.622 8  85345966.681 7  20842352.219                    20842360.906
 114716919.814 8  89389870.334 7  21829897.289                    21829907.430
 11  8 16 19 32  0.0000000  0  8G01G26G24G11G28G08G07G17
 116301684.228 7  90624751.694 7  22131472.492                    22131485.793
 119747133.097 7  93309495.74144  22787121.656                    22787133.180
 115379083.975 7  89905820.49345  21955906.664                    21955917.063
 114631920.791 8  89323605.48145  21813729.984                    21813737.965
 114566191.488 7  89272415.84244  21801230.141                    21801238.223
 105206886.897 8  81979423.42846  20020205.297                    20020214.215
 109579417.688 8  85386591.359 7  20852272.820                    20852281.781
 114654336.736 8  89341104.367 7  21817987.992                    21817998.148
 11  8 16 19 32 30.0000000  0  8G01G26G24G11G28G08G07G17
 116295498.649 7  90619931.759 7  22130295.875                    22130308.328
 119733853.100 7  93299147.67144  22784594.789                    22784606.414
 115370582.720 7  89899196.15345  21954288.531                    21954299.152
 114671536.236 8  89354474.63845  21821268.906                    21821276.414
 114544157.290 7  89255246.33344  21797037.602                    21797045.301
 105199639.375 8  81973775.98446  20018826.391                    20018835.168
 109632029.253 8  85427587.321 7  20862284.500                    20862293.113
 114592111.825 7  89292617.498 7  21806146.984                    21806157.207
 11  8 16 19 33  0.0000000  0  8G01G26G24G11G28G08G07G17
 116289857.353 7  90615535.951 7  22129222.242                    22129234.820
 119721177.521 7  93289270.58744  22782183.305                    22782194.195
 115362628.701 7  89892998.24745  21952774.898                    21952785.648
 114711702.979 8  89385773.37745  21828912.016                    21828920.406
 114522151.411 7  89238098.90644  21792849.414                    21792857.613
 105192922.653 8  81968542.14146  20017548.148                    20017556.977
 109685116.810 8  85468954.185 7  20872386.766                    20872395.695
 114530245.833 8  89244410.294 7  21794374.242                    21794384.004
 11  8 16 19 33 30.0000000  0  8G01G26G24G11G28G08G07G17
 116284761.362 7  90611565.057 7  22128252.469                    22128264.914
 119709106.094 7  93279864.26744  22779886.070                    22779896.695
 115355222.957 7  89887227.54345  21951365.813                    21951376.141
 114752419.672 8  89417500.66445  21836660.094                    21836668.730
 114500173.905 7  89220973.56844  21788667.594                    21788675.531
 105186737.967 8  81963722.87946  20016371.359                    20016380.203
 109738679.630 8  85510691.402 7  20882579.867                    20882588.352
 114468739.362 8  89196483.232 7  21782670.117                    21782679.793
 11  8 16 19 34  0.0000000  0  8G01G26G24G11G28G08G07G17
 116280211.410 7  90608019.645 7  22127386.688                    22127399.191
 119697638.745 7  93270928.62944  22777703.570                    22777714.723
 115348366.763 8  89881885.05945  21950061.453                    21950072.195
 114793685.258 8  89449655.64745  21844512.945                    21844521.289
 114478225.040 7  89203870.55444  21784490.906                    21784498.816
 105181087.020 8  81959319.51646  20015295.969                    20015304.965
 109792717.062 8  85552798.425 7  20892862.977                    20892871.750
 114407592.997 8  89148836.781 7  21771034.141                    21771044.004
 11  8 16 19 34 30.0000000  0  8G01G26G24G11G28G08G07G17
 116276208.064 7  90604900.168 7  22126625.148                    22126637.406
 119686775.336 7  93262463.60544  22775636.781                    22775647.465
 115342060.843 7  89876971.36145  21948861.406                    21948871.973
 114835498.608 8  89482237.46145  21852469.883                    21852478.309
 114456304.480 7  89186789.60045  21780319.547                    21780327.418
 105175971.488 8  81955333.36446  20014322.422                    20014331.109
 109847228.251 8  85595274.596 7  20903235.703                    20903244.918
 114346807.426 7  89101471.459 7  21759467.039                    21759476.680
 11  8 16 19 35  0.0000000  0  8G01G26G24G11G28G08G07G17
 116272752.221 7  90602207.302 7  22125967.000                    22125979.383
 119676515.446 7  93254468.85444  22773684.539                    22773694.965
 115336305.984 7  89872487.06845  21947765.883                    21947776.715
 114877858.070 8  89515244.82045  21860530.477                    21860539.031
 114434412.093 7  89169730.60545  21776153.586                    21776161.504
 105171392.561 8  81951765.35146  20013450.977                    20013460.227
 109902212.540 8  85638119.437 7  20913699.125                    20913707.945
 114286382.837 7  89054387.416 7  21747968.664                    21747978.816
 11  8 16 19 35 30.0000000  0  8G01G26G24G11G28G08G07G17
 116269844.922 7  90599941.881 7  22125413.734                    22125426.805
 119666859.406 7  93246944.64444  22771847.266                    22771857.813
 115331103.500 7  89868433.19645  21946776.258                    21946786.852
 114920763.239 8  89548677.40045  21868694.680                    21868703.129
 114412548.238 8  89152693.84145  21771992.891                    21772000.828
 105167352.516 8  81948617.24246  20012682.711                    20012691.164
 109957669.362 8  85681332.483 7  20924252.445                    20924261.477
 114226320.383 7  89007585.562 7  21736539.109                    21736548.973
 11  8 16 19 36  0.0000000  0  8G01G26G24G11G28G08G07G17
 116267486.671 7  90598104.306 7  22124964.758                    22124977.773
 119657806.550 7  93239890.43744  22770124.609                    22770135.363
 115326454.283 7  89864810.43045  21945891.586                    21945902.469
 114964212.322 8  89582533.80445  21876963.203                    21876971.094
 114390712.945 7  89135679.32645  21767837.805                    21767845.563
 105163852.226 8  81945889.72946  20012016.273                    20012025.055
 110013598.086 8  85724913.239 7  20934895.305                    20934903.852
 114166620.365 7  88961066.120 7  21725178.391                    21725188.402
 11  8 16 19 36 30.0000000  0  8G01G26G24G11G28G08G07G17
 116265677.621 7  90596694.665 7  22124620.930                    22124633.879
 119649356.306 7  93233305.80644  22768516.219                    22768526.770
 115322358.744 7  89861619.11145  21945112.453                    21945123.125
 115008203.607 8  89616812.71545  21885334.695                    21885342.664
 114368905.673 8  89118686.66245  21763688.031                    21763696.090
 105160892.593 8  81943583.51046  20011453.305                    20011462.148
 110069997.558 8  85768860.812 7  20945627.602                    20945636.730
 114107283.056 7  88914829.316 7  21713886.742                    21713896.840
 11  8 16 19 37  0.0000000  0  8G01G26G24G11G28G08G07G17
 116264418.643 7  90595713.659 7  22124381.281                    22124394.055
 119641508.329 7  93227190.48544  22767022.570                    22767033.270
 115318818.060 7  89858860.14445  21944438.398                    21944449.039
 115052736.005 8  89651513.27645  21893808.375                    21893816.531
 114347126.495 8  89101715.87044  21759543.797                    21759551.383
 105158475.299 8  81941699.88846  20010993.125                    20011002.086
 110126867.075 8  85813174.667 7  20956449.484                    20956458.719
 114048309.263 7  88868875.774 7  21702664.172                    21702674.406
 11  8 16 19 37 30.0000000  0  8G01G26G24G11G28G08G07G17
 116263710.497 7  90595161.875 7  22124246.867                    22124259.609
 119634262.313 7  93221544.21444  22765643.969                    22765654.320
 115315832.828 7  89856534.02245  21943870.195                    21943881.172
 115097808.310 8  89686634.52845  21902385.164                    21902393.438
 114325375.819 8  89084767.29045  21755404.500                    21755412.418
 105156601.575 7  81940239.82646  20010636.766                    20010645.547
 110184205.968 8  85857854.267 7  20967360.875                    20967370.359
 113989699.176 7  88823205.632 7  21691511.398                    21691521.258
 11  8 16 19 38  0.0000000  0  8G01G26G24G11G28G08G07G17
 116263553.617 7  90595039.648 7  22124216.797                    22124229.504
 119627618.273 7  93216367.01044  22764379.492                    22764390.488
 115313404.190 7  89854641.60145  21943408.594                    21943418.879
 115143419.176 8  89722175.44745  21911064.984                    21911073.234
 114303653.780 7  89067841.03245  21751270.688                    21751279.059
 105155273.299 8  81939204.79846  20010383.891                    20010392.984
 110242013.574 8  85902899.100 7  20978360.992                    20978370.582
 113931453.709 7  88777819.617 7  21680427.352                    21680437.285
 11  8 16 19 38 30.0000000  0  8G01G26G24G11G28G08G07G17
 116263949.106 7  90595347.845 7  22124292.609                    22124304.691
 119621575.591 7  93211658.40544  22763229.195                    22763240.148
 115311532.940 7  89853183.50045  21943051.930                    21943062.824
 115189567.135 7  89758134.87445  21919846.484                    21919855.379
 114281960.234 7  89050936.97145  21747142.938                    21747150.934
 105154491.670 7  81938595.72746  20010235.195                    20010244.172
 110300288.941 8  85948308.416 7  20989450.859                    20989459.930
 113873573.121 7  88732717.926 7  21669412.695                    21669423.051
 11  8 16 19 39  0.0000000  0  8G01G26G24G11G28G08G07G17
 116264897.511 7  90596086.879 7  22124472.578                    22124484.781
 119616134.129 7  93207418.27144  22762194.391                    22762205.391
 115310220.260 7  89852160.67245  21942802.234                    21942813.105
 115236251.207 7  89794512.05944  21928730.203                    21928738.633
 114260295.884 7  89034055.65045  21743020.203                    21743028.262
 105154258.606 7  81938414.11246  20010190.859                    20010199.313
 110359031.406 7  85994081.716 7  21000629.242                    21000638.402
 113816058.453 7  88687901.350 7  21658468.477                    21658478.332
 11  8 16 19 39 30.0000000  0  8G01G26G24G11G28G08G07G17
 116266398.277 7  90597256.334 7  22124757.930                    22124770.305
 119611292.464 7  93203645.51744  22761273.094                    22761283.867
 115309465.776 7  89851572.77845  21942659.117                    21942669.066
 115283469.059 7  89831305.17645  21937715.547                    21937723.555
 114238659.376 7  89017196.04445  21738902.992                    21738911.117
 105154573.746 7  81938659.66746  20010250.773                    20010259.969
 110418239.091 7  86040217.520 7  21011895.906                    21011905.289
 113758908.855 7  88643369.252 7  21647592.703                    21647602.938
 11  8 16 19 40  0.0000000  0  8G01G26G24G11G28G08G07G17
 116268452.092 7  90598856.730 7  22125149.172                    22125161.176
 119607050.257 7  93200339.88644  22760465.484                    22760476.598
 115309270.550 7  89851420.69345  21942621.586                    21942631.754
 115331219.278 7  89868513.10444  21946802.438                    21946810.363
 114217051.261 7  89000358.54845  21734791.219                    21734799.387
 105155438.720 8  81939333.66846  20010415.508                    20010424.625
 110477911.448 8  86086715.396 7  21023251.398                    21023260.539
 113702125.040 7  88599122.191 7  21636787.039                    21636797.289
 11  8 16 19 40 30.0000000  0  8G01G26G24G11G28G08G07G17
 116271059.845 7  90600888.755 7  22125645.609                    22125657.527
 119603407.000 7  93197500.94944  22759772.781                    22759783.379
 115309635.211 7  89851704.86945  21942690.703                    21942701.125
 115379500.624 7  89906134.92545  21955989.609                    21955997.922
 114195471.910 7  88983543.47045  21730684.961                    21730692.816
 105156854.894 7  81940437.17346  20010684.797                    20010694.301
 110538047.871 7  86133574.892 7  21034695.242                    21034704.398
 113645707.620 7  88555160.617 7  21626051.438                    21626061.363
 11  8 16 19 41  0.0000000  0  8G01G26G24G11G28G08G07G17
 116274221.991 7  90603352.769 7  22126247.063                    22126258.961
 119600362.475 7  93195128.57044  22759193.164                    22759204.305
 115310560.501 7  89852425.90945  21942866.641                    21942877.473
 115428311.671 7  89944169.48844  21965277.852                    21965286.844
 114173921.041 7  88966750.59945  21726583.352                    21726591.328
 105158823.834 7  81941971.39846  20011059.961                    20011068.609
 110598647.140 7  86180795.042 7  21046226.492                    21046235.676
 113589657.124 7  88511484.958 7  21615385.508                    21615395.316
 11  8 16 19 41 30.0000000  0  8G01G26G24G11G28G08G07G17
 116277938.915 7  90606249.077 7  22126953.961                    22126966.504
 119597916.242 6  93193222.41444  22758727.672                    22758738.281
 115312047.280 7  89853584.45245  21943149.672                    21943160.641
 115477651.092 8  89982615.77645  21974667.578                    21974675.645
 114152399.296 7  88949980.40745  21722488.125                    21722496.316
 105161347.051 7  81943937.52746  20011539.570                    20011548.605
 110659708.816 8  86228375.494 7  21057846.305                    21057855.699
 113533974.209 7  88468095.735 7  21604789.445                    21604798.965
 11  8 16 19 42  0.0000000  0  8G01G26G24G11G28G08G07G17
 116282210.792 7  90609577.805 7  22127767.359                    22127779.344
 119596067.441 7  93191781.75944  22758375.930                    22758386.805
 115314095.838 7  89855180.74545  21943539.445                    21943550.008
 115527517.012 8  90021472.31145  21984156.383                    21984165.125
 114130906.866 7  88933233.06145  21718398.336                    21718406.516
 105164425.254 7  81946336.11646  20012125.344                    20012134.148
 110721231.702 7  86276315.341 7  21069553.594                    21069563.203
 113478659.047 7  88424993.064 7  21594263.375                    21594272.664
 11  8 16 19 42 30.0000000  0  8G01G26G24G11G28G08G07G17
 116287037.750 7  90613339.067 7  22128685.570                    22128697.641
 119594814.939 7  93190805.75844  22758137.203                    22758148.578
 115316706.703 7  89857215.19845  21944036.531                    21944047.238
 115577907.711 8  90060737.75845  21993745.406                    21993754.066
 114109443.044 7  88916508.01145  21714314.141                    21714322.176
 105168059.182 8  81949167.72746  20012817.039                    20012825.906
 110783214.290 7  86324613.413 7  21081348.781                    21081358.000
 113423711.574 7  88382176.915 7  21583806.984                    21583816.629
 11  8 16 19 43  0.0000000  0  8G01G26G24G11G28G08G07G17
 116292420.688 7  90617533.566 7  22129710.172                    22129722.004
 119594158.512 7  93190294.22844  22758012.430                    22758023.484
 115319880.499 7  89859688.29845  21944640.328                    21944651.234
 115628821.883 8  90100411.11545  22003434.438                    22003442.996
 114088008.397 7  88899805.69045  21710234.719                    21710243.215
 105172250.447 7  81952433.62946  20013614.734                    20013623.309
 110845655.851 7  86373269.101 7  21093231.328                    21093240.266
 113369132.453 7  88339647.776 7  21573421.086                    21573430.633
 11  8 16 19 43 30.0000000  0  8G01G26G24G11G28G08G07G17
 116298359.393 7  90622161.120 7  22130840.547                    22130852.645
 119594097.523 7  93190246.67644  22758001.141                    22758011.594
 115323617.792 7  89862600.47945  21945351.297                    21945361.750
 115680257.830 8  90140491.05645  22013222.281                    22013230.863
 114066603.068 7  88883126.22145  21706161.406                    21706170.066
 105177000.119 7  81956134.66046  20014518.359                    20014527.406
 110908555.163 7  86422281.481 7  21105200.297                    21105209.422
 113314921.975 7  88297405.908 7  21563105.047                    21563114.375
 11  8 16 19 44  0.0000000  0  8G01G26G24G11G28G08G07G17
 116304854.611 7  90627222.330 7  22132076.195                    22132088.520
 119594630.862 7  93190662.22144  22758102.672                    22758113.406
 115327919.002 7  89865952.06945  21946170.188                    21946180.086
 115732213.900 7  90180976.28245  22023108.836                    22023117.801
 114045227.043 7  88866469.57145  21702094.016                    21702102.305
 105182309.157 8  81960271.55046  20015528.656                    20015537.785
 110971911.529 7  86471650.003 7  21117257.039                    21117266.086
 113261080.572 7  88255451.628 7  21552858.930                    21552868.969
 11  8 16 19 44 30.0000000  0  8G01G26G24G11G28G08G07G17
 116311906.380 7  90632717.204 7  22133418.188                    22133430.664
 119595758.015 7  93191540.48544  22758317.273                    22758327.977
 115332784.848 7  89869743.63445  21947096.109                    21947106.332
 115784688.692 7  90221865.69845  22033094.688                    22033103.867
 114023880.762 7  88849836.10645  21698032.078                    21698039.852
 105188178.760 8  81964845.23746  20016645.758                    20016654.891
 111035723.690 7  86521373.688 7  21129400.203                    21129409.305
 113207608.318 7  88213784.984 7  21542683.664                    21542693.711
 11  8 16 19 45  0.0000000  0  8G01G26G24G11G28G08G07G17
 116319514.673 7  90638645.745 7  22134865.820                    22134878.211
 119597477.988 7  93192880.69444  22758644.445                    22758655.488
 115338215.333 7  89873975.18245  21948129.586                    21948139.906
 115837680.087 7  90263157.66545  22043178.602                    22043187.535
 114002564.067 7  88833225.69045  21693975.359                    21693983.422
 105194609.539 8  81969856.20446  20017869.609                    20017877.965
 111099990.418 7  86571451.580 7  21141629.555                    21141638.422
 113154505.335 7  88172406.089 7  21532578.523                    21532588.559
 11  8 16 19 45 30.0000000  0  8G01G26G24G11G28G08G07G17
 116327680.288 7  90645008.566 7  22136419.867                    22136432.570
 119599790.316 7  93194682.46844  22759084.547                    22759095.078
 115344211.378 7  89878647.41545  21949270.430                    21949281.266
 115891186.760 7  90304851.16045  22053360.531                    22053369.250
 113981277.685 7  88816638.90245  21689924.672                    21689933.039
 105201603.126 8  81975305.72246  20019200.422                    20019208.949
 111164711.023 7  86621883.136 7  21153945.922                    21153954.813
 113101772.484 7  88131315.602 7  21522543.523                    21522553.734
 11  8 16 19 46  0.0000000  0  8G01G26G24G11G28G08G07G17
 116336403.011 7  90651805.488 7  22138079.406                    22138091.961
 119602693.825 7  93196944.91444  22759637.656                    22759648.070
 115350772.899 7  89883760.27645  21950518.813                    21950529.547
 115945206.904 7  90346944.75645  22063640.125                    22063648.578
 113960021.095 7  88800075.31945  21685879.883                    21685887.773
 105209160.001 8  81981194.15746  20020638.516                    20020647.133
 111229883.948 7  86672667.152 7  21166347.766                    21166357.047
 113049409.497 7  88090513.313 7  21512579.430                    21512589.457
 11  8 16 19 46 30.0000000  0  8G01G26G24G11G28G08G07G17
 116345683.394 7  90659036.975 7  22139845.531                    22139858.273
 119606188.001 7  93199667.60744  22760302.242                    22760312.746
 115357900.610 7  89889314.33845  21951875.445                    21951885.840
 115999739.059 8  90389437.32045  22074018.188                    22074026.605
 113938794.961 7  88783535.47745  21681840.125                    21681848.605
 105217281.742 8  81987522.75446  20022183.875                    20022192.766
 111295508.237 7  86723802.886 7  21178835.719                    21178844.762
 112997417.028 7  88049999.745 7  21502685.289                    21502695.723
 11  8 16 19 47  0.0000000  0  8G01G26G24G11G28G08G07G17
 116355521.090 7  90666702.699 7  22141717.742                    22141729.828
 119610271.621 7  93202849.63344  22761078.641                    22761090.398
 115365594.485 7  89895309.56145  21953339.203                    21953350.176
 116054781.282 7  90432327.33045  22084491.406                    22084500.605
 113917599.411 7  88767019.45145  21677806.555                    21677815.320
 105225968.769 8  81994291.82346  20023837.141                    20023845.520
 111361582.901 7  86775289.565 7  21191408.797                    21191418.578
 112945795.060 7  88009774.871 7  21492861.625                    21492871.824
 11  8 16 19 47 30.0000000  0  8G01G26G24G11G28G08G07G17
 116365916.209 7  90674802.796 7  22143695.328                    22143708.387
 119614943.688 6  93206490.18344  22761968.336                    22761978.664
 115373854.813 7  89901746.19045  21954911.180                    21954922.039
 116110331.552 7  90475613.23645  22095062.156                    22095071.457
 113896434.411 7  88750527.23745  21673779.633                    21673787.652
 105235221.754 8  82001501.90946  20025597.602                    20025606.566
 111428106.361 7  86827125.946 7  21204068.047                    21204077.934
 112894543.605 7  87969838.705 7  21483108.938                    21483119.566
 11  8 16 19 48  0.0000000  0  8G01G26G24G11G28G08G07G17
 116376869.112 7  90683337.536 7  22145780.102                    22145792.668
 119620203.311 7  93210588.55044  22762968.852                    22762979.621
 115382682.246 7  89908624.70745  21956591.086                    21956602.105
 116166388.434 7  90519293.89445  22105729.547                    22105738.930
 113875300.588 7  88734059.30945  21669757.742                    21669766.309
 105245041.871 8  82009153.90646  20027466.734                    20027475.238
 111495077.483 7  86879311.156 7  21216812.680                    21216822.301
 112843663.115 7  87930191.594 7  21473426.984                    21473436.949
 11  8 16 19 48 30.0000000  0  8G01G26G24G11G28G08G07G17
 116388379.241 7  90692306.472 7  22147970.508                    22147982.859
 119626049.155 7  93215143.73044  22764081.555                    22764092.414
 115392076.524 7  89915944.93045  21958378.938                    21958389.543
 116222949.641 7  90563367.55145  22116493.063                    22116501.980
 113854197.322 7  88717615.19445  21665742.109                    21665750.223
 105255429.437 8  82017248.07446  20029443.211                    20029451.883
 111562494.700 7  86931843.984 7  21229641.516                    21229651.164
 112793153.302 7  87890833.325 7  21463815.102                    21463824.715
 11  8 16 19 49  0.0000000  0  8G01G26G24G11G28G08G07G17
 116400447.123 7  90701710.020 7  22150266.367                    22150279.328
 119632480.843 7  93220155.40944  22765305.367                    22765316.746
 115402038.668 7  89923707.65245  21960274.336                    21960284.590
 116280013.948 7  90607833.20545  22127352.344                    22127361.242
 113833125.644 7  88701195.68845  21661732.492                    21661740.508
 105266386.494 8  82025786.01146  20031528.188                    20031537.398
 111630357.637 7  86984724.123 7  21242555.781                    21242565.363
 112743015.312 7  87851764.789 7  21454273.758                    21454284.039
 11  8 16 19 49 30.0000000  0  8G01G26G24G11G28G08G07G17
 116413072.957 7  90711548.332 7  22152669.063                    22152681.691
 119639497.177 7  93225622.65244  22766640.727                    22766651.723
 115412568.406 7  89931912.64345  21962278.344                    21962288.523
 116337579.317 7  90652689.30445  22138305.984                    22138315.805
 113812085.664 7  88684800.88445  21657728.945                    21657736.707
 105277913.304 8  82034767.91346  20033721.547                    20033730.723
 111698664.732 8  87037950.355 7  21255554.070                    21255564.004
 112693248.719 7  87812985.650 7  21444803.930                    21444813.703
 11  8 16 19 50  0.0000000  0  8G01G26G24G11G28G08G07G17
 116426256.723 7  90721821.402 7  22155177.891                    22155190.801
 119647096.939 7  93231544.50644  22768086.570                    22768097.613
 115423665.903 7  89940560.05945  21964390.016                    21964400.043
 116395644.076 7  90697934.54645  22149356.281                    22149365.016
 113791077.757 7  88668431.07045  21653730.461                    21653738.949
 105290010.522 8  82044194.28546  20036023.906                    20036032.938
 111767414.544 8  87091521.562 7  21268637.164                    21268646.434
 112643853.566 7  87774495.962 7  21435404.344                    21435413.879
 11  8 16 19 50 30.0000000  0  8G01G26G24G11G28G08G07G17
 116439997.901 7  90732528.806 7  22157792.688                    22157805.766
 119655278.899 7  93237920.02344  22769643.727                    22769654.906
 115435331.213 7  89949649.93045  21966609.617                    21966620.137
 116454205.905 7  90743567.12045  22160499.609                    22160508.758
 113770101.837 7  88652086.18945  21649739.375                    21649747.434
 105302678.547 7  82054065.45246  20038434.438                    20038443.492
 111836605.412 8  87145436.445 7  21281803.617                    21281813.129
 112594829.970 7  87736295.794 7  21426075.414                    21426085.020
 11  8 16 19 51  0.0000000  0  8G01G26G24G11G28G08G07G17
 116454296.150 7  90743670.313 7  22160513.695                    22160526.043
 119664041.602 7  93244748.05844  22771311.609                    22771322.473
 115447564.023 7  89959181.99345  21968937.594                    21968948.074
 116513262.932 7  90789585.56345  22171738.023                    22171747.250
 113749157.842 7  88635766.18245  21645754.094                    21645761.738
 105315917.883 7  82064381.79446  20040953.766                    20040962.742
 111906236.050 7  87199694.011 7  21295054.273                    21295063.539
 112546177.696 7  87698384.986 7  21416816.813                    21416826.828
 11  8 16 19 51 30.0000000  0  8G01G26G24G11G28G08G07G17
 116469152.000 7  90755246.283 7  22163340.719                    22163353.484
 119673384.331 6  93252028.06344  22773089.133                    22773100.148
 115460365.081 7  89969156.85045  21971373.398                    21971383.777
 116572813.481 7  90835988.55645  22183070.156                    22183079.246
 113728246.749 7  88619471.81944  21641774.883                    21641782.949
 105329729.802 8  82075144.29646  20043582.273                    20043591.227
 111976305.561 7  87254293.531 7  21308387.258                    21308397.203
 112497897.436 7  87660764.046 7  21407630.102                    21407639.426
 11  8 16 19 52  0.0000000  0  8G01G26G24G11G28G08G07G17
 116484564.528 7  90767256.036 7  22166273.305                    22166286.281
 119683305.442 7  93259758.76244  22774976.586                    22774987.902
 115473733.768 7  89979574.00745  21973917.422                    21973927.469
 116632855.371 7  90882774.41844  22194495.750                    22194504.449
 113707368.143 7  88603202.76645  21637801.430                    21637809.445
 105344114.366 8  82086353.02346  20046319.672                    20046328.742
 112046812.080 8  87309233.594 7  21321804.523                    21321814.328
 112449989.058 7  87623432.895 7  21398512.828                    21398522.645
 11  8 16 19 52 30.0000000  0  8G01G26G24G11G28G08G07G17
 116500534.430 7  90779700.108 7  22169312.750                    22169325.055
 119693804.324 7  93267939.69044  22776975.266                    22776985.953
 115487670.697 7  89990433.95545  21976569.258                    21976579.930
 116693387.086 7  90929941.96244  22206014.938                    22206022.941
 113686522.897 7  88586959.72545  21633834.836                    21633843.172
 105359073.153 8  82098009.19946  20049166.023                    20049175.328
 112117754.861 7  87364513.599 7  21335304.211                    21335314.266
 112402452.623 7  87586391.566 7  21389467.211                    21389476.684
 11  8 16 19 53  0.0000000  0  8G01G26G24G11G28G08G07G17
 116517061.697 7  90792578.502 7  22172457.523                    22172470.133
 119704879.835 6  93276569.91744  22779082.016                    22779093.309
 115502176.003 7  90001736.80145  21979330.086                    21979340.578
 116754406.787 7  90977489.76245  22217626.578                    22217634.527
 113665711.609 7  88570743.14244  21629874.742                    21629883.242
 105374606.767 8  82110113.27846  20052121.930                    20052131.367
 112189132.528 8  87420132.474 7  21348887.492                    21348896.988
 112355288.214 7  87549640.129 7  21380491.953                    21380501.641
 11  8 16 19 53 30.0000000  0  8G01G26G24G11G28G08G07G17
 116534145.421 7  90805890.492 7  22175708.438                    22175721.152
 119716530.177 7  93285648.05644  22781299.008                    22781310.746
 115517249.006 7  90013482.00545  21982198.391                    21982208.555
 116815911.713 7  91025415.66444  22229330.453                    22229339.402
 113644933.696 7  88554552.55644  21625920.297                    21625929.145
 105390714.944 8  82122665.07346  20055187.578                    20055196.676
 112260943.110 8  87476088.685 7  21362552.609                    21362561.898
 112308495.551 7  87513178.383 7  21371587.453                    21371597.410
 11  8 16 19 54  0.0000000  0  8G01G26G24G11G28G08G07G17
 116551785.655 7  90819636.135 7  22179065.883                    22179078.188
 119728754.638 7  93295173.57844  22783625.742                    22783636.895
 115532890.483 7  90025670.15645  21985175.383                    21985185.059
 116877900.806 7  91073718.82844  22241125.984                    22241135.332
 113624190.387 7  88538388.93844  21621973.094                    21621981.879
 105407399.374 8  82135665.89846  20058362.289                    20058371.449
 112333185.777 8  87532381.573 7  21376299.727                    21376309.129
 112262075.369 7  87477006.873 7  21362754.094                    21362763.797
 11  8 16 19 54 30.0000000  0  8G01G26G24G11G28G08G07G17
 116569982.439 7  90833815.436 7  22182527.844                    22182540.773
 119741551.753 7  93305145.30944  22786061.203                    22786072.691
 115549100.185 8  90038301.10045  21988259.484                    21988269.594
 116940372.022 7  91122397.65744  22253014.086                    22253022.785
 113603481.741 7  88522252.35144  21618032.070                    21618040.910
 105424660.490 8  82149116.07846  20061647.031                    20061656.098
 112405858.867 8  87589009.864 7  21390129.750                    21390138.430
 112216027.387 8  87441125.383 7  21353991.367                    21354001.348
 11  8 16 19 55  0.0000000  0  8G01G26G24G11G28G08G07G17
 116588735.031 7  90848427.838 7  22186096.867                    22186109.734
 119754919.587 7  93315561.75845  22788604.633                    22788616.301
 115565877.509 7  90051374.33645  21991452.344                    21991462.234
 117003322.519 7  91171449.96644  22264993.102                    22265002.137
 113582807.440 7  88506142.50944  21614098.695                    21614106.348
 105442497.820 8  82163015.26446  20065041.336                    20065050.555
 112478960.613 8  87645972.171 7  21404040.266                    21404049.578
 112170351.203 8  87405533.589 7  21345299.109                    21345309.180
 11  8 16 19 55 30.0000000  0  8G01G26G24G11G28G08G07G17
 116608043.163 7  90863473.130 7  22189770.766                    22189783.598
 119768857.171 7  93326422.15344  22791257.516                    22791268.512
 115583222.708 7  90064890.07945  21994752.813                    21994763.086
 117066750.616 7  91220874.43144  22277063.258                    22277071.992
 113562168.516 7  88490060.23344  21610170.539                    21610178.984
 105460912.401 8  82177364.26146  20068545.680                    20068554.715
 112552489.869 7  87703267.605 7  21418032.313                    21418041.992
 112125047.006 8  87370231.667 7  21336678.313                    21336687.914
 11  8 16 19 56  0.0000000  0  8G01G26G24G11G28G08G07G17
 116627906.814 7  90878951.297 7  22193550.852                    22193563.582
 119783363.358 7  93337725.62544  22794017.563                    22794028.848
 115601135.738 7  90078848.28745  21998161.000                    21998171.859
 117130654.532 7  91270669.66744  22289223.953                    22289232.531
 113541565.290 7  88474005.78244  21606250.156                    21606258.336
 105479905.003 8  82192163.65646  20072159.664                    20072168.930
 112626445.027 8  87760894.907 7  21432105.297                    21432115.512
 112080114.938 8  87335219.711 7  21328128.141                    21328137.547
 11  8 16 19 56 30.0000000  0  8G01G26G24G11G28G08G07G17
 116648325.328 7  90894861.810 7  22197436.242                    22197449.086
 119798436.311 7  93349470.73344  22796885.789                    22796897.324
 115619616.104 7  90093248.56045  22001677.859                    22001688.262
 117195031.985 7  91320833.89745  22301474.516                    22301482.953
 113520997.957 7  88457979.30344  21602336.070                    21602344.430
 105499475.645 8  82207413.47246  20075884.063                    20075892.992
 112700824.623 7  87818852.958 7  21446259.469                    21446269.516
 112035555.133 8  87300497.832 7  21319648.484                    21319658.250
 11  8 16 19 57  0.0000000  0  8G01G26G24G11G28G08G07G17
 116669298.539 7  90911204.567 7  22201427.406                    22201440.332
 119814074.986 7  93361656.65744  22799862.078                    22799873.691
 115638663.969 7  90108091.04945  22005303.055                    22005313.125
 117259881.249 7  91371365.74845  22313815.250                    22313824.070
 113500467.292 7  88441981.39244  21598429.031                    21598437.691
 105519625.194 8  82223114.38646  20079718.500                    20079727.766
 112775627.305 8  87877140.670 7  21460493.766                    21460503.898
 111991367.303 8  87266065.790 7  21311239.984                    21311249.434
 11  8 16 19 57 30.0000000  0  8G01G26G24G11G28G08G07G17
 116690826.147 7  90927979.326 7  22205523.945                    22205536.363
 119830277.603 7  93374282.02144  22802945.734                    22802956.801
 115658278.960 7  90123375.45945  22009035.586                    22009045.746
 117325199.834 7  91422263.31945  22326244.328                    22326253.465
 113479973.212 7  88426011.97944  21594529.508                    21594538.270
 105540353.773 8  82239266.50546  20083662.773                    20083671.656
 112850851.296 8  87935756.682 7  21474808.867                    21474818.980
 111947551.239 8  87231923.441 7  21302901.891                    21302911.000
 11  8 16 19 58  0.0000000  0  8G01G26G24G11G28G08G07G17
 116712907.303 7  90945185.409 7  22209725.984                    22209738.738
 119847042.515 7  93387345.52844  22806135.359                    22806146.879
 115678460.617 7  90139101.42245  22012875.805                    22012886.754
 117390985.450 7  91473524.81144  22338763.406                    22338772.480
 113459516.017 7  88410071.31244  21590636.609                    21590644.605
 105561661.386 8  82255869.80446  20087717.289                    20087726.625
 112926495.183 8  87994699.874 7  21489203.398                    21489213.473
 111904106.663 8  87198070.557 7  21294634.742                    21294644.137
 11  8 16 19 58 30.0000000  0  8G01G26G24G11G28G08G07G17
 116735541.801 7  90962822.668 7  22214033.328                    22214045.938
 119864368.430 7  93400846.19144  22809432.281                    22809444.516
 115699208.696 7  90155268.75645  22016824.148                    22016834.563
 117457236.285 7  91525148.78945  22351370.703                    22351379.688
 113439096.211 7  88394159.78344  21586750.891                    21586759.137
 105583548.656 8  82272924.79846  20091882.758                    20091892.008
 113002557.102 8  88053968.809 7  21503677.750                    21503687.500
 111861033.569 8  87164507.148 7  21286437.766                    21286447.734
 11  8 16 19 59  0.0000000  0  8G01G26G24G11G28G08G07G17
 116758729.085 7  90980890.682 7  22218445.961                    22218458.215
 119882253.564 7  93414782.60844  22812836.164                    22812848.156
 115720523.078 8  90171877.35245  22020880.414                    22020890.902
 117523950.453 7  91577133.81645  22364066.008                    22364074.930
 113418714.120 7  88378277.63544  21582872.375                    21582879.949
 105606016.123 8  82290431.89646  20096158.148                    20096167.539
 113079035.714 8  88113562.434 7  21518230.875                    21518240.809
 111818332.131 8  87131233.325 7  21278312.156                    21278321.680
 11  8 16 19 59 30.0000000  0  8G01G26G24G11G28G08G07G17
 116782468.659 7  90999389.041 7  22222962.992                    22222975.348
 119900696.563 7  93429153.70544  22816345.297                    22816357.852
 115742403.221 7  90188926.81245  22025043.836                    22025054.488
 117591125.129 7  91629477.68345  22376848.930                    22376857.766
 113398370.270 7  88362425.29744  21579001.047                    21579009.234
 105629063.734 8  82308391.04546  20100544.023                    20100553.191
 113155929.438 8  88173479.527 7  21532863.625                    21532873.414
 111776001.744 8  87098248.636 7  21270257.156                    21270266.816
 11  8 16 20  0  0.0000000  0  8G01G26G24G11G28G08G07G17
 116806760.626 7  91018317.847 7  22227585.461                    22227598.145
 119919696.345 7  93443958.65144  22819961.320                    22819973.395
 115764849.465 7  90206417.39445  22029315.281                    22029326.066
 117658759.139 7  91682179.48045  22389719.031                    22389727.738
 113378066.011 7  88346603.81644  21575137.461                    21575145.328
 105652692.857 8  82326803.32946  20105040.406                    20105049.613
 113233237.137 8  88233719.204 7  21547574.914                    21547584.586
 111734043.304 8  87065553.765 7  21262272.656                    21262282.199
 11  8 16 20  0 30.0000000  0  8G01G26G24G11G28G08G07G17
 116831604.182 7  91037676.457 7  22232313.164                    22232325.688
 119939251.009 7  93459195.98844  22823683.063                    22823694.211
 115787860.965 7  90224348.41645  22033694.180                    22033704.828
 117726850.028 7  91735237.29245  22402676.586                    22402685.055
 113357801.404 7  88330813.19944  21571281.273                    21571289.043
 105676903.079 8  82345668.41046  20109647.375                    20109656.574
 113310956.728 8  88294279.825 7  21562364.391                    21562374.461
 111692456.211 8  87033148.263 7  21254358.797                    21254368.523
 11  8 16 20  1  0.0000000  0  8G01G26G24G11G28G08G07G17
 116856998.198 7  91057464.002 7  22237145.664                    22237158.559
 119959358.317 7  93474863.95645  22827508.898                    22827520.758
 115811436.995 8  90242719.34445  22038180.352                    22038191.359
 117795395.083 7  91788648.98844  22415720.047                    22415728.809
 113337576.041 7  88315053.18944  21567432.453                    21567440.316
 105701694.125 8  82364986.07246  20114365.438                    20114374.605
 113389086.379 8  88355159.983 7  21577232.188                    21577242.000
 111651239.885 8  87001031.663 7  21246515.352                    21246525.168
 11  8 16 20  1 30.0000000  0  8G01G26G24G11G28G08G07G17
 116882942.107 8  91077680.039 7  22242082.289                    22242094.852
 119980017.003 7  93490961.57844  22831440.563                    22831452.172
 115835577.467 8  90261530.10645  22042773.867                    22042784.852
 117864392.431 7  91842413.10744  22428850.328                    22428858.605
 113317390.809 7  88299324.45244  21563591.320                    21563599.133
 105727066.626 8  82384756.82646  20119193.375                    20119202.672
 113467624.670 8  88416358.567 7  21592177.148                    21592187.402
 111610394.166 8  86969203.859 7  21238742.875                    21238752.758
 11  8 16 20  2  0.0000000  0  8G01G26G24G11G28G08G07G17
 116909435.651 7  91098324.355 7  22247124.234                    22247136.906
 120001225.553 7  93507487.64144  22835476.609                    22835487.633
 115860281.857 7  90280780.28345  22047475.492                    22047485.945
 117933839.944 7  91896528.02244  22442065.375                    22442073.988
 113297246.776 7  88283627.80544  21559757.703                    21559765.703
 105753020.760 8  82404980.79846  20124132.313                    20124141.355
 113546570.003 8  88477874.310 7  21607200.641                    21607210.383
 111569919.084 8  86937664.870 7  21231040.852                    21231049.961
 11  8 16 20  2 30.0000000  0  8G01G26G24G11G28G08G07G17
 116936477.908 7  91119396.234 7  22252269.961                    22252282.727
 120022981.427 7  93524440.19744  22839616.500                    22839627.977
 115885549.233 7  90300469.14945  22052283.016                    22052294.000
 118003735.032 7  91950991.71744  22455366.094                    22455374.621
 113277143.171 7  88267962.67644  21555931.859                    21555940.410
 105779555.798 8  82425657.41146  20129181.805                    20129190.957
 113625920.055 8  88539705.436 7  21622300.188                    21622310.711
 111529813.936 8  86906414.139 7  21223409.133                    21223418.426
 11  8 16 20  3  0.0000000  0  8G01G26G24G11G28G08G07G17
 116964068.398 7  91140895.323 7  22257520.211                    22257532.859
 120045283.438 7  93541818.32444  22843860.211                    22843871.844
 115911379.447 7  90320596.58445  22057198.672                    22057209.379
 118074075.450 7  92005802.38545  22468751.484                    22468760.297
 113257080.906 7  88252329.76244  21552114.656                    21552122.844
 105806672.471 8  82446787.25246  20134342.156                    20134351.102
 113705673.398 8  88601850.815 7  21637476.766                    21637487.527
 111490078.755 8  86875451.707 7  21215847.375                    21215856.684
 11  8 16 20  3 30.0000000  0  8G01G26G24G11G28G08G07G17
 116992206.707 7  91162821.279 7  22262874.711                    22262887.211
 120068130.387 7  93559621.06844  22848208.055                    22848219.672
 115937772.471 7  90341162.57345  22062220.844                    22062232.023
 118144859.595 7  92060958.83245  22482221.445                    22482230.023
 113237061.215 8  88236730.01344  21548305.055                    21548313.000
 105834372.065 8  82468371.31246  20139613.148                    20139622.148
 113785829.112 8  88664309.710 7  21652730.313                    21652740.234
 111450713.959 8  86844777.888 7  21208356.734                    21208366.145
 11  8 16 20  4  0.0000000  0  8G01G26G24G11G28G08G07G17
 117020892.354 7  91185173.721 7  22268333.664                    22268346.234
 120091520.304 7  93577846.90644  22852659.000                    22852670.723
 115964727.568 8  90362166.53545  22067350.906                    22067361.609
 118216085.345 7  92116459.38944  22495774.672                    22495783.738
 113217085.030 8  88221164.16044  21544503.672                    21544511.195
 105862654.122 8  82490409.24246  20144995.023                    20145004.113
 113866385.355 8  88727080.729 7  21668059.547                    21668069.645
 111411719.482 8  86814392.622 7  21200936.438                    21200945.371
 11  8 16 20  4 30.0000000  0  9G04G01G26G24G11G28G08G07G17
 129225906.68416 100695623.44253  24590880.664                    24590900.430
 117050123.623 7  91207951.340 7  22273895.781                    22273908.027
 120115450.625 6  93596493.85144  22857212.391                    22857224.238
 115992243.519 7  90383607.54945  22072586.570                    22072597.348
 118287749.422 7  92172301.49944  22509412.117                    22509421.383
 113197151.589 8  88205631.62345  21540710.336                    21540718.344
 105891517.423 8  82512900.09046  20150487.758                    20150496.551
 113947339.448 8  88790161.750 7  21683464.555                    21683474.539
 111373094.041 8  86784294.920 7  21193585.977                    21193595.223
 11  8 16 20  5  0.0000000  0  9G04G01G26G24G11G28G08G07G17
 129113424.406 6 100607975.22043  24569476.289                    24569495.984
 117079898.071 7  91231152.209 7  22279561.891                    22279574.238
 120139917.877 7  93615559.15944  22861868.695                    22861880.445
 116020317.734 7  90405483.54045  22077928.656                    22077940.172
 118359847.580 7  92228481.83745  22523131.773                    22523141.086
 113177259.527 8  88190131.33644  21536924.945                    21536932.988
 105920960.379 8  82535842.61646  20156090.555                    20156099.480
 114028687.815 8  88853550.002 7  21698944.688                    21698954.926
 111334835.527 8  86754483.124 7  21186305.820                    21186315.008
 11  8 16 20  5 30.0000000  0  9G04G01G26G24G11G28G08G07G17
 129000876.717 6 100520276.03243  24548057.594                    24548078.457
 117110216.778 7  91254777.180 7  22285331.398                    22285343.832
 120164922.059 6  93635042.86444  22866627.109                    22866638.262
 116048951.676 7  90427795.69945  22083377.805                    22083388.766
 118432379.770 7  92285000.40144  22536934.195                    22536943.098
 113157411.689 8  88174665.49245  21533147.891                    21533155.883
 105950985.295 8  82559238.61346  20161804.016                    20161813.418
 114110430.821 8  88917245.762 7  21714500.078                    21714510.262
 111296945.491 8  86724958.464 7  21179095.547                    21179104.707
 11  8 16 20  6  0.0000000  0  9G04G01G26G24G11G28G08G07G17
 128888267.009 6 100432528.51243  24526629.742                    24526649.016
 117141080.067 7  91278826.498 7  22291204.695                    22291217.273
 120190462.234 7  93654944.23844  22871487.383                    22871498.684
 116078145.969 7  90450544.50045  22088933.320                    22088944.758
 118505344.572 7  92341856.06944  22550818.844                    22550827.598
 113137609.355 8  88159235.11545  21529380.195                    21529387.516
 105981592.990 8  82583088.72846  20167628.148                    20167637.742
 114192567.505 8  88981248.278 7  21730129.883                    21730140.008
 111259424.781 8  86695721.579 7  21171955.125                    21171964.914
 11  8 16 20  6 30.0000000  0  9G04G01G26G24G11G28G08G07G17
 128775597.953 6 100344734.68143  24505189.016                    24505208.293
 117172486.887 7  91303299.354 7  22297181.148                    22297193.645
 120216536.057 7  93675261.42944  22876448.578                    22876460.566
 116107899.576 7  90473729.12645  22094595.070                    22094605.648
 118578739.830 7  92399047.15044  22564785.477                    22564794.348
 113117852.958 8  88143840.53045  21525620.438                    21525627.941
 106012783.389 8  82607392.89846  20173563.852                    20173572.855
 114275095.953 8  89045556.059 7  21745834.789                    21745844.988
 111222272.988 8  86666772.167 7  21164885.719                    21164895.012
 11  8 16 20  7  0.0000000  0  9G04G01G26G24G11G28G08G07G17
 128662871.648 6 100256896.28643  24483737.570                    24483756.883
 117204436.160 7  91328194.883 7  22303261.133                    22303272.871
 120243141.705 7  93695993.01144  22881511.875                    22881523.258
 116138211.445 7  90497348.76445  22100363.648                    22100374.426
 118652562.542 7  92456571.30944  22578833.922                    22578842.578
 113098143.092 8  88128482.20945  21521869.820                    21521877.391
 106044555.695 8  82632150.49746  20179609.781                    20179619.285
 114358014.193 8  89110167.583 7  21761613.672                    21761623.539
 111185489.395 8  86638109.664 7  21157885.500                    21157895.395
 11  8 16 20  7 30.0000000  0  9G04G01G26G24G11G28G08G07G17
 128550090.265 6 100169014.90642  24462275.227                    24462295.566
 117236926.635 7  91353512.130 7  22309443.227                    22309456.047
 120270276.871 7  93717137.19744  22886675.648                    22886686.887
 116169080.698 7  90521402.72045  22106237.703                    22106248.250
 118726810.265 8  92514426.65344  22592962.766                    22592971.566
 113078479.614 8  88113160.01845  21518127.789                    21518135.926
 106076909.440 8  82657361.16846  20185766.453                    20185775.727
 114441320.021 8  89175081.115 7  21777466.547                    21777476.406
 111149073.208 8  86609733.451 7  21150956.344                    21150965.582
 11  8 16 20  8  0.0000000  0  9G04G01G26G24G11G28G08G07G17
 128437257.013 5 100081093.14842  24440803.313                    24440824.051
 117269957.978 7  91379250.838 7  22315728.805                    22315741.816
 120297939.903 7  93738692.71844  22891939.586                    22891950.801
 116200506.803 7  90545890.59245  22112217.703                    22112228.121
 118801481.022 8  92572611.63544  22607172.453                    22607180.590
 113058863.831 8  88097875.00245  21514395.391                    21514403.117
 106109845.269 8  82683025.41946  20192034.000                    20192043.363
 114525012.038 8  89240295.594 7  21793392.242                    21793402.773
 111113024.831 8  86581643.849 7  21144096.234                    21144105.535
 11  8 16 20  8 30.0000000  0  9G04G01G26G24G11G28G08G07G17
 128324374.678 6  99993133.11942  24419322.758                    24419343.070
 117303529.144 7  91405410.179 7  22322117.117                    22322129.336
 120326129.193 7  93760658.31844  22897304.320                    22897315.172
 116232489.390 7  90570812.07945  22118304.219                    22118314.477
 118876572.799 7  92631124.68344  22621462.383                    22621470.770
 113039296.576 8  88082627.79945  21510671.719                    21510679.047
 106143363.540 8  82709143.51346  20198412.727                    20198421.750
 114609088.611 8  89305809.712 7  21809391.813                    21809402.160
 111077344.095 8  86553840.718 7  21137306.383                    21137315.777
 11  8 16 20  9  0.0000000  0  9G04G01G26G24G11G28G08G07G17
 128211445.649 5  99905136.71242  24397831.859                    24397853.316
 117337639.432 7  91431989.603 7  22328607.844                    22328620.828
 120354842.303 7  93783032.08744  22902768.375                    22902779.145
 116265027.471 7  90596166.42445  22124495.781                    22124506.094
 118952082.718 7  92689963.57844  22635831.133                    22635839.871
 113019777.883 8  88067418.44345  21506957.398                    21506964.930
 106177463.572 8  82735714.93846  20204901.570                    20204910.699
 114693547.348 8  89371621.624 7  21825464.047                    21825474.805
 111042030.133 8  86526323.386 7  21130586.242                    21130595.395
 11  8 16 20  9 30.0000000  0  9G04G01G26G24G11G28G08G07G17
 128098471.984 6  99817105.43742  24376334.391                    24376355.355
 117372287.089 7  91458987.772 7  22335201.711                    22335214.703
 120384076.860 7  93805812.17644  22908331.664                    22908342.273
 116298119.500 7  90621952.41045  22130793.047                    22130803.742
 119028007.921 8  92749126.06244  22650279.133                    22650287.988
 113000308.216 8  88052247.28245  21503252.570                    21503260.246
 106212144.221 7  82762738.78846  20211501.117                    20211510.605
 114778386.065 8  89437729.640 7  21841608.461                    21841618.965
 111007082.077 8  86499091.175 7  21123936.344                    21123945.691
 11  8 16 20 10  0.0000000  0  9G04G01G26G24G11G28G08G07G17
 127985456.462 6  99729041.68543  24354828.016                    24354848.172
 117407471.344 7  91486404.067 7  22341897.117                    22341909.238
 120413830.924 7  93828997.09244  22913993.414                    22914004.152
 116331764.982 7  90648169.65545  22137195.734                    22137205.785
 119104346.453 7  92808610.60544  22664805.594                    22664813.785
 112980888.325 8  88037114.90645  21499557.133                    21499564.859
 106247405.969 8  82790215.43946  20218210.805                    20218220.094
 114863603.215 8  89504132.524 7  21857824.859                    21857835.246
 110972500.012 8  86472144.148 7  21117355.281                    21117364.238
 11  8 16 20 10 30.0000000  0  9G04G01G26G24G11G28G08G07G17
 127872401.417 6  99640947.10143  24333314.281                    24333334.195
 117443191.016 7  91514237.570 7  22348694.258                    22348706.691
 120444102.201 7  93852585.00644  22919754.063                    22919765.215
 116365962.640 7  90674817.18245  22143703.000                    22143713.609
 119181095.657 7  92868415.16844  22679410.805                    22679418.906
 112961518.551 8  88022021.57745  21495870.852                    21495878.605
 106283247.779 7  82818144.08446  20225031.523                    20225041.020
 114949196.363 8  89570828.404 7  21874112.648                    21874123.379
 110938283.062 8  86445481.642 7  21110843.867                    21110853.379
 11  8 16 20 11  0.0000000  0  9G04G01G26G24G11G28G08G07G17
 127759309.717 6  99552823.99343  24311793.258                    24311813.371
 117479445.281 7  91542487.639 7  22355593.500                    22355605.910
 120474888.693 7  93876574.38844  22925612.414                    22925623.574
 116400711.970 7  90701894.58045  22150315.930                    22150326.527
 119258253.213 7  92928537.93044  22694092.945                    22694101.766
 112942199.564 8  88006967.82545  21492194.734                    21492202.805
 106319670.044 8  82846525.02346  20231962.922                    20231972.078
 115035164.233 8  89637816.267 7  21890471.734                    21890482.137
 110904431.112 8  86419103.548 7  21104401.453                    21104410.730
 11  8 16 20 11 30.0000000  0  9G04G01G26G24G11G28G08G07G17
 127646184.031 6  99464674.43543  24290266.484                    24290285.977
 117516232.936 7  91571153.341 7  22362593.750                    22362606.055
 120506188.444 7  93900963.71144  22931568.477                    22931580.238
 116436011.908 7  90729401.02745  22157033.211                    22157043.523
 119335816.472 7  92988976.82444  22708852.570                    22708862.168
 112922932.464 8  87991954.51345  21488528.109                    21488536.246
 106356672.142 8  82875357.78346  20239003.945                    20239012.934
 115121504.745 8  89705094.489 7  21906901.859                    21906912.523
 110870943.780 8  86393009.561 7  21098029.594                    21098038.574
 11  8 16 20 12  0.0000000  0  9G04G01G26G24G11G28G08G07G17
 127533026.908 6  99376500.36543  24268732.805                    24268752.430
 117553553.206 7  91600234.055 7  22369695.563                    22369708.035
 120537999.222 7  93925751.23644  22937622.375                    22937633.273
 116471861.500 7  90757335.76545  22163854.984                    22163865.434
 119413783.344 7  93049730.20344  22723689.438                    22723698.156
 112903717.812 7  87976982.07045  21484871.773                    21484879.922
 106394253.831 7  82904642.16446  20246155.859                    20246164.406
 115208215.946 7  89772661.551 7  21923402.578                    21923412.570
 110837820.397 8  86367199.172 7  21091726.531                    21091735.145
 11  8 16 20 12 30.0000000  0  9G04G01G26G24G11G28G08G07G17
 127419840.852 6  99288303.79243  24247194.141                    24247213.754
 117591404.982 7  91629728.940 7  22376898.391                    22376910.730
 120570318.940 7  93950935.33044  22943772.641                    22943784.000
 116508259.623 7  90785697.93644  22170781.016                    22170791.828
 119492151.467 7  93110796.25344  22738602.039                    22738611.012
 112884555.943 8  87962050.75645  21481225.492                    21481233.441
 106432414.725 8  82934377.86546  20253417.336                    20253426.602
 115295295.602 7  89840515.730 7  21939972.953                    21939983.484
 110805060.612 8  86341672.107 7  21085492.359                    21085501.668
 11  8 16 20 13  0.0000000  0  9G04G01G26G24G11G28G08G07G17
 127306628.895 6  99200087.05543  24225650.688                    24225669.336
 117629786.907 7  91659636.936 7  22384202.516                    22384214.762
 120603145.346 7  93976514.24844  22950018.742                    22950031.016
 116545205.431 7  90814486.86045  22177811.617                    22177821.820
 119570918.325 7  93172172.97944  22753591.594                    22753600.297
 112865447.882 8  87947161.36545  21477589.617                    21477597.004
 106471154.435 8  82964564.59646  20260789.594                    20260798.492
 115382741.954 7  89908655.662 7  21956613.406                    21956624.348
 110772664.147 8  86316428.153 7  21079327.477                    21079336.723
 11  8 16 20 13 30.0000000  0  9G04G01G26G24G11G28G08G07G17
 127193393.445 6  99111852.02743  24204100.953                    24204121.297
 117668697.852 7  91689957.151 7  22391607.445                    22391619.574
 120636476.413 7  94002486.39744  22956362.281                    22956373.816
 116582697.995 7  90843701.83644  22184946.492                    22184956.629
 119650081.267 7  93233858.35044  22768655.898                    22768664.484
 112846394.380 7  87932314.49745  21473963.414                    21473971.586
 106510472.628 8  82995202.09746  20268271.156                    20268280.563
 115470552.839 7  89977079.626 7  21973323.719                    21973334.445
 110740629.965 8  86291466.498 7  21073231.797                    21073240.645
 11  8 16 20 14  0.0000000  0  9G04G01G26G24G11G28G08G07G17
 127080136.893 6  99023600.51643  24182549.219                    24182569.008
 117708136.524 7  91720688.581 7  22399111.695                    22399124.637
 120670309.585 7  94028849.79744  22962800.047                    22962811.977
 116620736.151 7  90873341.95245  22192184.883                    22192195.297
 119729638.104 7  93295850.68744  22783795.281                    22783802.875
 112827395.725 8  87917510.36245  21470348.234                    21470356.340
 106550368.567 8  83026289.79446  20275863.484                    20275872.863
 115558726.140 7  90045786.000 7  21990103.109                    21990113.645
 110708957.837 8  86266786.962 7  21067204.422                    21067213.668
 11  8 16 20 14 30.0000000  0  9G04G01G26G24G11G28G08G07G17
 126966862.669 6  98935335.26543  24160994.523                    24161013.242
 117748102.473 7  91751830.862 7  22406717.430                    22406729.656
 120704642.859 7  94055602.88644  22969333.531                    22969345.582
 116659319.269 7  90903406.71644  22199526.586                    22199537.340
 119809586.263 7  93358147.91944  22799008.391                    22799017.133
 112808453.014 8  87902749.81546  21466743.188                    21466751.113
 106590842.424 8  83057827.82146  20283565.570                    20283574.660
 115647260.555 8  90114773.751 7  22006950.461                    22006961.285
 110677647.874 8  86242389.619 7  21061246.422                    21061255.598
 11  8 16 20 15  0.0000000  0  9G04G01G26G24G11G28G08G07G17
 126853572.818 6  98847057.83242  24139435.328                    24139454.926
 117788593.900 7  91783382.624 7  22414422.352                    22414434.813
 120739473.913 7  94082743.86944  22975962.008                    22975973.906
 116698446.014 7  90933895.09044  22206972.398                    22206982.652
 119889923.252 7  93420748.15144  22814296.609                    22814304.855
 112789566.912 8  87888033.38846  21463149.922                    21463157.719
 106631893.163 8  83089815.38246  20291377.016                    20291386.848
 115736153.521 8  90184040.900 7  22023866.273                    22023877.066
 110646698.876 8  86218273.556 7  21055356.773                    21055365.727
 11  8 16 20 15 30.0000000  0  9G04G01G26G24G11G28G08G07G17
 126740270.210 6  98758770.46943  24117874.703                    24117893.379
 117829609.743 7  91815343.023 7  22422227.438                    22422239.809
 120774800.598 7  94110271.03144  22982684.250                    22982696.203
 116738115.261 7  90964806.19644  22214521.688                    22214531.551
 119970646.603 7  93483649.43144  22829657.203                    22829666.660
 112770738.213 8  87873361.68546  21459566.805                    21459574.539
 106673520.306 8  83122252.08646  20299298.445                    20299307.750
 115825403.297 7  90253586.074 7  22040850.008                    22040861.051
 110616110.617 8  86194438.586 7  21049536.352                    21049545.484
 11  8 16 20 16  0.0000000  0  9G04G01G26G24G11G28G08G07G17
 126626957.302 6  98670475.07243  24096311.523                    24096330.309
 117871148.916 7  91847711.212 7  22430132.023                    22430144.605
 120810620.730 7  94138182.70244  22989500.992                    22989512.648
 116778325.899 7  90996139.17144  22222173.273                    22222183.145
 120051753.903 7  93546849.88844  22845090.836                    22845100.609
 112751967.743 8  87858735.35446  21455994.609                    21456002.594
 106715723.345 8  83155137.54546  20307329.414                    20307338.969
 115915007.691 7  90323407.577 7  22057901.320                    22057911.922
 110585882.455 8  86170884.212 8  21043784.039                    21043793.098
 11  8 16 20 16 30.0000000  0  9G04G01G26G24G11G28G08G07G17
 126513637.085 7  98582173.95643  24074746.398                    24074765.164
 117913210.029 7  91880486.092 7  22438135.922                    22438148.656
 120846931.709 7  94166476.85544  22996410.266                    22996422.422
 116819076.995 7  91027893.29544  22229928.055                    22229938.438
 120133242.626 7  93610347.55844  22860598.633                    22860607.371
 112733255.966 8  87844154.75546  21452433.875                    21452442.207
 106758501.967 7  83188471.51246  20315469.805                    20315479.738
 116004964.694 7  90393503.829 7  22075018.805                    22075030.145
 110556013.952 8  86147610.090 8  21038100.219                    21038109.762
 11  8 16 20 17  0.0000000  0  9G04G01G26G24G11G28G08G07G17
 126400312.171 7  98493869.22043  24053181.633                    24053200.328
 117955791.858 7  91913666.721 7  22446239.297                    22446251.906
 120883731.216 7  94195151.70244  23003412.914                    23003425.813
 116860367.170 7  91060067.47844  22237785.133                    22237795.141
 120215110.210 7  93674140.44144  22876177.680                    22876186.344
 112714603.679 8  87829620.51346  21448884.594                    21448892.824
 106801855.275 8  83222253.27846  20323719.531                    20323728.914
 116095272.121 7  90463873.133 7  22092204.367                    22092215.051
 110526504.522 8  86124615.764 7  21032484.656                    21032493.766
 11  8 16 20 17 30.0000000  0  9G04G01G26G24G11G28G08G07G17
 126286985.016 6  98405562.74143  24031616.117                    24031634.301
 117998892.664 7  91947251.763 7  22454440.906                    22454453.340
 120921016.813 7  94224205.30444  23010508.500                    23010520.617
 116902194.919 7  91092660.54544  22245744.117                    22245755.172
 120297354.081 7  93738226.54244  22891827.875                    22891836.805
 112696011.241 8  87815132.89846  21445346.633                    21445354.664
 106845782.325 8  83256482.11246  20332078.875                    20332088.316
 116185927.791 7  90534513.774 7  22109455.805                    22109466.578
 110497353.669 8  86101900.853 7  21026937.461                    21026946.324
 11  8 16 20 18  0.0000000  0  9G04G01G26G24G11G28G08G07G17
 126173658.942 7  98317257.07243  24010050.578                    24010068.418
 118042511.736 7  91981240.654 7  22462741.695                    22462753.574
 120958786.425 7  94253636.06744  23017696.234                    23017708.391
 116944559.654 7  91125672.03044  22253806.234                    22253816.930
 120379971.825 7  93802603.94844  22907549.914                    22907558.824
 112677480.481 8  87800693.35246  21441820.313                    21441828.398
 106890283.237 8  83291158.10846  20340547.344                    20340556.766
 116276930.120 7  90605424.548 7  22126773.094                    22126783.922
 110468560.351 8  86079464.527 7  21021458.313                    21021467.313
 11  8 16 20 18 30.0000000  0  9G04G01G26G24G11G28G08G07G17
 126060335.959 6  98228953.83043  23988485.773                    23988504.129
 118086647.415 7  92015632.090 7  22471140.320                    22471152.496
 120997037.411 7  94283441.92344  23024974.953                    23024987.402
 116987459.521 7  91159100.51644  22261970.125                    22261979.941
 120462960.545 7  93867270.47444  22923341.688                    22923350.406
 112659011.487 8  87786301.92746  21438305.852                    21438313.773
 106935356.407 8  83326280.01146  20349124.461                    20349133.867
 116368276.414 7  90676603.357 7  22144155.859                    22144166.234
 110440123.693 8  86057306.122 7  21016046.758                    21016055.801
 11  8 16 20 19  0.0000000  0  9G04G01G26G24G11G28G08G07G17
 125947019.121 6  98140655.37143  23966921.977                    23966939.684
 118131298.479 7  92050425.117 7  22479636.977                    22479649.602
 121035767.307 7  94313620.96744  23032345.258                    23032357.758
 117030893.633 7  91192945.28544  22270235.320                    22270245.422
 120546318.267 7  93932224.52644  22939204.109                    22939213.297
 112640605.147 8  87771959.32346  21434803.242                    21434811.168
 106981001.836 8  83361847.82246  20357810.758                    20357819.809
 116459964.737 7  90748048.677 7  22161603.625                    22161614.125
 110412044.003 8  86035425.880 7  21010703.328                    21010712.723
 11  8 16 20 19 30.0000000  0  9G04G01G26G24G11G28G08G07G17
 125833710.724 6  98052363.47843  23945359.945                    23945377.641
 118176462.954 7  92085618.216 7  22488231.695                    22488244.516
 121074973.627 7  94344171.25444  23039806.000                    23039818.355
 117074860.228 7  91227204.98744  22278602.063                    22278612.105
 120630041.767 7  93997463.61244  22955136.094                    22955145.313
 112622261.902 8  87757665.88846  21431312.352                    21431320.715
 107027217.926 8  83397860.30346  20366604.922                    20366614.191
 116551992.699 7  90819758.659 7  22179115.898                    22179126.715
 110384319.827 8  86013822.660 7  21005427.453                    21005436.359
 11  8 16 20 20  0.0000000  0  9G04G01G26G24G11G28G08G07G17
 125720413.608 6  97964080.42543  23923799.719                    23923817.211
 118222139.836 7  92121210.575 7  22496923.648                    22496936.465
 121114653.952 7  94375090.89444  23047356.828                    23047369.398
 117119358.240 7  91261878.75744  22287069.414                    22287080.078
 120714128.753 7  94062985.87844  22971137.547                    22971146.438
 112603982.738 8  87743422.39046  21427834.000                    21427841.777
 107074004.312 8  83434317.16846  20375508.203                    20375517.348
 116644358.553 7  90891731.938 7  22196692.500                    22196703.945
 110356950.971 8  85992496.305 7  21000219.352                    21000228.324
 11  8 16 20 20 30.0000000  0  9G04G01G26G24G11G28G08G07G17
 125607130.910 6  97875808.57643  23902242.164                    23902259.559
 118268327.465 7  92157200.941 7  22505712.625                    22505725.633
 121154805.843 7  94406377.98244  23054997.781                    23055010.184
 117164386.350 7  91296965.59644  22295637.844                    22295648.656
 120798576.912 7  94128789.63043  22987207.438                    22987216.164
 112585768.622 8  87729229.56946  21424368.070                    21424376.285
 107121360.286 8  83471217.88246  20384520.031                    20384529.402
 116737060.105 7  90963966.787 7  22214333.477                    22214344.531
 110329936.785 8  85971446.322 7  20995078.672                    20995087.551
 11  8 16 20 21  0.0000000  0  9G04G01G26G24G11G28G08G07G17
 125493865.085 6  97787549.91343  23880687.219                    23880705.914
 118315024.813 7  92193588.453 7  22514598.984                    22514612.039
 121195427.000 7  94438030.72344  23062727.773                    23062740.102
 117209943.488 7  91332464.64145  22304307.156                    22304318.281
 120883383.725 7  94194872.86143  23003344.648                    23003354.172
 112567620.555 8  87715088.22346  21420914.477                    21420922.863
 107169285.309 8  83508562.00846  20393639.805                    20393648.738
 116830095.083 7  91036461.459 7  22232037.242                    22232048.090
 110303276.380 8  85950672.008 7  20990005.445                    20990014.426
 11  8 16 20 21 30.0000000  0  9G04G01G26G24G11G28G08G07G17
 125380618.766 6  97699306.46143  23859137.523                    23859155.340
 118362230.333 7  92230371.972 7  22523582.266                    22523594.859
 121236514.570 7  94470046.92244  23070546.609                    23070559.211
 117256028.118 7  91368374.71645  22313077.117                    22313088.039
 120968546.418 6  94261233.35943  23019550.820                    23019561.051
 112549539.070 8  87700998.75546  21417473.711                    21417481.570
 107217778.086 8  83546348.54446  20402867.680                    20402877.121
 116923461.434 7  91109214.307 6  22249804.836                    22249815.344
 110276969.007 8  85930172.796 7  20984999.172                    20985008.125
 11  8 16 20 22  0.0000000  0  9G04G01G26G24G11G28G08G07G17
 125267394.802 6  97611080.39443  23837592.305                    23837609.172
 118409942.381 7  92267550.174 7  22532661.547                    22532674.109
 121278066.104 7  94502424.64544  23078453.703                    23078466.121
 117302638.542 8  91404694.52845  22321946.688                    22321957.234
 121054062.271 7  94327869.04143  23035824.414                    23035834.363
 112531524.838 8  87686961.69646  21414045.633                    21414054.043
 107266837.463 8  83584576.59646  20412203.445                    20412212.766
 117017156.782 7  91182223.531 6  22267634.867                    22267645.098
 110251014.023 8  85909948.178 7  20980060.688                    20980068.824
 11  8 16 20 22 30.0000000  0  9G04G01G26G24G11G28G08G07G17
 125154196.120 6  97522874.07243  23816050.352                    23816067.844
 118458159.639 7  92305122.057 7  22541836.242                    22541849.156
 121320079.298 7  94535162.11444  23086447.906                    23086460.531
 117349773.592 7  91441423.12644  22330915.789                    22330926.430
 121139928.962 7  94394778.09043  23052164.609                    23052174.402
 112513579.266 8  87672978.14846  21410630.609                    21410638.496
 107316463.128 8  83623245.89346  20421646.734                    20421655.930
 117111178.935 7  91255487.395 7  22285525.953                    22285536.844
 110225411.147 8  85889997.921 7  20975187.945                    20975196.859
 11  8 16 20 23  0.0000000  0  9G04G01G26G24G11G28G08G07G17
 125041025.464 6  97434689.53143  23794514.922                    23794531.559
 118506880.461 7  92343086.313 7  22551107.656                    22551121.074
 121362551.736 7  94568257.43244  23094530.945                    23094543.043
 117397431.942 7  91478559.50644  22339985.016                    22339995.230
 121226144.161 7  94461958.71443  23068571.203                    23068580.172
 112495702.838 8  87659048.46746  21407228.922                    21407236.926
 107366654.407 8  83662355.93546  20431197.906                    20431207.477
 117205525.953 7  91329004.415 7  22303480.242                    22303491.277
 110200159.635 8  85870321.464 7  20970382.914                    20970391.539
 11  8 16 20 23 30.0000000  0  9G04G01G26G24G11G28G08G07G17
 124927885.819 6  97346529.17143  23772984.477                    23773001.813
 118556103.717 7  92381442.081 7  22560475.414                    22560487.324
 121405481.057 7  94601708.76543  23102700.016                    23102712.371
 117445612.297 8  91516102.61745  22349153.742                    22349164.152
 121312705.238 7  94529408.85844  23085043.266                    23085051.711
 112477897.135 8  87645173.90946  21403840.844                    21403848.781
 107417410.619 8  83701906.17346  20440856.617                    20440866.047
 117300195.907 7  91402773.076 7  22321494.992                    22321506.223
 110175258.908 8  85850918.335 7  20965644.344                    20965653.172
 11  8 16 20 24  0.0000000  0  9G04G01G26G24G11G28G08G07G17
 124814779.753 6  97258394.95043  23751460.289                    23751478.043
 118605827.698 7  92420188.029 7  22569936.594                    22569949.230
 121448864.214 7  94635513.71444  23110955.383                    23110967.820
 117494313.108 7  91554051.29245  22358421.609                    22358431.727
 121399609.352 7  94597126.29944  23101580.414                    23101588.770
 112460162.504 8  87631354.72146  21400465.781                    21400473.742
 107468729.883 8  83741895.13946  20450622.602                    20450631.891
 117395186.343 7  91476791.475 7  22339571.000                    22339582.727
 110150708.070 8  85831787.858 7  20960972.625                    20960981.168
 11  8 16 20 24 30.0000000  0  9G04G01G26G24G11G28G08G07G17
 124701709.868 6  97170288.91743  23729944.227                    23729961.254
 118656050.310 7  92459322.526 7  22579493.906                    22579506.863
 121492698.608 6  94669670.28244  23119297.148                    23119309.363
 117543532.718 7  91592404.23045  22367787.664                    22367797.898
 121486853.931 7  94665109.02543  23118182.516                    23118191.004
 112442499.992 8  87617591.73946  21397104.844                    21397112.910
 107520611.540 8  83782322.34446  20460495.352                    20460504.953
 117490494.912 7  91551057.755 7  22357707.945                    22357719.402
 110126506.273 8  85812929.356 7  20956367.172                    20956375.949
 11  8 16 20 25  0.0000000  0  9G04G01G26G24G11G28G08G07G17
 124588678.817 6  97082213.11443  23708434.688                    23708451.828
 118706770.236 7  92498844.532 7  22589145.672                    22589158.977
 121536981.612 7  94704176.43244  23127723.727                    23127736.418
 117593269.495 7  91631160.15245  22377251.836                    22377262.449
 121574436.530 7  94733355.15744  23134849.336                    23134857.523
 112424910.048 8  87603885.30546  21393757.781                    21393765.539
 107573054.461 8  83823186.90746  20470474.625                    20470483.840
 117586119.205 7  91625570.052 7  22375904.805                    22375916.613
 110102652.513 8  85794342.043 7  20951828.000                    20951836.629
 11  8 16 20 25 30.0000000  0  9G04G01G26G24G11G28G08G07G17
 124475689.722 6  96994170.02943  23686933.625                    23686950.605
 118757985.914 7  92538752.845 7  22598892.055                    22598904.684
 121581710.549 7  94739030.07044  23136235.828                    23136248.602
 117643522.097 7  91670318.00945  22386814.914                    22386825.145
 121662354.222 7  94801862.42643  23151579.570                    23151587.586
 112407393.713 8  87590236.22946  21390424.211                    21390432.309
 107626057.708 8  83864488.08046  20480560.609                    20480570.793
 117682057.215 7  91700326.795 7  22394161.867                    22394172.895
 110079146.411 8  85776025.647 7  20947354.844                    20947364.063
 11  8 16 20 26  0.0000000  0  9G04G01G26G24G11G28G08G07G17
 124362745.091 6  96906161.62443  23665440.172                    23665457.082
 118809695.829 7  92579046.292 7  22608731.727                    22608744.805
 121626882.933 7  94774229.22044  23144832.203                    23144844.551
 117694288.743 8  91709876.43145  22396475.883                    22396486.133
 121750604.517 7  94870628.88643  23168373.539                    23168381.070
 112389951.857 8  87576645.18146  21387105.227                    21387113.145
 107679620.040 8  83906224.91146  20490753.617                    20490763.168
 117778306.584 7  91775326.155 7  22412477.148                    22412488.484
 110055987.113 8  85757979.477 7  20942948.000                    20942956.727
 11  8 16 20 26 30.0000000  0  9G04G01G26G24G11G28G08G07G17
 124249848.081 7  96818190.29343  23643956.453                    23643972.855
 118861898.124 7  92619723.395 7  22618664.922                    22618678.203
 121672496.065 7  94809771.83044  23153512.195                    23153524.555
 117745568.206 7  91749834.44945  22406233.789                    22406244.348
 121839184.979 7  94939652.60444  23185229.383                    23185238.180
 112372585.861 8  87563113.24946  21383800.547                    21383808.320
 107733740.668 8  83948396.78346  20501052.398                    20501062.004
 117874865.089 7  91850566.398 6  22430852.195                    22430862.957
 110033174.099 8  85740203.155 7  20938606.656                    20938615.375
 11  8 16 20 27  0.0000000  0  9G04G01G26G24G11G28G08G07G17
 124137001.202 6  96730258.02043  23622482.289                    23622497.926
 118914591.201 7  92660782.911 7  22628692.867                    22628705.340
 121718547.116 7  94845655.66544  23162275.273                    23162287.867
 117797358.653 7  91790190.62945  22416089.203                    22416099.973
 121928092.796 6  95008931.38443  23202147.242                    23202157.102
 112355296.245 8  87549640.84046  21380510.688                    21380518.309
 107788418.214 8  83991002.61246  20511457.297                    20511467.086
 117971730.292 7  91926045.610 7  22449284.406                    22449296.043
 110010705.694 8  85722695.345 7  20934330.938                    20934339.516
 11  8 16 20 27 30.0000000  0  9G04G01G26G24G11G28G08G07G17
 124024207.131 7  96642366.94943  23601017.898                    23601033.820
 118967773.444 7  92702223.617 7  22638813.211                    22638825.418
 121765033.333 7  94881878.60044  23171121.117                    23171133.461
 117849658.568 7  91830943.79145  22426041.352                    22426052.094
 122017325.423 6  95078463.25743  23219127.180                    23219137.113
 112338083.803 8  87536228.56446  21377234.656                    21377242.980
 107843651.486 8  84034041.46746  20521967.844                    20521977.371
 118068900.571 7  92001762.569 6  22467775.398                    22467786.824
 109988581.424 8  85705455.686 8  20930120.891                    20930129.762
 11  8 16 20 28  0.0000000  0  9G04G01G26G24G11G28G08G07G17
 123911469.171 6  96554519.58743  23579563.297                    23579580.348
 119021443.109 7  92744044.129 7  22649026.523                    22649038.813
 121811952.400 7  94918438.81544  23180049.953                    23180062.051
 117902466.550 7  91872092.84745  22436090.594                    22436101.359
 122106880.342 6  95148246.26443  23236170.188                    23236178.461
 112320950.045 8  87522877.60146  21373974.453                    21373982.633
 107899439.625 8  84077512.68746  20532584.031                    20532593.891
 118166372.943 7  92077714.908 7  22486324.367                    22486335.438
 109966800.923 8  85688483.910 8  20925975.836                    20925985.191
 11  8 16 20 28 30.0000000  0  9G04G01G26G24G11G28G08G07G17
 123798790.210 6  96466718.23443  23558121.023                    23558137.727
 119075598.897 7  92786243.433 7  22659331.609                    22659343.805
 121859301.666 7  94955334.23544  23189059.813                    23189072.566
 117955781.107 7  91913636.67144  22446235.430                    22446246.402
 122196755.167 6  95218278.62143  23253271.961                    23253281.020
 112303896.642 8  87509589.25346  21370729.422                    21370737.438
 107955781.695 8  84121415.53446  20543305.547                    20543315.344
 118264145.534 7  92153901.198 7  22504929.758                    22504941.441
 109945363.893 8  85671779.763 7  20921896.945                    20921905.867
 11  8 16 20 29  0.0000000  0  9G04G01G26G24G11G28G08G07G17
 123686173.057 6  96378965.00343  23536690.508                    23536708.016
 119130238.831 7  92828819.984 7  22669729.656                    22669741.125
 121907078.370 7  94992562.73344  23198151.359                    23198163.660
 118009600.459 7  91955573.82845  22456477.344                    22456487.723
 122286947.097 6  95288558.02943  23270434.547                    23270444.664
 112286923.389 8  87496363.35646  21367499.453                    21367507.293
 108012676.715 8  84165749.26046  20554132.297                    20554142.293
 118362216.143 7  92230319.709 7  22523591.938                    22523603.871
 109924269.175 8  85655342.355 8  20917882.266                    20917891.273
 11  8 16 20 29 30.0000000  0  9G04G01G26G24G11G28G08G07G17
 123573620.240 6  96291261.90843  23515272.297                    23515289.512
 119185361.095 7  92871772.389 7  22680219.234                    22680230.582
 121955279.517 7  95030121.95044  23207323.602                    23207336.301
 118063922.671 7  91997902.80844  22466814.875                    22466824.703
 122377453.311 7  95359082.31644  23287658.289                    23287667.980
 112270031.330 8  87483200.72546  21364285.055                    21364292.938
 108070122.809 8  84210512.39446  20565064.211                    20565073.926
 118460582.246 7  92306968.449 6  22542310.430                    22542322.254
 109903515.484 8  85639170.669 8  20913933.227                    20913941.957
 11  8 16 20 30  0.0000000  0  9G04G01G26G24G11G28G08G07G17
 123461134.336 6  96203610.91743  23493866.805                    23493882.813
 119240963.359 7  92915098.817 7  22690799.461                    22690811.902
 122003902.225 7  95068009.66344  23216576.844                    23216588.910
 118118745.780 7  92040622.11645  22477246.984                    22477257.676
 122468271.111 7  95429849.40444  23304940.258                    23304949.160
 112253221.414 8  87470102.10046  21361086.156                    21361093.918
 108128118.371 8  84255703.68845  20576100.352                    20576109.934
 118559241.313 7  92383845.473 7  22561084.922                    22561096.871
 109883101.813 8  85623263.936 8  20910048.539                    20910057.164
 11  8 16 20 30 30.0000000  0  9G04G01G26G24G11G28G08G07G17
 123348718.229 7  96116014.31544  23472475.438                    23472490.242
 119297044.285 7  92958798.212 7  22701471.164                    22701482.898
 122052943.904 7  95106223.83944  23225909.234                    23225921.387
 118174068.267 7  92083730.51545  22487774.492                    22487784.719
 122559397.983 7  95500857.33044  23322280.992                    23322290.348
 112236494.513 8  87457068.16846  21357903.000                    21357910.867
 108186662.496 8  84301322.42745  20587240.695                    20587250.313
 118658190.929 7  92460948.903 6  22579914.344                    22579926.793
 109863027.680 7  85607621.773 8  20906228.273                    20906237.117
 11  8 16 20 31  0.0000000  0  9G04G01G26G24G11G28G08G07G17
 123236375.058 7  96028474.54744  23451096.742                    23451112.500
 119353602.296 7  93002869.355 7  22712234.484                    22712246.176
 122102401.588 7  95144762.16444  23235320.938                    23235332.984
 118229888.297 7  92127226.62844  22498396.438                    22498407.266
 122650831.262 7  95572104.00043  23339680.008                    23339689.152
 112219852.005 8  87444099.99346  21354735.992                    21354744.227
 108245753.695 8  84347367.45745  20598485.563                    20598495.313
 118757429.026 7  92538277.126 6  22598799.391                    22598810.758
 109843292.013 8  85592243.337 8  20902472.953                    20902481.707
 11  8 16 20 31 30.0000000  0  9G04G01G26G24G11G28G08G07G17
 123124107.575 7  95940993.77744  23429732.086                    23429748.477
 119410635.324 7  93047310.660 7  22723086.836                    22723099.352
 122152272.684 7  95183622.64744  23244811.188                    23244823.918
 118286204.311 7  92171109.22444  22509113.039                    22509123.270
 122742568.489 6  95643587.49844  23357137.633                    23357146.418
 112203295.176 8  87431198.58546  21351585.391                    21351593.293
 108305390.868 8  84393837.91345  20609834.508                    20609843.871
 118856953.392 7  92615828.411 6  22617737.570                    22617749.250
 109823894.219 8  85577128.190 8  20898781.953                    20898790.926
 11  8 16 20 32  0.0000000  0  9G04G01G26G24G11G28G08G07G17
 123011918.565 7  95853574.15743  23408382.734                    23408399.230
 119468141.617 7  93092120.736 7  22734030.195                    22734042.508
 122202554.379 7  95222803.07044  23254379.500                    23254392.449
 118343014.422 7  92215376.82345  22519923.648                    22519934.168
 122834606.851 6  95715305.66643  23374651.328                    23374661.176
 112186824.653 8  87418364.42846  21348450.984                    21348459.199
 108365572.496 8  84440732.62446  20621286.922                    20621296.121
 118956761.451 7  92693600.725 6  22636730.867                    22636742.422
 109804833.294 7  85562275.537 8  20895154.477                    20895163.258
 11  8 16 20 32 30.0000000  0  9G04G01G26G24G11G28G08G07G17
 122899811.131 7  95766218.11043  23387049.000                    23387065.391
 119526119.436 7  93137298.208 7  22745062.859                    22745076.004
 122253243.659 7  95262301.08944  23264025.281                    23264038.266
 118400317.058 7  92260028.21944  22530827.648                    22530838.824
 122926944.024 6  95787256.66043  23392222.719                    23392232.605
 112170441.305 8  87405598.19746  21345333.547                    21345341.523
 108426297.520 8  84488050.76446  20632842.367                    20632852.004
 119056851.207 7  92771592.552 7  22655777.820                    22655789.539
 109786108.408 8  85547684.728 8  20891591.133                    20891600.223
 11  8 16 20 33  0.0000000  0  9G04G01G26G24G11G28G08G07G17
 122787787.936 7  95678927.65443  23365731.750                    23365747.473
 119584567.008 7  93182841.748 7  22756185.063                    22756197.508
 122304338.065 7  95302114.79544  23273748.648                    23273761.578
 118458110.366 7  92305061.94245  22541825.422                    22541836.938
 123019577.136 6  95859438.23943  23409850.430                    23409859.770
 112154146.497 8  87392900.95946  21342232.773                    21342240.516
 108487564.482 8  84535791.18746  20644501.352                    20644511.094
 119157220.123 7  92849801.913 7  22674877.352                    22674889.414
 109767718.693 8  85533355.098 8  20888091.992                    20888100.570
 11  8 16 20 33 30.0000000  0  9G04G01G26G24G11G28G08G07G17
 122675852.067 7  95591705.23443  23344431.000                    23344446.277
 119643482.364 7  93228749.816 7  22767396.453                    22767408.418
 122355834.566 7  95342241.81544  23283547.977                    23283560.859
 118516392.876 7  92350476.83045  22552916.273                    22552927.613
 123112503.755 6  95931848.52343  23427533.773                    23427543.066
 112137941.174 8  87380273.44446  21339148.859                    21339156.809
 108549372.053 8  84583952.88146  20656262.867                    20656272.156
 119257865.707 7  92928226.863 7  22694030.000                    22694041.844
 109749663.593 8  85519286.217 8  20884655.906                    20884664.707
 11  8 16 20 34  0.0000000  0  9G04G01G26G24G11G28G08G07G17
 122564005.848 6  95504552.69343  23323147.172                    23323162.328
 119702863.172 7  93275020.539 7  22778696.398                    22778708.691
 122407730.007 7  95382679.70244  23293423.617                    23293436.793
 118575161.971 7  92396270.89845  22564100.305                    22564110.316
 123205720.591 6  96004485.01443  23445271.523                    23445281.430
 112121826.211 8  87367716.34646  21336082.242                    21336090.082
 108611717.910 8  84632534.02146  20668126.938                    20668136.066
 119358785.380 7  93006865.389 6  22713234.273                    22713246.082
 109731941.235 8  85505476.617 7  20881283.477                    20881292.543
 11  8 16 20 34 30.0000000  0  9G04G01G26G24G11G28G08G07G17
 122452252.602 7  95417472.62144  23301880.773                    23301895.813
 119762708.117 7  93321652.932 7  22790084.219                    22790096.582
 122460021.935 7  95423426.53944  23303374.328                    23303387.543
 118634416.189 7  92442443.00744  22575375.563                    22575385.848
 123299225.349 6  96077345.83443  23463065.773                    23463074.777
 112105802.935 8  87355230.68146  21333032.852                    21333041.180
 108674601.231 8  84681533.96246  20680092.859                    20680102.504
 119459977.091 7  93085715.909 6  22732490.633                    22732501.957
 109714551.457 8  85491926.169 7  20877974.078                    20877983.012
 11  8 16 20 35  0.0000000  0  9G04G01G26G24G11G28G08G07G17
 122340594.996 7  95330467.01344  23280632.875                    23280648.492
 119823014.925 7  93368645.253 7  22801560.289                    22801572.492
 122512707.081 7  95464479.77144  23313400.820                    23313413.039
 118694153.641 7  92488991.67045  22586743.133                    22586753.625
 123393015.542 6  96150429.07743  23480913.008                    23480922.930
 112089872.127 8  87342817.07946  21330001.609                    21330009.508
 108738020.537 8  84730951.56146  20692160.992                    20692170.797
 119561438.326 7  93164776.427 6  22751798.391                    22751810.066
 109697492.820 8  85478633.765 7  20874727.773                    20874736.641
 11  8 16 20 35 30.0000000  0  9G04G01G26G24G11G28G08G07G17
 122229036.094 7  95243538.35644  23259403.844                    23259418.895
 119883781.901 7  93415996.124 7  22813123.609                    22813136.051
 122565782.774 7  95505837.33744  23323500.422                    23323513.316
 118754372.483 7  92535915.40445  22598202.852                    22598213.602
 123487088.612 6  96223732.74343  23498814.953                    23498824.527
 112074035.313 8  87330476.71246  21326988.039                    21326995.742
 108801974.479 8  84780785.74946  20704331.133                    20704341.313
 119663166.930 7  93244045.280 6  22771156.930                    22771168.215
 109680764.950 8  85465599.098 7  20871544.719                    20871553.699
 11  8 16 20 36  0.0000000  0  9G04G01G26G24G11G28G08G07G17
 122117578.647 7  95156688.72944  23238194.203                    23238209.047
 119945007.045 7  93463704.016 7  22824774.883                    22824786.797
 122619246.197 7  95547497.02544  23333673.969                    23333686.816
 118815070.681 7  92583212.68445  22609752.930                    22609764.070
 123581441.525 7  96297254.53043  23516769.328                    23516778.832
 112058293.094 8  87318210.05746  21323992.180                    21324000.535
 108866461.572 8  84831035.36845  20716602.836                    20716612.527
 119765160.315 7  93323520.477 6  22790565.109                    22790576.957
 109664366.636 8  85452821.238 7  20868424.359                    20868432.914
 11  8 16 20 36 30.0000000  0  9G04G01G26G24G11G28G08G07G17
 122006225.470 7  95069920.34444  23217004.203                    23217019.207
 120006688.313 7  93511767.322 7  22836512.352                    22836525.141
 122673094.233 7  95589456.38944  23343921.805                    23343933.883
 118876246.340 7  92630882.00945  22621394.625                    22621405.301
 123676071.783 6  96370992.39443  23534777.109                    23534786.938
 112042646.800 8  87306018.15046  21321014.969                    21321022.578
 108931479.858 8  84881698.89046  20728975.516                    20728984.934
 119867415.938 7  93403199.998 6  22810024.078                    22810035.277
 109648297.167 8  85440299.628 7  20865366.266                    20865375.211
 11  8 16 20 37  0.0000000  0  9G04G01G26G24G11G28G08G07G17
 121894979.313 7  94983235.34244  23195834.188                    23195849.211
 120068823.668 7  93560184.477 7  22848335.930                    22848349.016
 122727323.750 7  95631713.01844  23354240.656                    23354253.707
 118937897.646 7  92678921.98444  22633126.641                    22633136.949
 123770976.818 6  96444944.31443  23552837.891                    23552847.496
 112027097.464 8  87293901.80046  21318056.070                    21318063.859
 108997027.816 8  84932775.13846  20741449.031                    20741458.617
 119969931.673 7  93483082.211 6  22829532.250                    22829543.930
 109632555.221 8  85428033.226 7  20862370.820                    20862379.484
 11  8 16 20 37 30.0000000  0  9G04G01G26G24G11G28G08G07G17
 121783843.101 6  94896636.00244  23174685.031                    23174699.828
 120131411.174 7  93608953.939 7  22860245.930                    22860259.082
 122781932.119 7  95674264.86044  23364632.773                    23364645.293
 119000022.437 7  92727330.90444  22644948.563                    22644958.922
 123866153.767 6  96519108.14243  23570949.344                    23570958.234
 112011645.875 8  87281861.60946  21315115.891                    21315123.645
 109063104.089 8  84984263.07346  20754023.109                    20754032.867
 120072704.469 7  93563164.735 6  22849090.023                    22849101.422
 109617139.517 8  85416021.043 7  20859437.148                    20859446.160
 11  8 16 20 38  0.0000000  0  9G04G01G26G24G11G28G08G07G17
 121672820.077 6  94810124.88144  23153557.633                    23153572.926
 120194448.823 7  93658074.164 7  22872242.070                    22872254.469
 122836916.149 7  95717109.43243  23375094.859                    23375108.496
 119062618.795 7  92776107.26244  22656860.008                    22656870.633
 123961600.056 6  96593481.85143  23589112.281                    23589121.652
 111996293.516 8  87269898.74346  21312194.273                    21312202.086
 109129706.917 8  85036161.30746  20766697.195                    20766706.586
 120175732.342 7  93643446.025 6  22868694.781                    22868707.441
 109602049.605 8  85404262.720 7  20856565.969                    20856574.367
 11  8 16 20 38 30.0000000  0  9G04G01G26G24G11G28G08G07G17
 121561912.617 7  94723703.79143  23132452.852                    23132467.777
 120257934.089 7  93707543.187 7  22884322.945                    22884335.973
 122892272.903 6  95760244.43043  23385629.797                    23385642.551
 119125684.549 7  92825249.41845  22668861.539                    22668871.828
 124057313.065 6  96668063.37343  23607325.898                    23607335.070
 111981041.386 8  87258013.97146  21309292.234                    21309299.988
 109196834.423 8  85088468.40046  20779470.898                    20779480.930
 120279012.638 7  93723924.010 6  22888349.102                    22888361.398
 109587284.133 8  85392757.219 7  20853755.789                    20853764.578
 11  8 16 20 39  0.0000000  0  9G04G01G26G24G11G28G08G07G17
 121451123.903 7  94637375.25943  23111370.570                    23111384.887
 120321865.736 7  93757360.055 7  22896488.148                    22896501.059
 122947999.607 7  95803667.70643  23396234.445                    23396246.793
 119189217.886 7  92874755.90845  22680951.000                    22680961.047
 124153290.172 6  96742850.65943  23625589.797                    23625598.688
 111965890.755 8  87246208.29046  21306408.828                    21306416.926
 109264485.109 8  85141183.16946  20792344.461                    20792354.801
 120382543.175 7  93804596.970 6  22908050.375                    22908062.434
 109572842.365 8  85381503.949 7  20851007.898                    20851016.484
 11  8 16 20 39 30.0000000  0  9G04G01G26G24G11G28G08G07G17
 121340456.570 7  94551141.27543  23090309.711                    23090324.688
 120386240.919 7  93807522.514 7  22908738.359                    22908751.531
 123004092.877 7  95847376.62343  23406909.109                    23406921.359
 119253216.509 7  92924624.96245  22693130.359                    22693140.328
 124249528.308 6  96817841.37943  23643903.250                    23643911.996
 111950842.296 8  87234482.22646  21303545.328                    21303553.152
 109332656.628 8  85194303.78346  20805317.125                    20805327.359
 120486321.102 7  93885462.712 6  22927798.734                    22927811.141
 109558722.837 8  85370501.766 7  20848320.852                    20848329.445
 11  8 16 20 40  0.0000000  0  9G04G01G26G24G11G28G08G07G17
 121229913.585 7  94465004.18143  23069274.586                    23069289.289
 120451057.883 7  93858029.226 7  22921072.609                    22921085.434
 123060549.919 7  95891368.97644  23417652.570                    23417664.543
 119317678.495 7  92974855.06445  22705396.992                    22705407.641
 124346025.295 6  96893033.78143  23662265.641                    23662275.449
 111935897.403 8  87222836.87146  21300701.266                    21300708.641
 109401347.774 8  85247829.29146  20818388.734                    20818398.723
 120590344.204 7  93966519.494 6  22947593.578                    22947605.898
 109544924.812 8  85359750.109 7  20845694.922                    20845704.172
 11  8 16 20 40 30.0000000  0  9G04G01G26G24G11G28G08G07G17
 121119498.060 7  94378966.37843  23048262.844                    23048277.059
 120516314.819 7  93908878.769 7  22933490.875                    22933503.688
 123117367.842 7  95935642.54444  23428464.055                    23428477.035
 119382602.004 7  93025444.82045  22717751.453                    22717761.742
 124442778.499 6  96968425.84943  23680676.508                    23680686.277
 111921057.324 8  87211273.18546  21297877.383                    21297885.207
 109470557.201 8  85301758.65046  20831558.977                    20831568.672
 120694610.405 7  94047765.679 6  22967434.609                    22967447.266
 109531447.591 8  85349248.420 7  20843130.234                    20843139.070
 11  8 16 20 41  0.0000000  0  9G04G01G26G24G11G28G08G07G17
 121009213.280 7  94293030.43643  23027275.984                    23027290.898
 120582009.666 7  93960069.554 7  22945991.977                    22946005.133
 123174543.834 7  95980195.13544  23439344.891                    23439357.434
 119447985.026 7  93076392.62944  22730193.141                    22730203.207
 124539785.464 6  97044015.64943  23699136.289                    23699145.949
 111906323.396 8  87199792.21146  21295073.430                    21295081.352
 109540283.120 8  85356090.45346  20844827.344                    20844837.152
 120799116.963 7  94129199.167 6  22987321.805                    22987334.391
 109518290.339 8  85338996.053 7  20840626.500                    20840635.215
 11  8 16 20 41 30.0000000  0  9G04G01G26G24G11G28G08G07G17
 120899061.772 7  94207198.34144  23006314.883                    23006329.109
 120648140.255 7  94011599.852 7  22958576.703                    22958589.531
 123232074.509 7  96025024.11844  23450292.555                    23450305.988
 119513825.469 7  93127696.87144  22742721.758                    22742732.797
 124637043.215 5  97119800.88142  23717643.352                    23717653.555
 111891696.551 8  87188394.67946  21292290.141                    21292298.078
 109610523.532 8  85410823.15146  20858193.711                    20858203.398
 120903861.386 7  94210818.000 6  23007254.398                    23007267.148
 109505451.542 8  85328991.845 7  20838183.336                    20838192.352
 11  8 16 20 42  0.0000000  0  9G04G01G26G24G11G28G08G07G17
 120789046.427 7  94121472.35444  22985379.578                    22985393.723
 120714704.516 7  94063468.110 7  22971244.000                    22971255.711
 123289957.378 7  96070127.52044  23461307.508                    23461320.773
 119580121.177 7  93179355.85144  22755337.641                    22755348.133
 124734549.093 6  97195779.43143  23736198.336                    23736208.543
 111877178.080 8  87177081.59746  21289527.430                    21289535.387
 109681276.802 8  85465955.47445  20871657.781                    20871667.215
 121008841.168 7  94292620.240 6  23027231.477                    23027244.383
 109492930.317 8  85319235.084 7  20835800.477                    20835809.414
 11  8 16 20 42 30.0000000  0  9G04G01G26G24G11G28G08G07G17
 120679170.406 7  94035854.90144  22964470.664                    22964484.551
 120781700.599 7  94115672.836 7  22983992.367                    22984004.598
 123348189.164 7  96115502.81744  23472388.727                    23472402.066
 119646870.309 7  93231368.14944  22768039.531                    22768049.918
 124832300.723 6  97271949.48443  23754800.109                    23754810.574
 111862769.628 7  87165854.24046  21286785.258                    21286793.102
 109752541.288 8  85521486.14645  20885219.078                    20885228.406
 121114054.103 7  94374604.158 6  23047252.711                    23047266.102
 109480726.116 7  85309725.360 7  20833478.070                    20833487.188
 11  8 16 20 43  0.0000000  0  9G04G01G26G24G11G28G08G07G17
 120569436.149 7  93950347.91844  22943588.617                    22943602.148
 120849125.553 7  94168211.752 7  22996822.844                    22996835.188
 123406766.517 7  96161147.36644  23483535.828                    23483549.574
 119714070.224 7  93283731.72844  22780827.195                    22780837.371
 124930295.103 6  97348308.66343  23773448.469                    23773458.484
 111848471.228 8  87154712.64446  21284064.578                    21284072.285
 109824314.758 8  85577413.46245  20898876.930                    20898886.828
 121219497.338 7  94456767.522 6  23067318.625                    23067331.773
 109468836.992 8  85300461.136 7  20831215.758                    20831224.492
 11  8 16 20 43 30.0000000  0  9G04G01G26G24G11G28G08G07G17
 120459846.733 7  93864953.78344  22922734.750                    22922748.367
 120916977.482 7  94221083.388 7  23009734.227                    23009746.523
 123465686.479 7  96207058.91344  23494747.570                    23494761.211
 119781718.949 7  93336445.01644  22793700.813                    22793710.895
 125028529.572 6  97424854.94443  23792142.273                    23792151.824
 111834284.658 8  87143658.18246  21281365.094                    21281373.168
 109896595.423 7  85633735.98445  20912631.438                    20912641.828
 121325168.624 7  94539108.569 6  23087426.836                    23087440.504
 109457262.058 8  85291441.738 7  20829012.734                    20829021.719
 11  8 16 20 44  0.0000000  0  9G04G01G26G24G11G28G08G07G17
 120350404.670 7  93779674.46344  22901908.305                    22901921.688
 120985254.213 7  94274286.043 6  23022727.195                    23022739.363
 123524945.579 7  96253234.71044  23506024.570                    23506037.602
 119849814.118 7  93389506.18444  22806658.031                    22806669.637
 125127001.353 7  97501586.23843  23810880.727                    23810889.453
 111820210.661 8  87132691.45545  21278686.773                    21278694.480
 109969380.776 7  85690451.78945  20926482.406                    20926492.691
 121431064.874 7  94621624.921 6  23107578.516                    23107591.586
 109446000.086 8  85282666.210 7  20826870.305                    20826878.898
 11  8 16 20 44 30.0000000  0  9G04G01G26G24G11G28G08G07G17
 120241113.252 7  93694512.49744  22881110.500                    22881124.469
 121053953.831 7  94327818.232 7  23035800.805                    23035812.660
 123584541.214 7  96299672.73644  23517365.016                    23517378.645
 119918353.883 7  93442913.78244  22819701.008                    22819711.844
 125225708.013 7  97578500.49843  23829664.461                    23829673.250
 111806250.885 8  87121813.71445  21276030.172                    21276038.098
 110042669.678 8  85747559.98146  20940428.883                    20940439.176
 121537183.955 7  94704314.910 6  23127772.508                    23127785.879
 109435050.481 8  85274134.073 7  20824785.875                    20824794.738
 11  8 16 20 45  0.0000000  0  9G04G01G26G24G11G28G08G07G17
 120131975.333 7  93609470.14844  22860342.023                    22860356.285
 121123073.893 7  94381678.017 7  23048953.141                    23048965.133
 123644470.203 7  96346370.51444  23528769.742                    23528782.969
 119987335.923 7  93496666.03844  22832827.883                    22832838.367
 125324646.955 6  97655595.73943  23848492.250                    23848500.641
 111792406.250 8  87111025.69845  21273395.828                    21273403.484
 110116460.286 8  85805059.08846  20954470.938                    20954480.910
 121643523.479 7  94787176.666 6  23148008.891                    23148021.320
 109424411.701 8  85265844.138 7  20822761.734                    20822770.430
 11  8 16 20 45 30.0000000  0  9G04G01G26G24G11G28G08G07G17
 120022994.111 7  93524549.87044  22839603.898                    22839618.066
 121192612.503 7  94435863.956 7  23062186.281                    23062198.813
 123704729.586 7  96393325.73344  23540236.125                    23540249.801
 120056758.323 7  93550761.39844  22846038.680                    22846048.965
 125423815.487 6  97732869.89243  23867362.563                    23867371.750
 111778678.430 8  87100328.71945  21270783.391                    21270791.273
 110190750.474 8  85862947.48446  20968607.820                    20968617.883
 121750081.036 7  94870208.327 6  23168285.813                    23168298.660
 109414083.137 7  85257795.927 7  20820796.180                    20820805.180
 11  8 16 20 46  0.0000000  0  9G04G01G26G24G11G28G08G07G17
 119914172.542 7  93439754.00644  22818895.172                    22818909.582
 121262567.431 7  94490374.294 7  23075498.055                    23075510.652
 123765316.235 7  96440535.95344  23551765.789                    23551779.367
 120126618.908 7  93605198.20944  22859332.969                    22859342.965
 125523211.146 7  97810320.99143  23886277.188                    23886286.785
 111765068.769 8  87089723.79645  21268193.617                    21268200.957
 110265538.492 8  85921223.79646  20982839.273                    20982849.805
 121856854.054 6  94953407.883 6  23188603.922                    23188617.102
 109404063.653 8  85249988.558 7  20818889.867                    20818898.703
 11  8 16 20 46 30.0000000  0  9G04G01G26G24G11G28G08G07G17
 119805513.377 7  93355084.67644  22798218.195                    22798232.387
 121332936.406 7  94545207.278 7  23088888.203                    23088900.660
 123826227.078 7  96487998.81644  23563357.273                    23563370.141
 120196915.364 7  93659974.68244  22872709.320                    22872719.504
 125622831.394 6  97887947.14143  23905234.328                    23905243.199
 111751578.882 8  87079212.21045  21265626.430                    21265634.020
 110340822.056 8  85979886.24746  20997165.570                    20997175.863
 121963840.092 7  95036773.398 6  23208962.680                    23208976.586
 109394352.094 8  85242421.134 7  20817041.688                    20817050.445
 11  8 16 20 47  0.0000000  0  9G04G01G26G24G11G28G08G07G17
 119697019.387 7  93270544.05344  22777572.461                    22777585.840
 121403717.089 7  94600361.051 7  23102357.398                    23102370.992
 123887458.864 7  96535711.74244  23575009.469                    23575022.082
 120267645.369 7  93715088.98144  22886168.945                    22886178.527
 125722673.069 6  97965745.90042  23924232.969                    23924242.676
 111738208.810 8  87068793.99145  21263082.305                    21263089.766
 110416598.751 8  86038932.95545  21011584.828                    21011594.992
 122071036.266 7  95120302.652 6  23229361.930                    23229375.488
 109384947.210 8  85235092.682 8  20815251.891                    20815260.406
 11  8 16 20 47 30.0000000  0  9G04G01G26G24G11G28G08G07G17
 119588693.458 7  93186134.35644  22756958.367                    22756972.398
 121474906.917 7  94655833.618 7  23115904.898                    23115917.660
 123949008.260 7  96583672.17844  23586722.398                    23586734.914
 120338806.410 7  93770539.15444  22899710.438                    22899720.281
 125822733.663 6  98043715.14142  23943273.227                    23943283.262
 111724959.839 8  87058470.13645  21260560.805                    21260568.629
 110492866.757 8  86098362.49245  21026098.523                    21026109.035
 122178440.137 7  95203993.755 6  23249800.258                    23249814.133
 109375847.530 8  85228002.040 8  20813520.031                    20813529.008
 11  8 16 20 48  0.0000000  0  9G04G01G26G24G11G28G08G07G17
 119480538.792 7  93101858.14444  22736377.266                    22736391.109
 121546504.137 7  94711623.651 6  23129529.734                    23129541.922
 124010872.633 7  96631878.04544  23598494.688                    23598507.754
 120410396.537 7  93826323.68244  22913333.836                    22913343.289
 125923010.899 6  98121853.21342  23962355.688                    23962365.945
 111711833.816 8  87048242.07445  21258063.164                    21258071.391
 110569624.624 8  86158173.76045  21040704.727                    21040715.543
 122286049.499 7  95287844.986 6  23270278.633                    23270291.258
 109367052.466 7  85221148.769 8  20811846.820                    20811855.148
 11  8 16 20 48 30.0000000  0  9G04G01G26G24G11G28G08G07G17
 119372558.489 7  93017717.78644  22715829.695                    22715843.109
 121618506.762 7  94767729.616 6  23143230.508                    23143242.828
 124073048.767 7  96680326.85143  23610326.250                    23610339.746
 120482413.618 7  93882440.88044  22927037.719                    22927048.309
 126023502.228 6  98200158.09342  23981479.117                    23981489.059
 111698832.022 8  87038110.82145  21255589.281                    21255597.402
 110646870.460 8  86218365.24745  21055404.297                    21055414.809
 122393861.710 7  95371854.283 6  23290794.656                    23290807.770
 109358561.090 8  85214532.136 8  20810230.641                    20810239.734
 11  8 16 20 49  0.0000000  0  9G04G01G26G24G11G28G08G07G17
 119264755.030 7  92933715.26144  22695314.859                    22695328.500
 121690911.732 7  94824149.054 6  23157009.336                    23157021.414
 124135533.303 7  96729015.96144  23622216.188                    23622230.301
 120554855.257 7  93938888.91744  22940822.875                    22940833.539
 126124204.711 6  98278627.58342  24000641.328                    24000651.555
 111685955.255 8  87028076.98645  21253138.586                    21253146.574
 110724601.642 8  86278934.92646  21070196.859                    21070207.090
 122501874.206 7  95456019.644 6  23311348.906                    23311362.223
 109350371.934 8  85208151.003 8  20808672.242                    20808681.117
 11  8 16 20 49 30.0000000  0  9G04G01G26G24G11G28G08G07G17
 119157131.748 7  92849853.10944  22674834.750                    22674848.293
 121763717.309 7  94880880.683 6  23170864.156                    23170876.238
 124198323.318 6  96777943.11343  23634164.750                    23634178.688
 120627719.312 7  93995666.07444  22954688.781                    22954699.371
 126225115.829 5  98357259.51942  24019844.328                    24019854.434
 111673205.169 8  87018141.87245  21250712.180                    21250720.039
 110802816.430 8  86339881.44946  21085080.703                    21085091.148
 122610084.440 7  95540339.084 6  23331940.391                    23331953.785
 109342484.025 8  85202004.603 8  20807171.352                    20807180.078
 11  8 16 20 50  0.0000000  0  9G04G01G26G24G11G28G08G07G17
 119049691.371 7  92766133.52244  22654389.219                    22654402.289
 121836921.017 7  94937922.523 6  23184793.750                    23184806.070
 124261415.564 7  96827105.78044  23646171.008                    23646185.020
 120701003.334 7  94052770.50444  22968634.156                    22968644.746
 126326233.042 6  98436052.10142  24039087.039                    24039096.523
 111660583.129 8  87008306.52946  21248310.445                    21248318.168
 110881512.420 8  86401202.93546  21100056.070                    21100065.988
 122718489.864 7  95624810.618 6  23352569.570                    23352582.656
 109334896.033 8  85196091.899 8  20805727.148                    20805735.707
 11  8 16 20 50 30.0000000  0  9G04G01G26G24G11G28G08G07G17
 118942436.676 7  92682558.62944  22633978.898                    22633992.102
 121910520.471 7  94995272.746 7  23198799.016                    23198811.922
 124324806.552 7  96876501.19244  23658234.102                    23658248.625
 120774704.934 7  94110200.32644  22982659.148                    22982669.875
 126427553.403 6  98515002.92043  24058368.570                    24058377.652
 111648089.982 8  86998571.61946  21245932.898                    21245941.152
 110960687.398 8  86462897.66046  21115122.383                    21115132.945
 122827087.993 7  95709432.303 6  23373235.711                    23373248.953
 109327606.717 7  85190411.941 8  20804340.063                    20804348.645
 11  8 16 20 51  0.0000000  0  9G04G01G26G24G11G28G08G07G17
 118835370.507 7  92599130.65344  22613605.250                    22613618.258
 121984513.147 7  95052929.351 7  23212879.875                    23212892.820
 124388493.246 6  96926127.04344  23670353.406                    23670367.457
 120848821.672 7  94167953.61244  22996762.602                    22996774.227
 126529074.031 6  98594109.89343  24077686.695                    24077695.832
 111635726.890 8  86988938.05446  21243580.531                    21243588.566
 111040338.942 7  86524963.74245  21130279.469                    21130290.012
 122935875.779 7  95794201.745 6  23393936.906                    23393950.785
 109320614.699 8  85184963.639 8  20803009.469                    20803017.914
 11  8 16 20 51 30.0000000  0  9G04G01G26G24G11G28G08G07G17
 118728495.976 7  92515852.00644  22593267.242                    22593280.313
 122058897.006 7  95110890.788 6  23227034.836                    23227047.047
 124452472.636 7  96975980.94144  23682528.398                    23682542.574
 120923351.477 7  94226028.76344  23010946.219                    23010956.871
 126630792.883 6  98673371.29343  24097042.695                    24097052.207
 111623495.557 8  86979407.15746  21241252.742                    21241260.602
 111120465.410 7  86587399.89445  21145526.961                    21145537.453
 123044850.919 7  95879117.203 6  23414674.234                    23414687.863
 109313919.239 8  85179746.415 8  20801735.492                    20801744.230
 11  8 16 20 52  0.0000000  0  9G04G01G26G24G11G28G08G07G17
 118621815.854 7  92432724.84244  22572966.438                    22572979.816
 122133669.693 6  95169155.206 7  23241263.375                    23241275.727
 124516741.406 7  97026060.35344  23694758.516                    23694772.859
 120998291.730 7  94284423.74144  23025206.672                    23025217.332
 126732707.047 6  98752784.86943  24116437.625                    24116446.422
 111611397.074 8  86969979.78046  21238950.578                    21238958.219
 111201064.165 7  86650204.06045  21160864.961                    21160874.965
 123154011.121 7  95964176.866 6  23435446.953                    23435460.770
 109307519.035 8  85174759.259 8  20800517.516                    20800526.074
 11  8 16 20 52 30.0000000  0  9G04G01G26G24G11G28G08G07G17
 118515333.234 7  92349751.58944  22552703.906                    22552716.945
 122208828.664 6  95227720.601 7  23255565.953                    23255578.438
 124581296.362 7  97076362.74144  23707043.656                    23707057.012
 121073640.344 7  94343136.95444  23039544.219                    23039555.535
 126834813.904 6  98832348.60143  24135867.305                    24135876.566
 111599432.762 8  86960656.95546  21236673.500                    21236681.754
 111282133.114 7  86713374.59845  21176291.523                    21176301.727
 123263353.697 6  96049378.625 6  23456255.070                    23456268.836
 109301412.894 8  85170001.245 8  20799355.641                    20799364.234
 11  8 16 20 53  0.0000000  0  9G04G01G26G24G11G28G08G07G17
 118409050.715 7  92266934.26144  22532478.648                    22532492.246
 122284371.572 6  95286585.200 7  23269940.703                    23269953.980
 124646134.461 7  97126885.78744  23719381.703                    23719395.711
 121149394.623 7  94402166.25844  23053960.508                    23053971.141
 126937111.115 6  98912060.70043  24155333.281                    24155343.047
 111587603.584 8  86951439.42246  21234422.766                    21234430.270
 111363670.176 7  86776909.87945  21191807.797                    21191817.609
 123372875.722 6  96134720.250 6  23477095.883                    23477110.340
 109295599.458 8  85165471.314 8  20798249.398                    20798258.199
 11  8 16 20 53 30.0000000  0  9G04G01G26G24G11G28G08G07G17
 118302971.731 7  92184275.56144  22512292.422                    22512305.516
 122360296.350 6  95345747.311 7  23284388.758                    23284401.754
 124711252.524 7  97177626.96744  23731773.375                    23731787.332
 121225552.666 7  94461510.17144  23068452.641                    23068463.402
 127039596.194 6  98991919.15143  24174835.703                    24174845.043
 111575911.503 8  86942328.72546  21232198.188                    21232206.074
 111445673.434 8  86840808.45145  21207412.961                    21207422.633
 123482575.001 6  96220199.988 6  23497970.992                    23497985.230
 109290078.030 8  85161168.934 8  20797198.789                    20797207.363
 11  8 16 20 54  0.0000000  0  9G04G01G26G24G11G28G08G07G17
 118197099.160 7  92101777.68444  22492144.781                    22492158.480
 122436600.631 6  95405205.167 7  23298908.797                    23298921.438
 124776647.388 7  97228583.82344  23744217.867                    23744231.664
 121302111.912 7  94521166.71343  23083021.648                    23083032.223
 127142266.339 6  99071921.85343  24194373.258                    24194382.395
 111564357.623 8  86933325.72046  21229999.477                    21230007.258
 111528140.571 7  86905068.48145  21223105.344                    21223115.699
 123592449.011 7  96305815.875 6  23518879.500                    23518893.309
 109284847.147 8  85157092.934 8  20796203.438                    20796211.930
 11  8 16 20 54 30.0000000  0  9G04G01G26G24G11G28G08G07G17
 118091435.791 7  92019442.83344  22472038.055                    22472050.875
 122513282.215 6  95464957.025 7  23313500.758                    23313513.797
 124842315.877 7  97279753.90144  23756714.141                    23756728.637
 121379069.917 7  94581133.99043  23097665.758                    23097675.828
 127245119.020 6  99152066.72742  24213944.891                    24213954.152
 111552943.295 8  86924431.44746  21227827.086                    21227835.246
 111611069.014 7  86969687.96945  21238886.180                    21238896.273
 123702495.207 7  96391565.904 6  23539821.367                    23539834.340
 109279905.698 8  85153242.475 8  20795263.242                    20795271.566
 11  8 16 20 55  0.0000000  0  9G04G01G26G24G11G28G08G07G17
 117985984.724 7  91937273.41044  22451971.148                    22451983.715
 122590338.584 6  95525000.903 7  23328163.992                    23328177.676
 124908254.764 7  97331134.68144  23769262.172                    23769276.617
 121456424.378 6  94641410.19843  23112386.078                    23112396.059
 127348151.740 6  99232351.87042  24233552.422                    24233561.016
 111541670.003 8  86915647.08546  21225681.906                    21225689.875
 111694456.594 7  87034665.24845  21254754.492                    21254765.172
 123812711.186 7  96477448.240 6  23560794.805                    23560807.578
 109275252.802 8  85149616.862 8  20794377.531                    20794386.086
 11  8 16 20 55 30.0000000  0  9G04G01G26G24G11G28G08G07G17
 117880748.532 7  91855271.42444  22431945.461                    22431957.703
 122667767.283 6  95585334.940 6  23342898.813                    23342911.375
 124974460.720 7  97382723.56744  23781860.602                    23781875.676
 121534172.866 6  94701993.41543  23127181.320                    23127191.957
 127451361.892 6  99312775.27742  24253193.164                    24253201.055
 111530538.693 8  86906973.35846  21223563.703                    21223571.660
 111778300.850 7  87099998.38345  21270709.367                    21270720.184
 123923094.329 7  96563460.832 5  23581800.867                    23581813.184
 109270887.278 8  85146215.186 8  20793546.797                    20793555.398
 11  8 16 20 56  0.0000000  0  9G04G01G26G24G11G28G08G07G17
 117775730.501 7  91773439.45144  22411960.234                    22411972.914
 122745565.791 7  95645957.158 6  23357703.688                    23357715.457
 125040930.838 7  97434518.29544  23794509.156                    23794524.129
 121612313.195 6  94762881.97743  23142050.703                    23142061.250
 127554746.768 6  99393334.83042  24272866.047                    24272874.941
 111519551.221 8  86898411.70846  21221473.172                    21221480.652
 111862600.028 7  87165685.99145  21286750.914                    21286761.508
 124033641.861 7  96649601.518 6  23602836.773                    23602850.418
 109266807.317 8  85143036.010 8  20792770.102                    20792778.629
 11  8 16 20 56 30.0000000  0  9G04G01G26G24G11G28G08G07G17
 117670933.361 7  91691779.57644  22392017.969                    22392030.676
 122823731.809 7  95706865.764 6  23372577.875                    23372590.176
 125107661.599 7  97486516.13643  23807207.703                    23807222.785
 121690842.526 6  94824073.65843  23156993.844                    23157005.176
 127658303.823 6  99474028.64842  24292572.141                    24292581.227
 111508708.395 8  86889962.77046  21219409.461                    21219417.078
 111947351.314 8  87231725.88245  21302878.586                    21302888.930
 124144351.104 7  96735868.225 6  23623904.289                    23623918.426
 109263012.023 8  85140078.662 8  20792048.000                    20792056.672
 11  8 16 20 57  0.0000000  0  9G04G01G26G24G11G28G08G07G17
 117566359.912 7  91610294.00144  22372118.188                    22372131.184
 122902262.824 7  95768058.728 6  23387522.688                    23387534.020
 125174649.835 7  97538714.59244  23819955.617                    23819970.648
 121769758.214 6  94885566.38243  23172011.180                    23172022.590
 127762030.450 6  99554854.50642  24312311.211                    24312319.672
 111498011.430 8  86881627.48246  21217373.930                    21217381.563
 112032552.125 8  87298116.03345  21319092.398                    21319102.402
 124255219.388 6  96822258.866 6  23645001.633                    23645016.820
 109259500.111 8  85137342.133 8  20791379.766                    20791388.270
 11  8 16 20 57 30.0000000  0  9G04G01G26G24G11G28G08G07G17
 117462013.184 7  91528985.08244  22352261.703                    22352274.777
 122981156.358 7  95829534.185 6  23402535.172                    23402547.008
 125241892.416 7  97591111.22644  23832751.492                    23832766.531
 121849058.243 6  94947358.56743  23187101.227                    23187112.910
 127865924.086 6  99635810.56142  24332081.023                    24332089.910
 111487462.105 8  86873407.23046  21215366.594                    21215374.125
 112118200.681 8  87364855.07445  21335390.672                    21335400.613
 124366244.410 6  96908771.629 6  23666129.430                    23666144.488
 109256270.402 8  85134825.505 8  20790765.008                    20790773.660
 11  8 16 20 58  0.0000000  0  9G04G01G26G24G11G28G08G07G17
 117357896.169 7  91447855.16144  22332448.492                    22332461.891
 123060410.331 7  95891290.517 6  23417616.789                    23417628.980
 125309385.989 7  97643703.44544  23845595.633                    23845609.988
 121928740.318 6  95009448.45144  23202264.852                    23202276.102
 127969982.117 6  99716894.72152  24351882.898                    24351891.813
 111477061.750 8  86865303.07346  21213387.258                    21213395.391
 112204294.467 8  87431941.04645  21351774.117                    21351784.273
 124477423.845 6  96995404.683 6  23687286.375                    23687300.977
 109253321.570 8  85132527.746 8  20790204.164                    20790212.691
 11  8 16 20 58 30.0000000  0  9G04G01G26G24G11G28G08G07G17
 117254011.559 7  91366906.32744  22312680.398                    22312692.707
 123140021.916 6  95953325.488 6  23432765.633                    23432778.535
 125377127.339 7  97696488.74844  23858486.180                    23858501.102
 122008801.682 7  95071833.92643  23217500.750                    23217510.656
 128074202.116 6  99798105.09942  24371715.109                    24371724.094
 111466811.580 8  86857315.93446  21211436.938                    21211444.871
 112290830.767 7  87499371.83845  21368240.945                    21368251.914
 124588754.616 7  97082155.675 6  23708472.055                    23708486.313
 109250652.490 8  85130447.970 8  20789696.180                    20789704.406
 11  8 16 20 59  0.0000000  0  9G04G01G26G24G11G28G08G07G17
 117150362.265 7  91286140.84445  22292955.836                    22292968.090
 123219988.925 7  96015637.415 7  23447983.125                    23447995.898
 125445113.201 7  97749464.55043  23871423.992                    23871438.273
 122089239.995 7  95134513.14544  23232806.828                    23232817.633
 128178581.537 6  99879439.71543  24391577.805                    24391587.086
 111456712.783 8  86849446.75146  21209514.883                    21209522.867
 112377807.370 7  87567145.73745  21384792.273                    21384802.496
 124700234.269 6  97169022.642 6  23729686.703                    23729700.266
 109248262.060 8  85128585.322 8  20789240.992                    20789249.773
 11  8 16 20 59 30.0000000  0  9G04G01G26G24G11G28G08G07G17
 117046951.476 7  91205561.23244  22273277.117                    22273289.730
 123300308.764 7  96078224.281 7  23463268.172                    23463280.832
 125513340.724 7  97802628.65644  23884407.539                    23884422.039
 122170052.625 7  95197483.99044  23248185.414                    23248195.875
 128283117.672 6  99960896.41143  24411470.180                    24411480.344
 111446767.161 8  86841696.92046  21207622.609                    21207630.004
 112465221.873 7  87635260.86245  21401426.391                    21401437.680
 124811860.157 7  97256003.543 6  23750928.047                    23750942.625
 109246149.254 8  85126939.004 8  20788838.875                    20788847.609
 11  8 16 21  0  0.0000000  0  9G04G01G26G24G11G28G08G07G17
 116943781.988 7  91125169.62845  22253644.570                    22253657.129
 123380979.071 7  96141084.250 7  23478619.234                    23478630.945
 125581806.176 7  97855978.19443  23897436.320                    23897450.254
 122251236.943 7  95260744.46543  23263634.133                    23263644.730
 128387808.193 6 100042473.40143  24431392.875                    24431402.492
 111436975.875 8  86834067.35646  21205759.406                    21205766.949
 112553072.008 7  87703715.44045  21418143.836                    21418155.086
 124923630.164 6  97343096.773 6  23772197.992                    23772211.582
 109244312.354 8  85125507.681 8  20788489.570                    20788497.832
 11  8 16 21  0 30.0000000  0  9G04G01G26G24G11G28G08G07G17
 116840856.321 7  91044968.03144  22234058.547                    22234070.730
 123461997.220 7  96204215.249 7  23494036.281                    23494048.512
 125650506.234 7  97909510.49543  23910509.672                    23910523.316
 122332790.463 7  95324292.67143  23279152.969                    23279163.422
 128492650.491 6 100124168.63743  24451343.898                    24451353.574
 111427339.995 8  86826558.89246  21203925.328                    21203933.141
 112641354.879 7  87772507.21545  21434943.766                    21434954.578
 125035540.818 6  97430299.594 6  23793493.992                    23793507.887
 109242749.556 8  85124289.943 8  20788192.117                    20788200.688
 11  8 16 21  1  0.0000000  0 10G04G20G01G26G24G11G28G08G07G17
 116738177.629 7  90964958.88644  22214518.945                    22214531.348
 129385808.69016 100819988.72053  24621259.477                    24621271.879
 123543360.736 7  96267615.363 7  23509520.055                    23509532.223
 125719437.820 7  97963223.24643  23923626.953                    23923640.941
 122414710.818 7  95388126.69343  23294742.359                    23294751.738
 128597641.756 6 100205979.94643  24471322.859                    24471332.484
 111417860.844 8  86819172.54546  21202121.781                    21202129.488
 112730068.168 8  87841634.36945  21451825.742                    21451836.000
 125147589.704 7  97517610.119 6  23814815.953                    23814831.125
 109241460.357 8  85123285.395 8  20787946.563                    20787955.438
 11  8 16 21  1 30.0000000  0 10G04G20G01G26G24G11G28G08G07G17
 116635748.592 7  90885144.27745  22195027.195                    22195039.484
 129342027.943 6 100785873.93943  24612928.891                    24612940.926
 123625066.821 7  96331282.425 7  23525067.813                    23525080.250
 125788597.719 7  98017113.89643  23936787.750                    23936802.238
 122496995.476 7  95452244.60243  23310400.313                    23310409.766
 128702779.187 6 100287905.15142  24491330.633                    24491339.941
 111408540.043 8  86811909.60146  21200347.813                    21200355.441
 112819209.301 8  87911094.89945  21468788.648                    21468799.063
 125259774.250 7  97605026.367 6  23836163.914                    23836179.309
 109240443.522 8  85122493.070 8  20787753.320                    20787761.820
 11  8 16 21  2  0.0000000  0 10G04G20G01G26G24G11G28G08G07G17
 116533572.513 7  90805526.75545  22175583.688                    22175595.934
 129298487.623 6 100751946.52543  24604643.195                    24604654.895
 123707113.577 7  96395214.947 7  23540680.555                    23540693.297
 125857982.766 7  98071179.98843  23949991.055                    23950005.598
 122579641.994 7  95516644.45243  23326127.977                    23326137.734
 128808060.821 6 100369942.72542  24511364.617                    24511374.211
 111399379.126 8  86804771.23346  21198604.867                    21198612.488
 112908776.028 7  87980887.06445  21485832.680                    21485842.867
 125372092.355 7  97692546.690 6  23857537.734                    23857552.875
 109239697.846 8  85121912.037 8  20787611.547                    20787619.906
 11  8 16 21  2 30.0000000  0 10G04G20G01G26G24G11G28G08G07G17
 116431652.315 7  90726108.62645  22156189.039                    22156201.051
 129255190.580 6 100718208.64942  24596403.953                    24596416.121
 123789498.509 7  96459410.964 7  23556357.477                    23556369.980
 125927589.770 7  98125419.00443  23963237.047                    23963252.094
 122662648.013 7  95581324.39743  23341923.531                    23341933.809
 128913484.260 6 100452090.76542  24531425.734                    24531435.348
 111390379.323 8  86797758.40846  21196891.867                    21196899.805
 112998765.674 7  88051008.78445  21502957.188                    21502967.367
 125484541.476 7  97780169.093 6  23878936.047                    23878951.727
 109239222.114 8  85121541.349 8  20787520.641                    20787528.902
 11  8 16 21  3  0.0000000  0  9G04G20G01G26G24G28G08G07G17
 116329990.608 7  90646891.90745  22136842.938                    22136855.449
 129212139.193 6 100684662.24443  24588210.797                    24588223.441
 123872219.109 7  96523868.565 6  23572098.789                    23572111.523
 125997415.552 6  98179828.51243  23976524.531                    23976539.430
 122746010.866 7  95646282.46343  23357787.102                    23357796.773
 111381542.424 8  86790872.52846  21195210.063                    21195218.125
 113089175.813 7  88121458.15945  21520161.547                    21520172.152
 125597118.801 7  97867891.365 6  23900359.266                    23900374.969
 109239015.158 8  85121380.113 8  20787481.594                    20787490.020
 11  8 16 21  3 30.0000000  0  9G04G20G01G26G24G28G08G07G17
 116228590.413 7  90567878.95945  22117547.234                    22117559.160
 129169336.188 6 100651309.32143  24580066.188                    24580078.176
 123955272.813 7  96588585.729 6  23587903.094                    23587915.418
 126067456.693 6  98234405.84743  23989852.008                    23989868.016
 122829727.912 7  95711516.53843  23373717.719                    23373727.582
 111372869.371 8  86784114.31346  21193560.180                    21193567.902
 113180003.699 7  88192233.04945  21537445.859                    21537456.293
 125709821.419 7  97955711.282 6  23921806.383                    23921820.758
 109239075.456 8  85121427.106 8  20787493.102                    20787501.414
 11  8 16 21  4  0.0000000  0  9G04G20G01G26G24G28G08G07G17
 116127454.432 7  90489071.89845  22098301.883                    22098313.980
 129126784.304 6 100618152.11942  24571968.008                    24571979.867
 124038656.916 6  96653560.344 6  23603771.188                    23603783.465
 126137709.684 7  98289148.28643  24003221.695                    24003236.859
 122913796.697 7  95777024.65244  23389715.281                    23389725.957
 111364361.499 8  86777484.81546  21191941.234                    21191948.938
 113271246.894 7  88263331.56245  21554808.633                    21554820.000
 125822646.922 7  98043626.946 6  23943277.125                    23943290.941
 109239401.612 8  85121681.278 8  20787555.023                    20787563.250
 11  8 16 21  4 30.0000000  0  9G04G20G01G26G24G28G08G07G17
 116026586.055 7  90410473.35245  22079106.742                    22079118.602
 129084485.961 6 100585192.45742  24563917.141                    24563930.578
 124122369.086 7  96718790.567 6  23619700.719                    23619713.219
 126208171.857 7  98344053.68243  24016630.820                    24016645.742
 122998214.900 7  95842805.03044  23405779.211                    23405790.453
 111356020.930 8  86770985.68046  21190354.000                    21190361.441
 113362903.285 7  88334752.02245  21572250.453                    21572261.238
 125935592.955 6  98131636.507 6  23964770.086                    23964784.777
 109239992.796 8  85122141.957 7  20787667.359                    20787675.836
 11  8 16 21  5  0.0000000  0  9G04G20G01G26G24G28G08G07G17
 115925987.709 7  90332085.22245  22059963.656                    22059975.309
 129042443.732 6 100552432.37642  24555917.828                    24555930.809
 124206406.811 6  96784274.447 6  23635692.359                    23635705.508
 126278839.651 7  98399119.31643  24030078.219                    24030093.281
 123082979.892 7  95908855.64944  23421909.938                    23421920.789
 111347848.351 8  86764617.45146  21188798.867                    21188806.297
 113454970.104 7  88406492.31145  21589770.586                    21589781.023
 126048656.826 6  98219737.891 6  23986284.938                    23986300.520
 109240847.407 8  85122807.913 7  20787830.078                    20787838.332
 11  8 16 21  5 30.0000000  0  9G04G20G01G26G24G28G08G07G17
 115825662.298 7  90253909.76245  22040872.156                    22040883.520
 129000660.370 6 100519874.02842  24547967.188                    24547979.484
 124290767.501 7  96850010.040 6  23651745.719                    23651758.324
 126349709.890 7  98454342.72443  24043563.914                    24043579.402
 123168088.811 7  95975174.28644  23438105.453                    23438116.891
 111339845.326 8  86758381.34046  21187275.750                    21187283.379
 113547444.327 7  88478550.04345  21607367.750                    21607378.570
 126161835.704 6  98307928.899 6  24007822.078                    24007837.566
 109241964.149 8  85123678.125 7  20788042.461                    20788050.762
 11  8 16 21  6  0.0000000  0  9G04G20G01G26G24G28G08G07G17
 115725612.757 7  90175949.27245  22021833.039                    22021844.387
 128959138.496 6 100487519.41242  24540065.047                    24540078.250
 124375448.781 7  96915995.445 7  23667860.367                    23667872.660
 126420779.301 7  98509721.26043  24057088.781                    24057103.359
 123253539.136 6  96041758.91343  23454365.742                    23454377.656
 111332013.344 8  86752278.51346  21185785.461                    21185793.000
 113640323.594 7  88550923.41445  21625041.672                    21625052.570
 126275127.206 6  98396207.652 6  24029381.188                    24029397.102
 109243341.963 8  85124751.782 7  20788304.641                    20788312.934
 11  8 16 21  6 30.0000000  0  9G04G20G01G26G24G28G08G07G17
 115625842.088 7  90098206.06845  22002847.047                    22002858.805
 128917880.686 5 100455370.53042  24532214.781                    24532227.035
 124460448.005 7  96982228.570 7  23684036.031                    23684047.910
 126492044.439 7  98565252.36943  24070650.266                    24070664.164
 123339328.346 6  96108607.61143  23470691.484                    23470702.629
 111324353.807 8  86746310.05446  21184327.797                    21184335.707
 113733604.883 7  88623610.04845  21642792.398                    21642804.063
 126388529.050 6  98484572.397 6  24050961.000                    24050977.441
 109244979.687 8  85126027.948 7  20788616.359                    20788624.762
 11  8 16 21  7  0.0000000  0  9G04G20G01G26G24G28G08G07G17
 115526352.948 7  90020682.24745  21983914.672                    21983926.281
 128876889.491 5 100423429.42642  24524415.086                    24524426.770
 124545762.596 7  97048707.444 7  23700270.586                    23700283.199
 126563502.198 7  98620933.56143  24084248.445                    24084262.504
 123425453.744 6  96175718.31743  23487080.000                    23487091.465
 111316868.170 8  86740477.10446  21182903.781                    21182911.203
 113827285.861 7  88696608.12045  21660619.383                    21660631.152
 126502038.163 6  98573020.702 6  24072561.695                    24072578.289
 109246875.971 8  85127505.601 7  20788977.148                    20788985.535
 11  8 16 21  7 30.0000000  0  9G04G20G01G26G24G28G08G07G17
 115427148.297 7  89943380.09045  21965036.656                    21965048.309
 128836167.494 6 100391698.06242  24516665.148                    24516677.230
 124631389.996 7  97115430.068 7  23716564.906                    23716577.398
 126635149.279 7  98676762.25943  24097882.648                    24097896.832
 123511912.927 6  96243089.10643  23503532.578                    23503544.320
 111309557.883 8  86734780.78646  21181512.586                    21181520.109
 113921363.971 7  88769915.64845  21678522.508                    21678533.391
 126615651.870 6  98661550.519 6  24094181.953                    24094198.676
 109249029.285 8  85129183.548 7  20789386.805                    20789395.281
 11  8 16 21  8  0.0000000  0  9G04G20G01G26G24G28G08G07G17
 115328230.869 7  89866301.76345  21946212.922                    21946225.113
 128795717.119 6 100360178.34742  24508967.508                    24508979.652
 124717327.568 7  97182394.399 7  23732918.125                    23732931.066
 126706982.629 7  98732736.10143  24111552.750                    24111566.824
 123598703.224 6  96310717.87343  23520048.047                    23520059.973
 111302424.252 8  86729222.12446  21180154.617                    21180162.316
 114015836.671 7  88843530.63745  21696500.313                    21696511.660
 126729367.723 6  98750159.958 6  24115822.008                    24115838.109
 109251438.567 8  85131060.940 7  20789845.375                    20789853.699
 11  8 16 21  8 30.0000000  0  9G04G20G01G26G24G28G08G07G17
 115229603.633 7  89789449.53145  21927444.875                    21927456.652
 128755541.400 5 100328872.57342  24501321.398                    24501334.555
 124803573.242 6  97249598.814 7  23749329.750                    23749342.980
 126778998.692 7  98788852.29344  24125256.477                    24125271.527
 123685822.227 6  96378602.71542  23536625.750                    23536637.305
 111295468.934 8  86723802.40646  21178831.172                    21178838.805
 114110701.063 7  88917450.84345  21714552.320                    21714563.148
 126843183.106 7  98838846.934 6  24137480.477                    24137496.523
 109254102.707 8  85133136.917 7  20790352.477                    20790360.629
 11  8 16 21  9  0.0000000  0  9G04G20G01G26G24G28G08G07G17
 115131269.475 7  89712825.68145  21908732.336                    21908744.051
 128715642.628 5 100297782.86942  24493729.719                    24493742.023
 124890124.107 6  97317041.015 7  23765799.203                    23765813.348
 126851194.420 7  98845108.50043  24138995.422                    24139010.293
 123773267.082 6  96446741.58343  23553267.133                    23553277.199
 111288693.259 8  86718522.67746  21177542.039                    21177550.078
 114205954.964 7  88991674.56645  21732678.461                    21732689.891
 126957095.613 7  98927609.598 6  24159157.961                    24159173.086
 109257020.073 8  85135410.231 7  20790907.563                    20790915.648
 11  8 16 21  9 30.0000000  0  9G04G20G01G26G24G28G08G07G17
 115033230.897 8  89636432.15045  21890076.234                    21890087.363
 128676023.196 6 100266910.61642  24486190.688                    24486202.203
 124976977.862 6  97384719.242 7  23782327.781                    23782340.742
 126923566.349 7  98901502.00044  24152767.125                    24152782.797
 123861035.376 6  96515132.46243  23569969.477                    23569979.652
 111282098.378 8  86713383.81946  21176286.664                    21176294.543
 114301595.245 7  89066199.36245  21750878.539                    21750890.141
 127071102.479 6  99016445.768 5  24180852.617                    24180867.945
 109260189.447 8  85137879.892 7  20791510.523                    20791518.531
 11  8 16 21 10  0.0000000  0  9G04G20G01G26G24G28G08G07G17
 114935491.079 7  89560271.41145  21871476.469                    21871487.844
 128636685.818 6 100236258.20042  24478705.180                    24478716.645
 125064131.614 6  97452631.242 7  23798911.758                    23798925.539
 126996111.389 6  98958030.40643  24166571.336                    24166587.938
 123949124.293 7  96583773.17443  23586731.336                    23586742.504
 111275686.067 8  86708387.22646  21175066.461                    21175074.289
 114397619.251 7  89141023.15745  21769150.617                    21769162.289
 127185201.243 6  99105353.508 5  24202564.984                    24202580.293
 109263609.761 8  85140545.102 7  20792161.227                    20792169.539
 11  8 16 21 10 30.0000000  0  9G04G20G01G26G24G28G08G07G17
 114838053.074 7  89484345.83345  21852934.945                    21852945.984
 128597633.346 5 100205827.79342  24471273.164                    24471284.840
 125151583.219 6  97520775.310 7  23815553.242                    23815567.367
 127068826.564 6  99014691.36043  24180409.008                    24180425.816
 124037531.604 7  96652661.94643  23603555.781                    23603565.203
 111269458.051 8  86703534.23746  21173881.328                    21173889.051
 114494024.688 7  89216144.18345  21787496.078                    21787507.441
 127299389.522 6  99194331.036 5  24224295.102                    24224309.816
 109267280.027 8  85143405.068 7  20792859.906                    20792868.207
 11  8 16 21 11  0.0000000  0  9G04G20G01G26G24G28G08G07G17
 114740919.413 8  89408657.41745  21834450.469                    21834461.977
 128558867.753 6 100175620.96242  24463896.688                    24463908.434
 125239329.831 6  97589149.276 6  23832251.750                    23832264.109
 127141708.316 6  99071482.09543  24194278.008                    24194294.633
 124126254.478 7  96721796.63543  23620438.641                    23620448.730
 111263415.448 8  86698825.72146  21172731.625                    21172739.258
 114590808.269 7  89291559.83745  21805913.719                    21805924.273
 127413664.457 6  99283376.046 5  24246040.797                    24246056.758
 109271198.564 7  85146458.500 7  20793605.477                    20793614.074
 11  8 16 21 11 30.0000000  0  9G04G20G01G26G24G28G08G07G17
 114644092.844 7  89333208.28245  21816025.570                    21816036.680
 128520391.817 6 100145639.86542  24456574.797                    24456586.180
 125327368.921 6  97657751.159 6  23849005.563                    23849017.605
 127214753.419 6  99128400.14743  24208178.586                    24208195.023
 124215290.248 7  96791175.16543  23637381.680                    23637391.492
 111257559.548 8  86694262.68846  21171617.055                    21171625.137
 114687967.480 7  89367268.18645  21824402.695                    21824413.727
 127528023.371 6  99372486.512 5  24267802.250                    24267818.578
 109275364.044 8  85149704.348 7  20794398.031                    20794406.309
 11  8 16 21 12  0.0000000  0  9G04G20G01G26G24G28G08G07G17
 114547575.984 7  89258000.46345  21797658.477                    21797669.945
 128482208.002 6 100115886.36642  24449308.023                    24449319.605
 125415697.919 6  97726578.943 6  23865812.445                    23865825.598
 127287958.504 6  99185442.81543  24222109.148                    24222125.391
 124304636.237 7  96860795.41343  23654383.281                    23654393.605
 111251891.717 8  86689846.20046  21170538.836                    21170546.668
 114785499.419 7  89443266.97445  21842962.875                    21842973.773
 127642463.599 6  99461660.366 6  24289580.477                    24289596.914
 109279774.660 8  85153141.219 7  20795237.258                    20795245.414
 11  8 16 21 12 30.0000000  0  9G04G20G01G26G24G28G08G07G17
 114451371.931 7  89183036.39845  21779351.203                    21779362.613
 128444318.695 6 100086362.32142  24442097.750                    24442109.711
 125504314.398 7  97795630.726 6  23882676.773                    23882688.898
 127361320.453 6  99242607.76743  24236070.352                    24236085.938
 124394289.956 7  96930655.42843  23671443.859                    23671454.422
 111246413.505 8  86685577.46746  21169496.055                    21169504.180
 114883401.363 7  89519554.08545  21861592.961                    21861604.488
 127756982.735 6  99550895.668 6  24311372.844                    24311390.258
 109284430.085 8  85156768.843 7  20796123.281                    20796131.301
 11  8 16 21 13  0.0000000  0  9G04G20G01G26G24G28G08G07G17
 114355483.231 8  89108318.05945  21761103.938                    21761115.820
 128406726.431 6 100057069.77943  24434944.422                    24434956.043
 125593215.629 7  97864904.429 6  23899594.680                    23899606.254
 127434835.889 6  99299892.30043  24250060.172                    24250075.242
 124484248.706 7  97000753.12844  23688562.961                    23688573.352
 111241126.402 8  86681457.64646  21168490.211                    21168498.121
 114981670.529 7  89596127.36745  21880293.102                    21880304.270
 127871578.168 6  99640190.402 6  24333180.016                    24333197.039
 109289328.504 8  85160585.813 7  20797055.453                    20797063.797
 11  8 16 21 13 30.0000000  0  9G04G20G01G26G24G28G08G07G17
 114259913.028 8  89033847.89645  21742917.508                    21742929.152
 128369433.576 6 100028010.48542  24427847.828                    24427859.477
 125682398.793 7  97934397.811 6  23916565.781                    23916577.832
 127508501.738 6  99357294.03143  24264077.852                    24264093.613
 124574510.062 7  97071086.62244  23705738.984                    23705750.277
 111236032.295 8  86677488.21746  21167520.469                    21167528.641
 115080304.196 7  89672984.66745  21899061.953                    21899073.980
 127986247.201 7  99729542.519 6  24355001.320                    24355018.031
 109294468.857 8  85164591.306 7  20798033.555                    20798041.828
 11  8 16 21 14  0.0000000  0  9G04G20G01G26G24G28G08G07G17
 114164663.929 8  88959627.93545  21724792.375                    21724803.180
 128332442.848 6  99999186.63543  24420808.914                    24420820.574
 125771861.812 7  98004109.244 7  23933588.766                    23933602.152
 127582314.701 6  99414810.37543  24278124.406                    24278140.570
 124665071.104 7  97141653.65744  23722972.109                    23722983.039
 111231132.108 8  86673669.89446  21166588.195                    21166596.094
 115179299.734 7  89750123.96345  21917900.406                    21917912.215
 128100987.451 7  99818950.137 6  24376836.039                    24376853.230
 109299849.597 8  85168784.108 7  20799057.297                    20799065.883
 11  8 16 21 14 30.0000000  0  9G04G20G01G26G24G28G08G07G17
 114069738.646 8  88885660.30345  21706728.336                    21706739.191
 128295756.737 6  99970600.16742  24413827.586                    24413839.289
 125861601.870 7  98074036.496 7  23950666.078                    23950679.121
 127656271.519 6  99472438.84043  24292198.234                    24292214.422
 124755929.266 7  97212452.21744  23740261.430                    23740272.363
 111226427.411 8  86670003.89346  21165692.938                    21165700.477
 115278654.071 7  89827542.83345  21936807.109                    21936818.410
 128215796.031 6  99908410.960 6  24398683.023                    24398700.574
 109305469.548 7  85173163.314 7  20800127.016                    20800135.559
 11  8 16 21 15  0.0000000  0  9G04G20G01G26G24G28G08G07G17
 113975140.142 8  88811947.30045  21688727.656                    21688738.184
 128259377.805 6  99942253.09743  24406904.531                    24406915.926
 125951616.385 7  98144177.656 7  23967796.492                    23967808.457
 127730368.860 6  99530176.78643  24306298.250                    24306314.555
 124847082.105 7  97283480.36044  23757606.961                    23757618.746
 111221919.662 8  86666491.36146  21164834.992                    21164842.953
 115378364.766 8  89905239.37545  21955781.555                    21955792.879
 128330670.642 7  99997923.194 6  24420543.891                    24420560.836
 109311327.722 8  85177728.142 7  20801241.758                    20801250.473
 11  8 16 21 15 30.0000000  0  9G04G20G01G26G24G28G08G07G17
 113880871.203 8  88738491.09845  21670788.539                    21670799.086
 128223308.494 6  99914147.23042  24400040.813                    24400052.289
 126041903.134 7  98214530.965 7  23984976.469                    23984988.957
 127804603.838 6  99588022.01843  24320424.672                    24320441.008
 124938526.953 6  97354736.03144  23775008.422                    23775020.063
 111217610.741 8  86663133.75646  21164015.320                    21164022.664
 115478429.234 7  89983211.55345  21974823.523                    21974833.723
 128445608.603 7 100087484.843 6  24442415.406                    24442432.922
 109317422.636 8  85182477.447 7  20802401.523                    20802409.918
 11  8 16 21 16  0.0000000  0  9G04G20G01G26G24G28G08G07G17
 113786934.427 7  88665293.71845  21652912.539                    21652923.223
 128187550.889 6  99886284.28543  24393235.539                    24393247.605
 126132459.158 6  98285094.083 7  24002207.984                    24002221.750
 127878972.932 7  99645971.71043  24334577.258                    24334593.500
 125030260.915 6  97426217.03444  23792464.953                    23792476.320
 111213501.535 8  86659931.77746  21163233.133                    21163240.848
 115578844.146 7  90061456.80745  21993932.055                    21993942.387
 128560607.487 7 100177093.940 6  24464299.703                    24464316.258
 109323752.914 7  85187410.154 7  20803605.852                    20803614.449
 11  8 16 21 16 30.0000000  0  9G04G20G01G26G24G28G08G07G17
 113693332.735 7  88592357.43845  21635100.539                    21635111.750
 128152107.783 6  99858666.40443  24386491.102                    24386503.000
 126223282.413 6  98355865.397 7  24019490.906                    24019504.789
 127953473.125 7  99704023.59043  24348754.531                    24348770.727
 125122281.478 6  97497921.32443  23809975.852                    23809987.902
 111209593.921 8  86656886.88646  21162489.828                    21162497.465
 115679606.929 7  90139973.13145  22013106.742                    22013117.281
 128675664.782 6 100266748.566 6  24486195.508                    24486211.676
 109330317.500 7  85192525.432 7  20804855.180                    20804863.684
 11  8 16 21 17  0.0000000  0  9G04G20G01G26G24G28G08G07G17
 113600068.760 8  88519684.31445  21617352.969                    21617364.230
 128116981.284 6  99831295.17043  24379807.672                    24379819.188
 126314369.366 6  98426842.180 7  24036825.297                    24036838.109
 128028100.974 7  99762174.92543  24362955.898                    24362971.844
 125214585.887 6  97569846.80843  23827541.773                    23827553.160
 111205889.220 8  86654000.11346  21161785.023                    21161792.598
 115780714.399 7  90218758.05145  22032346.203                    22032358.004
 128790777.458 6 100356446.313 6  24508101.063                    24508117.980
 109337114.838 7  85197822.079 7  20806148.859                    20806156.871
 11  8 16 21 17 30.0000000  0  9G04G20G01G26G24G28G08G07G17
 113507145.155 8  88447276.42845  21599670.555                    21599681.684
 128082173.810 6  99804172.58043  24373183.758                    24373195.238
 126405717.909 6  98498022.834 7  24054209.000                    24054221.641
 128102853.337 7  99820423.29243  24377180.375                    24377197.227
 125307171.400 6  97641991.32443  23845159.602                    23845170.977
 111202388.630 8  86651272.37846  21161118.719                    21161126.148
 115882163.838 7  90297809.46944  22051651.414                    22051663.180
 128905943.391 6 100446185.577 6  24530016.586                    24530034.418
 109344143.632 7  85203299.080 7  20807486.141                    20807494.195
 11  8 16 21 18  0.0000000  0  9G04G20G01G26G24G28G08G07G17
 113414564.683 8  88375135.90045  21582052.641                    21582063.504
 128047687.891 6  99777300.52043  24366620.828                    24366632.238
 126497325.428 6  98569405.284 7  24071640.211                    24071653.875
 128177726.804 6  99878766.03343  24391429.117                    24391444.941
 125400035.612 7  97714353.05144  23862831.766                    23862842.680
 111199093.780 8  86648704.96546  21160491.664                    21160499.320
 115983952.650 7  90377125.33345  22071021.703                    22071033.840
 129021159.803 6 100535964.163 6  24551941.219                    24551960.129
 109351402.625 7  85208955.456 7  20808867.484                    20808875.828
 11  8 16 21 18 30.0000000  0  9G04G20G01G26G24G28G08G07G17
 113322330.193 7  88303264.98745  21564500.906                    21564511.992
 128013525.941 6  99750680.97143  24360120.336                    24360131.805
 126589189.768 6  98640987.839 6  24089121.969                    24089134.699
 128252718.281 7  99937200.68543  24405700.258                    24405716.051
 125493175.711 7  97786929.73344  23880555.445                    23880566.750
 111196006.353 8  86646299.17146  21159904.352                    21159911.980
 116086077.773 7  90456703.25545  22090455.688                    22090467.629
 129136424.191 6 100625780.160 6  24573876.117                    24573894.125
 109358890.633 7  85214790.296 7  20810292.727                    20810300.242
 11  8 16 21 19  0.0000000  0  9G04G20G01G26G24G28G08G07G17
 113230445.326 7  88231666.50345  21547015.484                    21547026.457
 127979691.163 6  99724316.33543  24353681.227                    24353692.949
 126681308.642 6  98712768.759 6  24106651.359                    24106664.227
 128327825.558 6  99995725.57843  24419992.570                    24420008.449
 125586590.011 6  97859720.06643  23898331.063                    23898342.777
 111193128.680 8  86644056.83546  21159356.594                    21159364.094
 116188537.104 7  90536541.57845  22109953.266                    22109964.895
 129251734.975 6 100715632.287 6  24595818.195                    24595837.336
 109366607.365 7  85220803.338 7  20811760.805                    20811769.289
 11  8 16 21 19 30.0000000  0  8G04G20G01G26G24G28G08G17
 113138911.953 7  88160341.91245  21529597.289                    21529608.125
 127946185.149 6  99698207.81443  24347304.328                    24347317.152
 126773678.773 6  98784745.475 6  24124229.320                    24124241.539
 128403044.362 6 100054337.38843  24434305.602                    24434322.605
 125680274.878 7  97932721.22343  23916159.266                    23916170.051
 111190461.138 8  86641978.23446  21158848.945                    21158856.543
 116291327.257 7  90616637.67945  22129513.883                    22129524.734
 109374550.501 7  85226992.827 7  20813272.641                    20813280.512
 11  8 16 21 20  0.0000000  0  8G04G20G01G26G24G28G08G17
 113047732.415 7  88089293.03645  21512246.195                    21512257.113
 127913010.002 6  99672357.16543  24340991.516                    24341003.672
 126866297.683 6  98856916.045 7  24141853.914                    24141866.422
 128478371.701 6 100113033.80143  24448640.289                    24448657.344
 125774227.676 7  98005931.18143  23934038.242                    23934048.906
 111188005.334 8  86640064.62246  21158381.609                    21158389.203
 116394445.332 7  90696989.30645  22149136.445                    22149147.730
 109382718.771 7  85233357.736 7  20814826.727                    20814834.859
 11  8 16 21 20 30.0000000  0  8G04G20G01G26G24G28G08G17
 112956909.637 7  88018522.15345  21494963.219                    21494974.215
 127880168.003 6  99646766.13543  24334742.469                    24334754.387
 126959162.550 6  98929278.232 6  24159525.516                    24159538.559
 128553804.241 6 100171812.15443  24462993.875                    24463011.234
 125868445.908 7  98079347.99343  23951966.750                    23951978.410
 111185762.615 8  86638317.05446  21157954.594                    21157962.441
 116497888.248 7  90777594.04645  22168820.734                    22168831.664
 109391110.676 7  85239896.899 7  20816423.641                    20816431.852
 11  8 16 21 21  0.0000000  0  8G04G20G01G26G24G28G08G17
 112866446.197 7  87948031.28345  21477748.805                    21477759.375
 127847661.737 6  99621436.70043  24328556.125                    24328568.230
 127052271.219 6  99001830.405 6  24177243.719                    24177256.402
 128629338.664 6 100230669.88943  24477367.133                    24477384.805
 125962927.090 7  98152969.66543  23969946.227                    23969956.887
 111183734.604 8  86636736.78846  21157568.758                    21157576.434
 116601653.068 7  90858449.62144  22188566.656                    22188578.301
 109399725.200 7  85246609.542 7  20818062.969                    20818070.973
 11  8 16 21 21 30.0000000  0  8G04G20G01G26G24G28G08G17
 112776344.925 7  87877822.61345  21460602.625                    21460613.820
 127815493.603 6  99596370.70943  24322433.719                    24322446.355
 127145621.084 7  99074570.561 6  24195008.078                    24195019.602
 128704972.039 6 100289604.73943  24491760.203                    24491777.750
 126057668.160 7  98226793.86943  23987974.883                    23987985.820
 111181922.845 8  86635325.04346  21157223.836                    21157231.469
 116705737.005 7  90939553.86044  22208373.344                    22208384.867
 109408561.193 7  85253494.750 7  20819744.336                    20819752.426
 11  8 16 21 22  0.0000000  0  8G04G20G01G26G24G28G08G17
 112686608.424 7  87807898.18545  21443526.211                    21443537.570
 127783665.76615  99571569.89853  24316378.125                    24316389.578
 127239209.027 7  99147496.267 6  24212817.313                    24212828.613
 128780700.883 6 100348613.98443  24506171.047                    24506189.094
 126152666.470 7  98300818.50443  24006052.656                    24006063.922
 111180328.651 8  86634082.81446  21156920.406                    21156928.063
 116810136.850 7  91020904.26744  22228239.406                    22228252.277
 109417617.238 7  85260551.425 7  20821467.367                    20821475.945
 11  8 16 21 22 30.0000000  0  8G04G20G01G26G24G28G08G17
 112597239.274 7  87738260.00045  21426520.313                    21426530.941
 127752180.465 6  99547036.02042  24310386.445                    24310398.004
 127333032.513 6  99220605.455 6  24230670.555                    24230683.223
 128856522.077 6 100407695.11143  24520599.242                    24520618.074
 126247919.423 7  98375041.55243  24024178.852                    24024189.371
 111178953.456 8  86633011.24246  21156658.938                    21156666.449
 116914849.936 7  91102498.75845  22248166.461                    22248178.668
 109426891.882 7  85267778.447 7  20823232.539                    20823240.332
 11  8 16 21 23  0.0000000  0  8G04G20G01G26G24G28G08G17
 112508240.036 7  87668910.05545  21409583.664                    21409595.102
 127721040.037 6  99522770.83343  24304460.453                    24304471.711
 127427089.307 7  99293896.416 6  24248568.273                    24248582.043
 128932432.378 6 100466845.69843  24535045.383                    24535064.313
 126343424.389 7  98449461.01743  24042352.617                    24042362.578
 111177798.864 8  86632111.55646  21156439.547                    21156447.152
 117019873.329 7  91184335.04845  22268152.266                    22268164.527
 109436383.833 7  85275174.797 7  20825038.883                    20825046.863
 11  8 16 21 23 30.0000000  0  8G04G20G01G26G24G28G08G17
 112419613.295 7  87599850.36945  21392718.344                    21392729.652
 127690246.324 5  99498775.84542  24298601.266                    24298612.082
 127521376.613 6  99367366.987 6  24266511.680                    24266524.324
 129008428.406 6 100526063.06743  24549507.430                    24549525.809
 126439178.539 6  98524074.62043  24060573.508                    24060584.254
 111176865.962 8  86631384.61846  21156261.945                    21156269.281
 117125203.616 7  91266410.48645  22288195.586                    22288207.883
 109446091.679 7  85282739.381 7  20826886.164                    20826893.953
 11  8 16 21 24  0.0000000  0  8G04G20G01G26G24G28G08G17
 112331361.549 7  87531082.88145  21375924.406                    21375935.563
 127659801.733 6  99475052.89843  24292806.992                    24292818.148
 127615891.430 7  99441014.855 6  24284497.594                    24284509.688
 129084507.022 6 100585344.78244  24563986.492                    24564003.652
 126535179.033 6  98598880.18143  24078841.602                    24078852.750
 111176156.302 7  86630831.64346  21156126.680                    21156134.410
 117230838.113 7  91348722.98044  22308297.734                    22308308.824
 109456014.281 7  85290471.304 7  20828774.711                    20828782.398
 11  8 16 21 24 30.0000000  0  8G04G20G01G26G24G28G08G17
 112243487.526 7  87462609.72545  21359202.711                    21359213.613
 127629708.618 6  99451603.78443  24287080.141                    24287092.016
 127710631.715 6  99514838.448 6  24302525.336                    24302538.254
 129160664.979 7 100644688.35743  24578478.094                    24578496.043
 126631423.545 6  98673875.84643  24097156.383                    24097167.855
 111175671.403 7  86630453.79346  21156034.227                    21156041.539
 117336773.975 7  91431270.28544  22328456.219                    22328467.809
 109466150.519 7  85298369.687 7  20830703.188                    20830711.207
 11  8 16 21 25  0.0000000  0  8G04G20G01G26G24G28G08G17
 112155993.837 7  87394432.95145  21342553.266                    21342563.922
 127599968.946 6  99428430.11942  24281421.789                    24281432.680
 127805594.309 6  99588835.244 6  24320596.555                    24320608.848
 129236899.310 7 100704091.45543  24592985.766                    24593003.426
 126727909.219 6  98749059.48243  24115517.141                    24115528.945
 111175412.656 8  86630252.17646  21155985.281                    21155992.590
 117443008.019 7  91514049.94044  22348672.047                    22348683.680
 109476498.784 7  85306433.292 7  20832672.453                    20832680.664
 11  8 16 21 25 30.0000000  0  8G04G20G01G26G24G28G08G17
 112068883.086 7  87326554.57345  21325976.563                    21325987.207
 127570585.356 6  99405533.87943  24275829.805                    24275841.406
 127900776.993 6  99663003.525 6  24338708.336                    24338721.730
 129313206.907 7 100763551.63243  24607507.266                    24607523.898
 126824633.435 6  98824428.95143  24133923.258                    24133935.008
 111175381.769 7  86630228.11346  21155978.898                    21155986.684
 117549537.391 7  91597059.68944  22368944.016                    22368955.469
 109487057.723 7  85314661.055 7  20834681.547                    20834689.871
 11  8 16 21 26  0.0000000  0  9G04G20G09G01G26G24G28G08G17
 111982157.938 8  87258976.66445  21309473.469                    21309483.820
 127541560.283 6  99382917.03643  24270307.219                    24270317.984
 127092309.47616  99033050.07252  24184872.453                    24184883.023
 127996177.543 6  99737341.563 6  24356863.367                    24356876.191
 129389584.577 7 100823066.42343  24622041.938                    24622057.629
 126921593.447 6  98899982.17443  24152374.492                    24152385.480
 111175580.218 8  86630382.75546  21156016.523                    21156024.594
 117656359.298 7  91680297.39744  22389272.000                    22389283.586
 109497826.556 7  85323052.375 7  20836730.836                    20836739.016
 11  8 16 21 26 30.0000000  0  9G04G20G09G01G26G24G28G08G17
 111895821.494 8  87191701.63045  21293044.227                    21293054.566
 127512895.807 6  99360581.16343  24264851.773                    24264863.180
 126990603.744 6  98953798.82542  24165517.813                    24165528.773
 128091793.595 6  99811847.547 6  24375057.781                    24375071.195
 129466029.513 7 100882633.60844  24636588.953                    24636605.332
 127018787.219 6  98975717.53743  24170869.328                    24170880.848
 111176009.992 7  86630717.64146  21156098.945                    21156106.332
 117763471.456 7  91763761.26544  22409654.977                    22409666.441
 109508804.310 7  85331606.482 7  20838819.797                    20838828.164
 11  8 16 21 27  0.0000000  0  9G04G20G09G01G26G24G28G08G17
 111809876.078 8  87124731.30545  21276688.883                    21276699.074
 127484594.047 6  99338527.89343  24259466.445                    24259477.824
 126889192.458 6  98874777.10942  24146220.063                    24146231.633
 128187622.045 6  99886519.018 6  24393292.633                    24393306.527
 129542538.468 7 100942250.71643  24651148.031                    24651165.051
 127116211.745 6  99051632.70143  24189408.984                    24189420.313
 111176671.938 8  86631233.44446  21156224.859                    21156232.328
 117870870.247 7  91847448.48744  22430092.148                    22430103.793
 109519989.345 7  85340322.121 7  20840948.156                    20840956.324
 11  8 16 21 27 30.0000000  0  9G04G20G09G01G26G24G28G08G17
 111724323.781 8  87058067.28545  21260408.805                    21260419.270
 127456656.954 6  99316758.81943  24254149.258                    24254161.418
 126788078.628 6  98795987.16443  24126979.773                    24126990.301
 128283660.487 6  99961354.141 6  24411568.758                    24411581.824
 129619107.711 7 101001914.80743  24665718.414                    24665735.547
 127213864.282 6  99127725.54844  24207991.734                    24208002.867
 111177567.725 8  86631931.45646  21156395.555                    21156403.117
 117978552.681 7  91931356.74544  22450582.992                    22450595.391
 109531380.146 7  85349198.070 7  20843115.977                    20843123.586
 11  8 16 21 28  0.0000000  0  9G04G20G09G01G26G24G28G08G17
 111639167.545 8  86991711.88945  21244203.820                    21244214.891
 127429086.774 6  99295275.66043  24248903.180                    24248914.449
 126687265.183 6  98717431.30643  24107795.297                    24107806.227
 128379906.207 6 100036350.795 6  24429884.273                    24429896.973
 129695734.413 7 101061623.58843  24680300.031                    24680318.352
 127311742.102 7  99203993.93844  24226618.250                    24226628.777
 111178698.618 8  86632812.66246  21156610.359                    21156618.254
 118086515.574 7  92015483.53544  22471128.414                    22471140.664
 109542975.508 7  85358233.432 7  20845322.406                    20845330.645
 11  8 16 21 28 30.0000000  0  9G04G20G09G01G26G24G28G08G17
 111554409.631 8  86925666.86146  21228075.094                    21228086.082
 127401885.732 6  99274080.10743  24243726.898                    24243738.496
 126586755.249 6  98639111.96143  24088668.609                    24088679.969
 128476356.741 7 100111507.001 6  24448238.539                    24448251.293
 129772415.530 7 101121374.83743  24694892.906                    24694910.254
 127409842.553 6  99280435.82444  24245285.336                    24245296.508
 111180066.051 8  86633878.19346  21156870.836                    21156878.465
 118194756.005 7  92099826.59144  22491725.859                    22491737.711
 109554774.335 7  85367427.348 7  20847567.313                    20847576.152
 11  8 16 21 29  0.0000000  0  9G04G20G09G01G26G24G28G08G17
 111470052.634 8  86859934.24846  21212022.320                    21212032.441
 127375055.839 6  99253173.78043  24238621.570                    24238632.863
 126486551.991 7  98561031.54843  24069600.711                    24069611.215
 128573009.343 7 100186820.693 7  24466630.656                    24466643.680
 129849147.826 7 101181165.93743  24709494.531                    24709512.625
 127508162.863 6  99357048.98944  24263995.516                    24264006.586
 111181671.477 8  86635129.17246  21157175.891                    21157183.574
 118303270.805 7  92184383.41844  22512375.563                    22512387.723
 109566775.192 7  85376778.676 7  20849851.250                    20849859.719
 11  8 16 21 29 30.0000000  0  9G04G20G09G01G26G24G28G08G17
 111386099.300 8  86794516.18246  21196046.414                    21196056.746
 127348599.335 6  99232558.36043  24233587.250                    24233598.008
 126386658.533 7  98483192.55743  24050591.227                    24050602.258
 128669861.668 7 100262289.995 7  24485061.352                    24485073.953
 129925928.375 7 101240994.62843  24724106.125                    24724122.590
 127606700.736 6  99433831.70943  24282746.094                    24282757.652
 111183516.886 8  86636567.14646  21157527.266                    21157535.074
 118412057.286 7  92269151.93844  22533076.820                    22533088.613
 109578977.469 7  85386286.965 7  20852173.516                    20852181.406
 11  8 16 21 30  0.0000000  0  9G04G20G09G01G26G24G28G08G17
 111302551.754 8  86729414.30146  21180147.727                    21180158.152
 127322518.350 6  99212235.65243  24228623.789                    24228635.063
 126287077.692 7  98405597.18643  24031641.883                    24031652.676
 128766910.975 7 100337912.790 6  24503529.695                    24503542.000
 130002753.710 6 101300858.25843  24738725.266                    24738742.480
 127705453.283 6  99510781.70343  24301538.375                    24301549.203
 111185603.110 8  86638192.76846  21157924.305                    21157931.941
 118521112.411 7  92354129.77144  22553829.805                    22553841.184
 109591379.432 7  85395950.848 7  20854532.977                    20854541.355
 11  8 16 21 30 30.0000000  0  9G04G20G09G01G26G24G28G08G17
 111219412.378 8  86664630.47446  21164327.172                    21164336.793
 127296814.650 6  99192206.90243  24223731.742                    24223743.758
 126187812.547 7  98328247.77644  24012751.938                    24012762.926
 128864154.594 7 100413687.010 6  24522033.680                    24522046.832
 130079620.600 6 101360754.29442  24753352.609                    24753369.902
 127804417.912 6  99587896.98243  24320370.414                    24320381.445
 111187931.877 8  86640007.39646  21158367.906                    21158375.219
 118630433.229 7  92439314.64344  22574632.805                    22574644.832
 109603979.266 7  85405768.910 7  20856930.867                    20856938.801
 11  8 16 21 31  0.0000000  0 10G04G20G09G02G01G26G24G28G08G17
 111136683.994 8  86600166.90146  21148584.070                    21148594.348
 127271490.374 6  99172473.79643  24218913.383                    24218924.223
 126088866.173 7  98251146.75644  23993923.117                    23993933.727
 129922537.93717 101238454.58554  24723446.375                    24723466.215
 128961590.064 6 100489610.725 6  24540575.281                    24540588.523
 130156526.284 6 101420680.46942  24767987.609                    24768004.879
 127903591.779 6  99665175.31843  24339242.578                    24339253.922
 111190504.559 8  86642012.07446  21158857.094                    21158864.633
 118740016.753 7  92524704.24444  22595485.992                    22595497.891
 109616776.047 7  85415740.436 7  20859366.008                    20859374.414
 11  8 16 21 31 30.0000000  0 10G04G20G09G02G01G26G24G28G08G17
 111054368.226 8  86536024.83446  21132920.164                    21132930.297
 127246546.914 6  99153037.40943  24214167.047                    24214178.051
 125990240.756 7  98174295.84143  23975155.633                    23975166.746
 129819691.014 7 101158314.82644  24703874.594                    24703894.547
 129059214.320 6 100565681.560 6  24559152.258                    24559165.320
 130233466.786 6 101480633.84942  24782628.484                    24782646.172
 128002971.707 6  99742614.20943  24358153.813                    24358164.750
 111193321.904 8  86644207.39646  21159393.250                    21159401.004
 118849858.929 7  92610295.39244  22616388.148                    22616401.035
 109629767.869 7  85425863.954 7  20861838.547                    20861846.473
 11  8 16 21 32  0.0000000  0 10G04G20G09G02G01G26G24G28G08G17
 110972468.294 8  86472206.78846  21117334.523                    21117344.691
 127221987.155 6  99133900.02443  24209493.117                    24209504.629
 125891940.566 7  98097698.40343  23956449.289                    23956460.367
 129716895.411 7 101078215.03944  24684313.313                    24684332.168
 129157025.140 6 100641897.760 6  24577765.398                    24577777.254
 130310439.67715 101540612.36752  24797275.422                    24797294.504
 128102555.708 6  99820212.08043  24377103.914                    24377115.699
 111196386.149 8  86646595.12446  21159976.367                    21159984.117
 118959957.476 7  92696086.30544  22637339.406                    22637352.133
 109642954.624 7  85436139.360 7  20864347.789                    20864355.965
 11  8 16 21 32 30.0000000  0 10G04G20G09G02G01G26G24G28G08G17
 110890986.829 8  86408714.82246  21101829.211                    21101839.445
 127197813.344 6  99115063.40043  24204893.188                    24204904.383
 125793968.750 7  98021356.77644  23937806.078                    23937816.684
 129614152.996 7 100998156.71344  24664761.805                    24664780.969
 129255020.664 6 100718257.875 6  24596412.883                    24596426.016
 130387442.29015 101600614.13552  24811928.273                    24811947.738
 128202341.392 6  99897967.10343  24396092.234                    24396104.008
 111199698.981 8  86649176.54846  21160606.367                    21160614.434
 119070309.942 7  92782075.08444  22658339.148                    22658351.625
 109656335.180 7  85446565.781 7  20866893.820                    20866902.496
 11  8 16 21 33  0.0000000  0 10G04G20G09G02G01G26G24G28G08G17
 110809926.347 8  86345550.90546  21086404.188                    21086414.254
 127174027.493 6  99096529.09043  24200366.242                    24200377.637
 125696328.177 6  97945273.27443  23919225.781                    23919236.797
 129511465.950 6 100918141.53043  24645220.406                    24645238.945
 129353197.984 6 100794759.639 6  24615095.828                    24615108.031
 130464471.351 5 101660636.47542  24826586.148                    24826606.492
 128302325.890 6  99975877.05143  24415119.180                    24415130.246
 111203261.969 8  86651952.89546  21161284.898                    21161292.359
 119180913.432 7  92868259.46644  22679385.898                    22679398.926
 109669908.197 7  85457142.172 7  20869476.617                    20869484.996
 11  8 16 21 33 30.0000000  0 10G04G20G09G02G01G26G24G28G08G17
 110729288.703 8  86282716.46046  21071059.109                    21071069.047
 127150631.282 6  99078298.35943  24195914.117                    24195925.289
 125599021.784 6  97869450.18843  23900708.719                    23900719.254
 129408836.232 6 100838170.98943  24625690.031                    24625708.867
 129451554.551 6 100871401.075 6  24633812.055                    24633825.066
 130541523.768 5 101720677.09442  24841249.602                    24841269.914
 128402506.686 6 100053939.98843  24434183.078                    24434194.773
 111207076.184 8  86654925.02046  21162010.617                    21162018.535
 119291764.407 7  92954636.67444  22700480.086                    22700492.867
 109683672.181 7  85467867.367 7  20872095.914                    20872104.105
 11  8 16 21 34  0.0000000  0 10G04G20G09G02G01G26G24G28G08G17
 110649077.011 8  86220213.93346  21055794.969                    21055805.688
 127127626.867 6  99060372.92443  24191536.305                    24191547.234
 125502052.745 6  97793889.98843  23882256.289                    23882267.242
 129306265.806 6 100758246.67443  24606171.406                    24606189.707
 129550087.929 6 100948180.298 6  24652562.547                    24652575.199
 130618596.436 5 101780733.44142  24855916.055                    24855936.645
 128502881.196 7 100132153.92243  24453284.250                    24453294.980
 111211143.312 8  86658094.20746  21162784.484                    21162792.148
 119402860.131 7  93041204.58444  22721621.023                    22721633.984
 109697626.210 7  85478740.653 7  20874751.367                    20874759.504
 11  8 16 21 34 30.0000000  0 10G04G20G09G02G01G26G24G28G08G17
 110569293.129 8  86158044.75746  21040612.820                    21040622.961
 127105016.070 6  99042754.23543  24187234.430                    24187244.961
 125405424.071 6  97718595.00943  23863868.047                    23863879.250
 129203756.656 6 100678370.07443  24586663.305                    24586682.184
 129648795.663 6 101025095.389 6  24671346.656                    24671358.367
 130695686.429 6 101840803.31442  24870586.320                    24870606.410
 128603446.498 7 100210516.44143  24472420.742                    24472432.441
 111215464.644 8  86661461.48146  21163607.195                    21163614.574
 119514197.498 7  93127960.82044  22742807.789                    22742820.867
 109711768.816 7  85489760.890 7  20877442.750                    20877450.883
 11  8 16 21 35  0.0000000  0 10G04G20G09G02G01G26G24G28G08G17
 110489939.719 8  86096211.00846  21025511.938                    21025522.336
 127082801.052 6  99025443.90743  24183006.492                    24183017.211
 125309138.607 6  97643567.44343  23845545.797                    23845556.473
 129101310.778 6 100598542.68442  24567168.625                    24567186.859
 129747674.696 6 101102143.949 6  24690162.695                    24690174.797
 130772790.483 6 101900884.12243  24885259.328                    24885279.191
 128704200.195 7 100289025.79043  24491594.414                    24491604.688
 111220041.582 8  86665027.93146  21164477.781                    21164485.469
 119625773.223 7  93214902.76844  22764040.000                    22764053.191
 109726098.753 7  85500927.086 7  20880169.492                    20880177.484
 11  8 16 21 35 30.0000000  0 10G04G20G09G02G01G26G24G28G08G17
 110411019.021 8  86034714.44746  21010493.922                    21010503.914
 127060983.476 6  99008443.30943  24178855.375                    24178865.379
 125213199.428 7  97568809.65043  23827289.516                    23827299.469
 128998930.421 6 100518766.33743  24547685.023                    24547703.988
 129846722.569 6 101179324.074 6  24709010.820                    24709022.934
 130849905.455 6 101960973.44143  24899935.516                    24899953.418
 128805139.586 7 100367679.79043  24510802.164                    24510812.703
 111224875.426 8  86668794.56146  21165397.758                    21165405.250
 119737584.367 7  93302028.17844  22785317.281                    22785330.766
 109740614.719 7  85512238.251 7  20882931.406                    20882939.781
 11  8 16 21 36  0.0000000  0 10G04G20G09G02G01G26G24G28G08G17
 110332533.199 8  85973556.74146  20995558.469                    20995568.469
 127039565.255 6  98991753.87043  24174778.867                    24174789.371
 125117609.490 7  97494324.02843  23809098.633                    23809109.160
 128896617.622 6 100439042.65243  24528215.172                    24528233.336
 129945936.833 6 101256633.860 6  24727890.648                    24727903.102
 130927028.345 6 102021068.88943  24914611.852                    24914630.461
 128906261.969 7 100446476.42943  24530045.125                    24530055.484
 111229967.673 8  86672762.55246  21166366.438                    21166374.473
 119849628.007 7  93389334.74344  22806638.516                    22806652.340
 109755315.484 7  85523693.402 7  20885729.656                    20885736.852
 11  8 16 21 36 30.0000000  0 10G04G20G09G02G01G26G24G28G08G17
 110254484.475 8  85912739.64446  20980706.102                    20980716.492
 127018548.311 6  98975377.08643  24170779.898                    24170789.758
 125022372.170 7  97420113.19143  23790975.383                    23790986.719
 128794374.386 7 100359373.13243  24508759.789                    24508777.133
 130045315.112 6 101334071.447 6  24746801.570                    24746814.504
 131004155.958 7 102081168.05644  24929288.531                    24929307.984
 129007564.537 7 100525413.46443  24549322.148                    24549333.074
 111235319.835 8  86676933.07146  21167384.984                    21167392.945
 119961900.656 7  93476819.77944  22828003.859                    22828017.125
 109770200.077 7  85535291.810 7  20888561.336                    20888569.680
 11  8 16 21 37  0.0000000  0 10G04G20G09G02G01G26G24G28G08G17
 110176875.314 8  85852265.06146  20965938.055                    20965947.762
 126997934.607 6  98959314.53443  24166856.727                    24166867.199
 124927490.223 7  97346179.24844  23772920.469                    23772931.266
 128692202.796 7 100279759.40943  24489316.164                    24489332.953
 130144855.000 6 101411634.947 6  24765743.672                    24765756.734
 131081285.502 6 102141268.70244  24943965.977                    24943984.996
 129109044.790 6 100604488.93843  24568633.133                    24568644.414
 111240933.267 8  86681307.17846  21168453.148                    21168461.090
 120074399.462 7  93564480.98544  22849412.523                    22849425.203
 109785267.144 7  85547032.407 7  20891429.164                    20891436.887
 11  8 16 21 37 30.0000000  0 10G04G20G09G02G01G26G24G28G08G17
 110099708.297 8  85792135.01346  20951253.508                    20951262.898
 126977725.945 6  98943567.54443  24163011.055                    24163021.770
 124832966.712 7  97272524.63344  23754932.984                    23754944.082
 128590104.866 7 100200203.09944  24469887.031                    24469903.871
 130244553.725 6 101489322.215 6  24784715.133                    24784728.297
 131158413.775 6 102201368.35443  24958642.875                    24958662.082
 129210700.225 6 100683700.94043  24587977.813                    24587989.387
 111246809.448 8  86685886.01946  21169571.719                    21169579.418
 120187121.187 7  93652315.92244  22870862.555                    22870875.641
 109800515.324 7  85558914.125 7  20894330.305                    20894338.270
 11  8 16 21 38  0.0000000  0 10G04G20G09G02G01G26G24G28G08G17
 110022985.395 8  85732351.01245  20936653.258                    20936663.000
 126957924.275 6  98928137.72243  24159243.188                    24159254.027
 124738804.384 7  97199151.48544  23737013.977                    23737025.434
 128488082.429 7 100120705.62644  24450472.797                    24450489.309
 130344408.764 6 101567131.300 6  24803716.656                    24803730.195
 131235537.824 6 102261464.71543  24973318.250                    24973338.531
 129312528.247 6 100763047.38343  24607355.336                    24607366.234
 111252949.856 8  86690670.75246  21170739.938                    21170747.305
 120300063.123 7  93740322.44544  22892355.000                    22892367.434
 109815943.481 7  85570936.088 7  20897266.383                    20897274.578
 11  8 16 21 38 30.0000000  0 10G04G20G09G02G01G26G24G28G08G17
 109946709.113 8  85672915.04046  20922138.195                    20922148.184
 126938531.486 6  98913026.50243  24155552.781                    24155562.676
 124645006.511 7  97126062.31944  23719165.883                    23719175.949
 128386137.914 7 100041268.84544  24431072.945                    24431088.910
 130444417.734 6 101645060.312 6  24822748.555                    24822761.543
 131312654.631 6 102321555.42343  24987994.594                    24988013.879
 129414526.323 6 100842526.30743  24626764.609                    24626776.102
 111259356.029 8  86695662.58046  21171958.867                    21171966.840
 120413222.180 7  93828498.14443  22913888.242                    22913901.207
 109831550.586 7  85583097.480 7  20900236.203                    20900244.340
 11  8 16 21 39  0.0000000  0 10G04G20G09G02G01G26G24G28G08G17
 109870880.980 8  85613828.26346  20907708.914                    20907718.355
 126919548.682 6  98898234.77343  24151939.734                    24151950.879
 124551575.542 7  97053259.04344  23701385.859                    23701396.703
 128284272.608 7  99961893.79443  24411687.938                    24411704.824
 130544577.234 6 101723106.622 6  24841807.273                    24841821.320
 131389760.705 6 102381637.79643  25002667.078                    25002686.406
 129516691.339 6 100922135.34343  24646206.773                    24646217.309
 111266028.696 8  86700862.06346  21173228.867                    21173236.523
 120526594.692 7  93916840.18744  22935462.070                    22935476.133
 109847334.825 7  85595396.916 6  20903239.750                    20903247.805
 11  8 16 21 39 30.0000000  0  9G04G20G09G02G01G26G28G08G17
 109795503.983 8  85555093.02446  20893364.898                    20893374.375
 126900978.568 6  98883764.62443  24148406.602                    24148416.660
 124458514.967 7  96980744.41144  23683676.422                    23683687.379
 128182489.378 7  99882582.69544  24392318.578                    24392335.590
 130644885.775 6 101801269.051 6  24860895.656                    24860909.316
 131466853.555 6 102441709.84543  25017338.438                    25017357.117
 111272969.639 8  86706270.58646  21174549.633                    21174557.281
 120640178.282 7  94005346.69344  22957076.789                    22957090.344
 109863295.610 7  85607833.897 6  20906276.852                    20906284.805
 11  8 16 21 40  0.0000000  0  8G04G20G09G02G26G28G08G17
 109720580.535 8  85496711.20046  20879107.398                    20879117.152
 126882822.629 6  98869617.16043  24144951.188                    24144961.813
 124365828.284 6  96908521.13444  23666038.742                    23666049.438
 128080790.256 6  99803337.13244  24372965.258                    24372982.504
 131543930.388 6 102501769.40543  25032006.117                    25032025.578
 111280180.647 8  86711889.55146  21175921.414                    21175929.969
 120753970.074 7  94094015.43644  22978730.516                    22978743.996
 109879431.911 7  85620407.650 6  20909347.211                    20909355.820
 11  8 16 21 40 30.0000000  0  8G04G20G09G02G26G28G08G17
 109646112.538 8  85438684.26946  20864936.906                    20864946.824
 126865082.760 6  98855793.94543  24141575.461                    24141586.289
 124273518.081 6  96836591.20044  23648473.125                    23648483.773
 127979177.215 6  99724158.63344  24353629.680                    24353646.199
 131620987.881 6 102561813.88444  25046669.766                    25046689.441
 111287662.895 8  86717719.88246  21177345.391                    21177353.180
 120867966.813 7  94182843.88544  23000423.945                    23000437.145
 109895742.306 7  85633117.055 6  20912451.539                    20912459.227
 11  8 16 21 41  0.0000000  0  8G04G20G09G02G26G28G08G17
 109572102.341 8  85381014.06246  20850852.617                    20850862.449
 126847760.770 6  98842296.34043  24138279.508                    24138289.793
 124181587.051 6  96764956.75644  23630978.273                    23630990.285
 127877652.345 6  99645048.85843  24334308.984                    24334325.766
 131698023.223 6 102621841.06443  25061329.594                    25061349.156
 111295417.924 8  86723762.76746  21178821.516                    21178829.895
 120982165.396 7  94271829.60644  23022155.469                    23022169.066
 109912225.835 7  85645961.365 6  20915587.758                    20915596.195
 11  8 16 21 41 30.0000000  0  8G04G20G09G02G26G28G08G17
 109498551.902 8  85323702.11346  20836856.422                    20836866.363
 126830858.241 6  98829125.57043  24135063.359                    24135073.621
 124090038.493 6  96693620.30944  23613557.578                    23613568.805
 127776217.485 6  99566009.19143  24315006.031                    24315023.250
 131775033.491 6 102681848.69843  25075983.469                    25076004.469
 111303447.219 8  86730019.35546  21180349.070                    21180357.059
 121096562.816 7  94360970.25344  23043924.820                    23043938.063
 109928881.217 7  85658939.596 6  20918757.977                    20918765.645
 11  8 16 21 42  0.0000000  0  8G04G20G09G02G26G28G08G17
 109425463.061 8  85266749.85246  20822948.375                    20822958.004
 126814377.267 6  98816283.32143  24131926.664                    24131936.613
 123998874.840 6  96622583.78244  23596209.469                    23596220.637
 127674874.565 6  99487041.20943  24295720.633                    24295736.805
 131852015.332 6 102741834.19843  25090633.039                    25090653.395
 111311751.610 8  86736490.30646  21181929.500                    21181937.543
 121211155.844 7  94450263.32044  23065730.867                    23065744.391
 109945706.768 7  85672050.421 6  20921959.477                    20921967.516
 11  8 16 21 42 30.0000000  0  8G04G20G09G02G26G28G08G17
 109352839.150 8  85210159.87346  20809128.195                    20809137.840
 126798319.230 6  98803770.64643  24128870.758                    24128881.199
 123908100.064 7  96551850.25344  23578935.875                    23578946.793
 127573626.512 6  99408147.12343  24276453.813                    24276469.348
 131928966.458 6 102801795.69042  25105277.008                    25105297.363
 111320333.204 8  86743177.26946  21183562.641                    21183569.961
 121325942.160 7  94539707.02043  23087574.156                    23087587.195
 109962702.495 7  85685293.848 6  20925193.313                    20925201.766
 11  8 16 21 43  0.0000000  0  7G04G20G09G02G28G08G17
 109280681.651 8  85153933.33346  20795397.094                    20795406.793
 126782686.005 6  98791588.98143  24125896.102                    24125906.051
 123817716.874 7  96481421.85444  23561736.719                    23561747.406
 127472474.901 6  99329328.17643  24257204.992                    24257220.188
 111329193.188 8  86750081.14846  21185248.484                    21185256.340
 121440918.054 7  94629298.39843  23109453.461                    23109465.988
 109979866.672 8  85698668.526 6  20928459.805                    20928467.785
 11  8 16 21 43 30.0000000  0  7G04G20G09G02G28G08G17
 109208992.584 8  85098071.80346  20781754.930                    20781764.344
 126767479.054 6  98779739.46243  24123001.688                    24123012.641
 123727727.765 7  96411300.53544  23544611.992                    23544622.688
 127371421.361 7  99250585.65043  24237974.555                    24237989.457
 111338332.819 8  86757202.94446  21186987.539                    21186995.609
 121556080.356 7  94719035.03243  23131368.711                    23131380.813
 109997198.016 7  85712173.474 6  20931757.633                    20931765.465
 11  8 16 21 44  0.0000000  0  7G04G20G09G02G28G08G17
 109137773.895 8  85042576.80746  20768202.750                    20768211.715
 126752699.795 6  98768223.17543  24120189.688                    24120200.449
 123638135.636 7  96341488.52744  23527563.547                    23527573.504
 127270467.919 6  99171921.11844  24218763.164                    24218778.805
 111347753.165 8  86764543.47046  21188780.391                    21188788.219
 121671426.015 7  94808914.54843  23153318.695                    23153331.363
 110014695.267 7  85725807.693 6  20935087.703                    20935095.180
 11  8 16 21 44 30.0000000  0  7G04G20G09G02G28G08G17
 109067027.618 8  84987449.92146  20754740.023                    20754749.449
 126738350.012 6  98757041.56943  24117458.609                    24117469.379
 123548943.256 7  96271987.99244  23510590.750                    23510600.828
 127169616.663 6  99093336.25243  24199571.375                    24199587.711
 111357455.547 8  86772103.76046  21190627.039                    21190634.227
 121786951.789 7  94898934.42044  23175302.063                    23175315.625
 110032356.955 7  85739570.052 6  20938448.422                    20938456.063
 11  8 16 21 45  0.0000000  0  7G04G20G09G02G28G08G17
 108996755.949 8  84932692.85246  20741367.523                    20741376.996
 126724431.292 6  98746195.87943  24114810.445                    24114821.207
 123460153.808 7  96202801.47944  23493694.711                    23493705.102
 127068869.759 7  99014832.70744  24180399.469                    24180415.570
 111367441.718 8  86779885.18846  21192527.203                    21192534.879
 121902654.813 7  94989092.43443  23197319.789                    23197333.523
 110050182.419 7  85753460.026 6  20941840.133                    20941848.402
 11  8 16 21 45 30.0000000  0  7G04G20G09G02G28G08G17
 108926960.600 8  84878306.93446  20728085.836                    20728095.023
 126710945.127 6  98735687.22843  24112243.500                    24112254.094
 123371770.180 7  96133931.16844  23476875.539                    23476885.723
 126968228.861 7  98936411.75244  24161248.203                    24161263.699
 111377712.573 8  86787888.44846  21194481.563                    21194489.191
 122018532.075 7  95079386.19444  23219371.367                    23219385.328
 110068170.259 7  85767476.525 6  20945263.297                    20945271.402
 11  8 16 21 46  0.0000000  0  7G04G20G09G02G28G08G17
 108857644.419 8  84824294.40246  20714895.523                    20714905.102
 126697893.498 6  98725517.19043  24109759.688                    24109770.711
 123283795.219 7  96065379.31544  23460134.141                    23460144.676
 126867696.524 6  98858075.38944  24142117.250                    24142132.402
 111388270.190 8  86796115.16146  21196490.688                    21196498.234
 122134580.521 7  95169813.36744  23241453.930                    23241468.273
 110086319.632 7  85781618.893 6  20948716.586                    20948724.949
 11  8 16 21 46 30.0000000  0  7G04G20G09G02G28G08G17
 108788809.083 8  84770656.53946  20701796.406                    20701806.094
 126685277.719 6  98715686.81543  24107359.195                    24107369.871
 123196231.787 7  95997148.12344  23443471.609                    23443482.160
 126767274.724 6  98779825.14644  24123007.117                    24123022.813
 111399115.490 8  86804566.03246  21198554.438                    21198561.941
 122250796.983 7  95260371.46543  23263569.500                    23263583.859
 110104629.356 7  85795886.203 6  20952201.547                    20952209.324
 11  8 16 21 47  0.0000000  0  7G04G20G09G02G28G08G17
 108720456.500 8  84717394.84646  20688788.836                    20688799.102
 126673099.359 6  98706197.29043  24105042.047                    24105051.605
 123109082.969 7  95929240.01444  23426886.820                    23426897.586
 126666965.355 6  98701662.55344  24103918.367                    24103933.566
 111410249.945 8  86813242.22046  21200673.289                    21200681.035
 122367178.316 7  95351058.02043  23285716.180                    23285730.527
 110123098.306 8  85810277.599 6  20955715.734                    20955723.523
 11  8 16 21 47 30.0000000  0  7G04G20G09G02G28G08G17
 108652588.347 8  84664510.63246  20675874.125                    20675884.418
 126661359.672 6  98697049.53943  24102808.125                    24102818.250
 123022351.517 7  95861657.12744  23410382.578                    23410393.129
 126566770.321 6  98623589.01543  24084851.344                    24084866.527
 111421674.517 8  86822144.47746  21202847.266                    21202854.891
 122483721.601 6  95441870.73943  23307893.727                    23307907.750
 110141725.029 8  85824791.940 6  20959260.367                    20959268.199
 11  8 16 21 48  0.0000000  0  7G04G20G09G02G28G08G17
 108585206.959 8  84612005.72046  20663052.016                    20663061.773
 126650060.352 6  98688244.93743  24100657.570                    24100666.977
 122936040.180 7  95794401.62544  23393958.438                    23393968.977
 126466691.346 6  98545605.91243  24065806.508                    24065821.383
 111433390.464 8  86831273.78146  21205076.688                    21205084.254
 122600423.802 7  95532807.26643  23330102.016                    23330115.180
 110160508.675 8  85839428.546 6  20962835.016                    20962842.711
 11  8 16 21 48 30.0000000  0  7G04G20G09G02G28G08G17
 108518314.073 8  84559881.45746  20650322.547                    20650332.281
 126639202.695 6  98679784.47543  24098591.648                    24098601.547
 122850152.051 7  95727475.86644  23377614.242                    23377625.082
 126366730.589 6  98467714.93844  24046783.938                    24046799.652
 111445399.319 8  86840631.32546  21207362.094                    21207369.563
 122717281.770 6  95623865.18543  23352339.219                    23352351.895
 110179448.130 8  85854186.578 6  20966438.797                    20966446.965
 11  8 16 21 49  0.0000000  0  7G04G20G09G02G28G08G17
 108451911.791 8  84508139.48846  20637686.578                    20637696.363
 126628788.367 6  98671669.49043  24096609.711                    24096619.465
 122764689.829 7  95660882.00145  23361351.633                    23361362.277
 126266890.325 7  98389917.80244  24027785.727                    24027799.680
 111457702.798 8  86850218.45646  21209703.219                    21209710.945
 122834292.457 6  95715042.11243  23374605.891                    23374618.359
 110198542.145 8  85869065.038 7  20970072.211                    20970080.078
 11  8 16 21 49 30.0000000  0  7G04G20G09G02G28G08G17
 108386001.885 8  84456781.18646  20625144.281                    20625153.535
 126618818.824 6  98663901.09843  24094712.664                    24094722.176
 122679656.187 7  95594622.09545  23345170.539                    23345181.035
 126167172.362 6  98312215.94143  24008808.906                    24008822.805
 111470301.643 8  86860035.72746  21212100.977                    21212108.234
 122951452.658 6  95806335.58843  23396900.273                    23396914.266
 110217789.706 8  85884063.142 7  20973734.852                    20973742.801
 11  8 16 21 50  0.0000000  0  7G04G20G09G02G28G08G17
 108320586.190 8  84405808.00046  20612696.492                    20612705.707
 126609295.435 6  98656480.29243  24092900.094                    24092910.398
 122595054.055 7  95528698.43544  23329071.203                    23329081.531
 126067578.611 7  98234610.86543  23989856.273                    23989870.344
 111483197.289 8  86870084.28046  21214554.664                    21214562.426
 123068759.528 6  95897743.33043  23419223.672                    23419237.598
 110237189.757 8  85899180.075 7  20977426.227                    20977434.461
 11  8 16 21 50 30.0000000  0  7G04G20G09G02G28G08G17
 108255666.534 8  84355221.32546  20600342.383                    20600351.430
 126600219.491 6  98649408.23043  24091172.922                    24091183.324
 122510886.287 7  95463113.24044  23313054.570                    23313064.848
 125968111.276 7  98157104.25344  23970927.680                    23970942.047
 111496390.921 8  86880365.02946  21217065.508                    21217073.094
 123186209.980 6  95989262.97143  23441573.680                    23441588.473
 110256741.034 8  85914414.830 7  20981147.109                    20981154.969
 11  8 16 21 51  0.0000000  0  7G04G20G09G02G28G08G17
 108191245.082 8  84305022.86346  20588083.586                    20588092.164
 126591592.466 6  98642685.89242  24089531.125                    24089541.293
 122427155.822 7  95397868.78844  23297120.914                    23297131.344
 125868772.454 7  98079697.76444  23952023.789                    23952038.258
 111509884.228 8  86890879.28746  21219632.875                    21219641.137
 123303800.835 6  96080891.97843  23463951.781                    23463965.680
 110276442.744 8  85929766.828 7  20984895.773                    20984903.758
 11  8 16 21 51 30.0000000  0  7G04G20G09G02G28G08G17
 108127323.568 8  84255213.96346  20575919.445                    20575928.891
 126583415.788 6  98636314.51643  24087975.633                    24087984.898
 122343865.257 7  95332967.14444  23281271.281                    23281281.488
 125769563.945 7  98002392.83744  23933145.117                    23933159.086
 111523678.186 8  86901627.83546  21222257.969                    21222265.883
 123421529.078 6  96172628.05843  23486354.891                    23486368.430
 110296293.605 8  85945235.032 7  20988673.734                    20988681.785
 11  8 16 21 52  0.0000000  0  7G04G20G09G02G28G08G17
 108063903.864 8  84205796.07646  20563850.922                    20563860.246
 126575690.972 6  98630295.26843  24086505.523                    24086514.949
 122261017.492 7  95268410.51544  23265505.344                    23265515.180
 125670487.810 7  97925191.02843  23914291.664                    23914305.543
 111537774.233 8  86912611.76146  21224939.836                    21224947.957
 123539391.506 6  96264468.67243  23508782.852                    23508797.105
 110316292.594 8  85960818.667 7  20992479.281                    20992487.203
 11  8 16 21 52 30.0000000  0  7G04G20G09G02G28G08G17
 108000987.673 8  84156770.53946  20551878.672                    20551887.773
 126568419.152 6  98624628.96743  24085121.406                    24085131.063
 122178615.261 7  95204201.03544  23249824.602                    23249835.148
 125571546.006 7  97848093.92344  23895463.664                    23895477.184
 111552173.610 8  86923832.05946  21227680.570                    21227688.379
 123657385.663 6  96356411.94243  23531236.344                    23531250.461
 110336438.975 8  85976517.149 7  20996313.094                    20996321.164
 11  8 16 21 53  0.0000000  0  7G04G20G09G02G28G08G17
 107938576.796 8  84108138.74246  20540001.742                    20540011.508
 126561601.640 6  98619316.69943  24083823.727                    24083833.875
 122096661.443 7  95140341.02044  23234229.258                    23234240.059
 125472740.709 7  97771103.16043  23876660.898                    23876674.133
 111566877.545 8  86935289.65946  21230478.313                    21230486.094
 123775507.792 6  96448454.90343  23553713.828                    23553728.273
 110356731.461 8  85992329.490 7  21000174.523                    21000182.902
 11  8 16 21 53 30.0000000  0  7G04G20G09G02G28G08G17
 107876672.822 8  84059901.93846  20528221.930                    20528231.563
 126555239.790 6  98614359.44543  24082613.406                    24082623.492
 122015158.669 7  95076832.40444  23218720.320                    23218730.578
 125374073.590 7  97694220.09043  23857885.172                    23857897.840
 111581887.217 8  86946985.50346  21233334.563                    21233342.328
 123893755.194 6  96540595.45643  23576215.922                    23576230.473
 110377168.947 8  86008254.804 7  21004063.859                    21004071.727
 11  8 16 21 54  0.0000000  0  7G04G20G09G02G28G08G17
 107815277.788 8  84012061.71046  20516538.547                    20516548.219
 126549334.810 6  98609758.24543  24081489.836                    24081500.422
 121934109.785 7  95013677.49044  23203296.313                    23203307.676
 125275546.810 7  97617446.38843  23839136.289                    23839148.582
 111597204.250 8  86958920.83446  21236249.656                    21236256.840
 124012124.814 6  96632831.27243  23598741.727                    23598756.379
 110397750.413 8  86024292.319 7  21007980.516                    21007988.707
 11  8 16 21 54 30.0000000  0  7G04G20G09G02G28G08G17
 107754393.174 8  83964619.21746  20504952.789                    20504962.301
 126543888.058 6  98605514.09543  24080452.648                    24080463.523
 121853517.410 7  94950878.31944  23187960.742                    23187971.023
 125177162.219 6  97540783.46543  23820413.570                    23820426.281
 111612829.571 8  86971096.39546  21239223.109                    21239230.516
 124130613.565 6  96725159.90743  23621289.258                    23621304.703
 110418474.806 8  86040441.205 7  21011923.883                    21011931.930
 11  8 16 21 55  0.0000000  0  7G04G20G09G02G28G08G17
 107694020.953 8  83917575.98846  20493464.500                    20493473.789
 126538900.688 6  98601627.85243  24079505.156                    24079514.824
 121773384.391 7  94888437.05744  23172712.484                    23172722.371
 125078921.777 6  97464232.87444  23801718.414                    23801732.016
 111628764.255 8  86983513.00846  21242255.641                    21242262.754
 124249218.292 6  96817578.90943  23643859.867                    23643875.035
 110439341.133 8  86056700.691 7  21015894.516                    21015902.984
 11  8 16 21 55 30.0000000  0  7G04G20G09G02G28G08G17
 107634162.446 8  83870933.05846  20482073.289                    20482083.207
 126534373.667 6  98598100.39443  24078642.688                    24078653.086
 121693713.031 7  94826355.52444  23157550.758                    23157560.508
 124980827.577 7  97387796.25644  23783051.195                    23783065.426
 111645009.668 8  86996171.75745  21245346.672                    21245353.867
 124367936.043 6  96910085.97443  23666450.969                    23666466.375
 110460348.303 8  86073069.925 7  21019892.266                    21019900.320
 11  8 16 21 56  0.0000000  0  7G04G20G09G02G28G08G17
 107574819.561 8  83824691.91246  20470780.750                    20470790.016
 126530308.426 6  98594932.74143  24077869.008                    24077879.527
 121614506.373 7  94764636.09844  23142478.922                    23142488.477
 124882881.531 7  97311475.09344  23764412.664                    23764426.629
 111661567.166 8  87009073.68146  21248497.680                    21248505.324
 124486763.644 6  97002678.61443  23689063.805                    23689078.938
 110481495.488 8  86089548.263 7  21023916.133                    21023924.203
 11  8 16 21 56 30.0000000  0  7G04G20G09G02G28G08G17
 107515993.552 8  83778853.53946  20459586.727                    20459595.695
 126526705.907 6  98592125.60443  24077183.719                    24077194.004
 121535766.977 7  94703280.77744  23127495.273                    23127505.027
 124785085.393 7  97235270.76044  23745802.203                    23745815.621
 111678437.458 8  87022219.34146  21251707.695                    21251714.801
 124605697.939 6  97095354.42543  23711695.422                    23711710.785
 110502781.165 8  86106134.516 7  21027966.773                    21027974.777
 11  8 16 21 57  0.0000000  0  7G04G20G09G02G28G08G17
 107457686.279 8  83733419.36746  20448490.992                    20448500.074
 126523567.417 6  98589680.12943  24076585.805                    24076596.316
 121457497.456 7  94642291.60744  23112600.570                    23112610.477
 124687441.202 7  97159184.81144  23727220.813                    23727234.156
 111695621.920 8  87035609.81546  21254977.914                    21254985.891
 124724736.303 6  97188111.29143  23734347.656                    23734362.836
 110524204.488 8  86122828.027 7  21032043.406                    21032051.777
 11  8 16 21 57 30.0000000  0  7G04G20G09G02G28G08G17
 107399899.701 8  83688390.92646  20437494.328                    20437503.668
 126520894.253 6  98587597.22243  24076076.617                    24076087.609
 121379700.464 7  94581670.58544  23097795.984                    23097805.648
 124589951.279 7  97083219.06944  23708669.188                    23708681.512
 111713122.267 8  87049246.43746  21258307.977                    21258315.887
 124843875.820 6  97280946.97843  23757020.117                    23757034.199
 110545764.808 8  86139628.285 7  21036146.148                    21036153.945
 11  8 16 21 58  0.0000000  0  7G04G20G09G02G28G08G17
 107342635.130 8  83643769.24646  20426597.383                    20426606.535
 126518687.446 6  98585877.67143  24075657.266                    24075667.555
 121302378.752 6  94521419.97744  23083082.008                    23083092.535
 124492617.208 7  97007374.74944  23690146.633                    23690158.879
 111730939.551 8  87063130.02146  21261698.586                    21261706.563
 124963113.293 6  97373858.96743  23779710.633                    23779724.098
 110567461.031 8  86156534.451 7  21040274.844                    21040282.754
 11  8 16 21 58 30.0000000  0  7G04G20G09G02G28G08G17
 107285893.896 8  83599555.36146  20415800.023                    20415808.891
 126516947.981 6  98584522.31843  24075326.383                    24075336.477
 121225534.989 7  94461541.80744  23068458.320                    23068469.270
 124395440.874 7  96931653.33644  23671654.367                    23671666.289
 111749074.647 8  87077261.25446  21265149.383                    21265157.258
 125082445.418 6  97466844.72143  23802419.359                    23802433.980
 110589291.849 8  86173545.483 7  21044429.078                    21044437.133
 11  8 16 21 59  0.0000000  0  7G04G20G09G02G28G08G17
 107229677.876 8  83555750.72546  20405102.359                    20405111.570
 126515676.759 6  98583531.77343  24075084.180                    24075094.172
 121149171.787 7  94402038.02744  23053926.875                    23053937.875
 124298424.683 7  96856056.74744  23653192.250                    23653205.105
 111767528.888 8  87091641.16246  21268661.313                    21268669.004
 125201869.506 6  97559902.13743  23825145.234                    23825160.402
 110611256.852 8  86190661.082 7  21048609.102                    21048617.070
 11  8 16 21 59 30.0000000  0  7G04G20G09G02G28G08G17
 107173988.614 8  83512356.53946  20394505.070                    20394514.426
 126514875.355 6  98582907.37643  24074930.922                    24074942.004
 121073291.595 7  94342910.68644  23039487.516                    23039498.445
 124201570.105 7  96780586.04244  23634761.328                    23634773.273
 111786303.402 8  87106270.64746  21272234.000                    21272242.207
 125321382.422 6  97653028.76943  23847887.734                    23847902.973
 110633354.731 8  86207880.226 7  21052814.383                    21052822.074
 11  8 16 22  0  0.0000000  0  7G04G20G09G02G28G08G17
 107118827.451 8  83469373.85746  20384008.367                    20384017.605
 126514544.356 6  98582649.53843  24074869.172                    24074878.770
 120997897.182 7  94284161.85944  23025141.453                    23025151.730
 124104879.333 7  96705242.98444  23616361.211                    23616373.945
 111805399.530 7  87121150.74846  21275867.609                    21275875.469
 125440981.145 6  97746222.24043  23870646.289                    23870662.660
 110655584.548 8  86225202.168 7  21057044.063                    21057052.340
 11  8 16 22  0 30.0000000  0  7G04G20G09G02G28G08G17
 107064195.812 8  83426803.80046  20373612.117                    20373621.492
 126514684.888 6  98582759.08443  24074895.023                    24074905.563
 120922990.959 7  94225793.40444  23010886.516                    23010896.840
 124008354.090 7  96630028.88944  23597993.031                    23598004.602
 111824818.190 8  87136282.16246  21279562.992                    21279571.074
 125560662.656 6  97839480.21943  23893421.344                    23893437.926
 110677945.313 8  86242626.151 7  21061299.758                    21061307.566
 11  8 16 22  1  0.0000000  0  7G04G20G09G02G28G08G17
 107010095.371 8  83384647.66046  20363317.148                    20363326.301
 126515298.027 6  98583236.94043  24075012.070                    24075022.410
 120848575.537 7  94167807.42645  22996725.828                    22996736.641
 123911996.291 7  96554945.25444  23579656.070                    23579668.430
 111844560.680 8  87151665.92546  21283319.742                    21283327.906
 125680423.854 6  97932800.29843  23916211.289                    23916227.664
 110700436.178 8  86260151.509 8  21065579.227                    21065587.352
 11  8 16 22  1 30.0000000  0  7G04G20G09G02G28G08G17
 106956527.440 8  83342906.46646  20353123.586                    20353132.832
 126516384.627 6  98584083.65743  24075218.828                    24075229.234
 120774653.624 7  94110205.98545  22982658.711                    22982669.449
 123815808.018 7  96479993.72944  23561352.391                    23561364.016
 111864627.908 8  87167302.72546  21287138.680                    21287146.586
 125800261.832 6  98026180.18843  23939015.922                    23939032.082
 110723056.196 8  86277777.506 7  21069883.977                    21069891.469
 11  8 16 22  2  0.0000000  0  7G04G20G09G02G28G08G17
 106903493.278 8  83301581.20346  20343031.297                    20343040.617
 126517945.638 6  98585300.07343  24075516.117                    24075526.070
 120701227.510 7  94052990.89945  22968686.938                    22968696.559
 123719790.912 7  96405175.57644  23543080.047                    23543092.293
 111885021.136 7  87183193.55546  21291018.977                    21291027.457
 125920173.402 6  98119617.41543  23961834.180                    23961851.160
 110745804.134 7  86295503.171 8  21074212.570                    21074220.098
 11  8 16 22  2 30.0000000  0  7G04G20G09G02G28G08G17
 106850994.290 8  83260672.96146  20333040.656                    20333050.055
 126519981.650 6  98586886.63643  24075903.328                    24075913.395
 120628299.735 7  93996164.10845  22954808.891                    22954818.961
 123623947.033 7  96330492.39944  23524841.281                    23524853.453
 111905741.346 7  87199339.15546  21294962.023                    21294970.043
 126040155.729 6  98213109.73543  23984667.336                    23984682.219
 110768679.208 7  86313327.912 8  21078565.438                    21078573.129
 11  8 16 22  3  0.0000000  0  8G04G20G09G02G10G28G08G17
 106799031.740 8  83220182.73146  20323153.000                    20323162.141
 126522493.837 6  98588844.19443  24076381.555                    24076391.168
 120555872.602 7  93939727.43045  22941026.313                    22941037.070
 123528278.196 7  96255945.62044  23506636.219                    23506648.184
 129506160.92216 100913991.14452  24644212.844                    24644228.754
 111926789.406 7  87215740.23145  21298967.805                    21298975.402
 126160205.741 6  98306654.81343  24007513.492                    24007527.250
 110791680.223 8  86331250.781 7  21082942.938                    21082950.746
 11  8 16 22  3 30.0000000  0  8G04G20G09G02G10G28G08G17
 106747606.923 8  83180111.51346  20313367.453                    20313376.016
 126525482.891 6  98591173.37243  24076949.523                    24076959.852
 120483948.277 7  93883682.58045  22927339.664                    22927349.762
 123432785.919 7  96181536.39144  23488464.148                    23488476.262
 129417766.635 6 100845112.89243  24627391.219                    24627407.555
 111948166.554 8  87232397.74745  21303035.414                    21303043.246
 126280320.165 6  98400250.07343  24030370.219                    24030384.543
 110814806.454 8  86349271.230 8  21087342.898                    21087351.258
 11  8 16 22  4  0.0000000  0  8G04G20G09G02G10G28G08G17
 106696721.431 8  83140460.54546  20303683.703                    20303692.926
 126528949.779 6  98593874.87643  24077608.914                    24077618.645
 120412529.729 7  93828031.80145  22913749.570                    22913759.020
 123337472.514 7  96107266.54744  23470326.852                    23470337.887
 129329228.379 6 100776122.51742  24610542.688                    24610558.953
 111969874.007 8  87249312.62945  21307166.398                    21307173.980
 126400496.606 6  98493893.64543  24053238.984                    24053254.805
 110838057.168 8  86367388.675 8  21091767.680                    21091775.734
 11  8 16 22  4 30.0000000  0  8G04G20G09G02G10G28G08G17
 106646376.489 8  83101230.78546  20294102.922                    20294112.344
 126532895.511 6  98596949.52443  24078360.828                    24078370.148
 120341619.264 7  93772776.95945  22900255.125                    22900265.406
 123242339.899 7  96033137.58544  23452223.016                    23452234.477
 129240548.686 6 100707021.90842  24593667.070                    24593684.770
 111991912.663 7  87266485.60245  21311359.977                    21311367.793
 126520731.905 6  98587583.11543  24076119.758                    24076135.582
 110861431.075 8  86385602.113 8  21096215.422                    21096223.531
 11  8 16 22  5  0.0000000  0  8G04G20G09G02G10G28G08G17
 106596573.597 8  83062423.39746  20284625.977                    20284634.902
 126537321.142 6  98600398.07943  24079203.422                    24079212.168
 120271219.497 7  93717920.07544  22886858.469                    22886868.383
 123147390.086 7  95959151.03144  23434154.203                    23434165.379
 129151730.492 6 100637813.39343  24576765.422                    24576782.758
 112014284.061 7  87283917.84745  21315617.281                    21315624.762
 126641023.067 6  98681316.06543  24099010.547                    24099027.074
 110884927.794 8  86403911.251 8  21100686.750                    21100694.867
 11  8 16 22  5 30.0000000  0  8G04G20G09G02G10G28G08G17
 106547314.073 8  83024039.41046  20275252.250                    20275261.578
 126542227.270 6  98604221.09243  24080136.164                    24080145.047
 120201333.093 7  93663463.18544  22873559.055                    22873568.816
 123052624.947 7  95885308.40844  23416120.578                    23416132.031
 129062776.173 6 100568498.79243  24559837.391                    24559854.762
 112036989.345 8  87301610.27146  21319937.898                    21319945.410
 126761366.976 6  98775090.15443  24121910.867                    24121927.742
 110908546.545 8  86422315.481 8  21105181.250                    21105188.957
 11  8 16 22  6  0.0000000  0  8G04G20G09G02G10G28G08G17
 106498599.002 8  82986079.66446  20265981.930                    20265991.027
 126547614.505 6  98608418.99843  24081160.914                    24081170.527
 120131962.101 7  93609407.91244  22860358.648                    22860367.922
 122958046.415 6  95811611.14744  23398122.711                    23398134.191
 128973688.284 6 100499080.08442  24542883.188                    24542901.664
 112060029.260 8  87319563.42845  21324322.336                    21324329.484
 126881760.905 6  98868903.16043  24144821.359                    24144838.750
 110932286.600 8  86440814.228 8  21109698.867                    21109707.273
 11  8 16 22  6 30.0000000  0  8G04G20G09G02G10G28G08G17
 106450429.373 8  82948544.93546  20256815.766                    20256824.898
 126553483.643 6  98612992.38443  24082278.094                    24082287.805
 120063108.838 7  93555756.06044  22847256.227                    22847266.477
 122863656.043 7  95738060.50944  23380160.391                    23380171.840
 128884469.365 6 100429559.29542  24525905.227                    24525923.590
 112083404.583 8  87337777.94145  21328770.563                    21328777.523
 127002201.855 6  98962752.77443  24167741.055                    24167757.633
 110956146.059 8  86459406.023 8  21114239.273                    21114247.492
 11  8 16 22  7  0.0000000  0  8G04G20G09G02G10G28G08G17
 106402806.755 8  82911436.45946  20247753.266                    20247762.277
 126559835.461 6  98617941.85242  24083486.914                    24083496.191
 119994775.774 7  93502509.57244  22834252.570                    22834262.551
 122769456.018 7  95664658.19844  23362234.422                    23362246.297
 128795121.937 6 100359938.37642  24508903.258                    24508920.586
 112107116.528 8  87356254.75045  21333283.148                    21333290.188
 127122687.020 6  99056636.96042  24190668.664                    24190684.797
 110980124.633 8  86478090.635 8  21118801.906                    21118810.246
 11  8 16 22  7 30.0000000  0  8G04G20G09G02G10G28G08G17
 106355732.016 8  82874754.89246  20238795.375                    20238804.426
 126566670.592 6  98623268.00443  24084787.797                    24084797.051
 119926965.337 7  93449670.30944  22821348.875                    22821358.566
 122675447.862 7  95591405.36844  23344345.359                    23344356.004
 128705648.54716 100290219.26052  24491876.828                    24491894.480
 112131166.177 8  87374994.71145  21337858.875                    21337866.914
 127243213.171 6  99150552.98043  24213604.875                    24213620.941
 111004221.300 8  86496867.268 8  21123387.758                    21123395.715
